     2              OBSERVATION DATA    GPS                 RINEX VERSION / TYPE
teqc 1999Jul19 19991123 02:53:31UTC                         PGM / RUN BY / DATE
                                                            COMMENT
Original Marker Name: 0227                                  COMMENT
Campaign Name: HPGN 1991                                    COMMENT
4-Character Station Name: 0227                              COMMENT
6-Character Antenna Code: TRMSST                            COMMENT
Vertical Measurement Point: BPA                             COMMENT
Vertical Offset to Rinex Ref. Point: 0.0000                 COMMENT
Radial Measurement Point: RRP                               COMMENT
Radial Offset to Rinex Ref. Point: 0.0000                   COMMENT
Antenna Height from Field Measurement: 2.2200 m             COMMENT
repositioned kinematic range pole back onto dimpleß8ri-commtCOMMENT
                                                            COMMENT
Original XYZ: -2502659.3401 -4217448.9931 4066386.4136      COMMENT
New XYZ position is based on association with SCEC monument COMMENT
E1O7A1D0+0011. Position of that monument is believed to be  COMMENT
valid to within 1 m horizontally; vertical accuracy         COMMENT
should be no worse than 3-times this value.                 COMMENT
                                                            COMMENT
Revised Rinex header created by UCSD GPS archive for        COMMENT
GSAC on 10-Mar-2000 (2000:070) 04:50:39 GMT                 COMMENT
For assistance contact dagnew@ucsd.edu or hjohnson@ucsd.edu COMMENT
                                                            COMMENT
HPGN CA 02 27                                               MARKER NAME
0227                                                        MARKER NUMBER
-Unknown- CALIF DEPT TRANSPORTATION                         OBSERVER / AGENCY
485 TRIMBLE 4000 SST NP 4.30 / SP 4.20                      REC # / TYPE / VERS
16 TR 4000SST L1/L2 GEO                                     ANT # / TYPE
 -2502666.0989 -4217463.7314  4066392.3654                  APPROX POSITION XYZ
        2.2200        0.0000        0.0000                  ANTENNA: DELTA H/E/N
     1     1     0                                          WAVELENGTH FACT L1/2
     5    C1    L1    L2    S1    S2                        # / TYPES OF OBSERV
     0                                                      INTERVAL
  1991     6    17    16     3   15.000000                  TIME OF FIRST OBS
  1991     6    17    22     3   60.000000                  TIME OF LAST OBS
                                                            END OF HEADER
 91  6 17 16  3 15.0000000  0  5G18G 2G11G19G16
  20639805.195          -0.43517        -0.26733        27.250           2.563
  24207053.547          -0.93115                         9.500
  24189762.234          -0.12515        -0.47431        10.000           0.500
  20563086.344          -0.85016        -0.11432        19.250           1.688
  24166840.398          -0.33314        -0.05931         7.250           0.313
 91  6 17 16  3 30.0000000  0  5G18G 2G11G19G16
  20644479.641       24565.418 7     19141.94622        26.750           2.406
  24197952.773      -47814.828 5                        10.250
  24182880.781      -36132.699 5    -28155.63221        10.250           0.469
  20562961.063        -643.508 7      -500.88922        20.000           1.594
  24161015.602      -30615.128 5    -23855.73621         7.500           0.375
 91  6 17 16  3 45.0000000  0  5G18G 2G11G19G16
  20649163.070       49208.407 7     38344.26222        26.000           2.375
  24188862.477      -95628.581 5        -0.22531        10.250           0.500
  24176012.063      -72223.878 5    -56278.55021        10.250           0.469
  20562846.008       -1256.851 6      -978.81322        19.750           1.656
  24155195.180      -61153.381 5    -47651.75721         7.750           0.344
 91  6 17 16  4  0.0000000  0  5G18G 2G11G19G16
  20653865.891       73902.720 7     57586.56322        26.250           2.406
  24179763.531     -143467.558 5    -37277.23121        10.750           0.438
  24169145.813     -108298.763 5    -84388.78621         9.750           0.438
  20562730.414       -1866.509 7     -1453.86422        20.000           1.688
  24149402.719      -91640.579 5    -71407.98521         8.750           0.375
 91  6 17 16  4 15.0000000  0  5G18G 2G11G19G16
  20658580.836       98679.352 7     76893.00822        26.750           2.438
  24170658.359     -191300.568 5    -74549.59621        10.250           0.531
  24162297.336     -144326.109 5   -112461.96321         9.500           0.375
  20562624.063       -2441.712 6     -1902.06822        19.750           1.656
  24143618.367     -122045.654 5    -95100.23021         9.500           0.375
 91  6 17 16  4 30.0000000  0  5G18G 2G11G19G16
  20663308.094      123530.659 7     96257.63922        26.750           2.281
  24161553.414     -239135.195 5   -111823.21821        10.250           0.469
  24155449.828     -180313.430 5   -140503.97221        10.000           0.563
  20562514.453       -2990.287 7     -2329.52122        20.000           1.750
  24137836.516     -152376.069 5   -118734.31021         9.000           0.375
 91  6 17 16  4 45.0000000  0  5G18G 2G11G19G16
  20668066.602      148524.182 7    115733.10822        27.000           2.344
  24152459.203     -286903.378 5   -149045.07721        10.500           0.531
  24148624.906     -216192.323 5   -168461.47521        11.750           0.531
  20562431.336       -3444.347 6     -2683.32622        19.750           1.531
  24132100.055     -182563.441 5   -142256.94721         9.000           0.438
 91  6 17 16  5  0.0000000  0  5G18G 2G11G19G16
  20672862.398      173719.350 7    135365.68922        27.250           2.438
  24143406.344     -334545.628 5   -186168.81521        11.250           0.344
  24141823.406     -251903.058 5   -196287.95221         9.750           0.375
  20562374.992       -3744.584 7     -2917.27422        20.500           1.500
  24126393.648     -212548.515 5   -165621.92221         9.000           0.469
 91  6 17 16  5 15.0000000  0  5G18G 2G11G19G16
  20677669.688      198981.641 7    155050.57423        27.500           2.531
  24134328.070     -382196.450 5   -223299.22221        10.000           0.469
  24135028.078     -287579.760 5   -224087.89621        10.250           0.438
  20562322.328       -4025.511 7     -3136.18022        20.000           1.625
  24120702.750     -242465.486 5   -188933.81921         8.500           0.500
 91  6 17 16  5 30.0000000  0  5G18G 2G11G19G16
  20682491.180      224332.818 7    174804.71523        27.000           2.500
  24125265.516     -429833.545 5   -260418.92321         9.750           0.406
  24128260.844     -323200.002 6   -251843.83821        12.250           0.563
  20562278.617       -4265.270 6     -3323.00422        19.500           1.563
  24115014.492     -272292.140 5   -212175.36221         7.750           0.531
 91  6 17 16  5 45.0000000  0  5G18G 2G11G19G16
  20687325.953      249739.454 7    194602.07323        27.250           2.625
  24116193.789     -477490.195 5   -297553.88321         9.250           0.500
  24121477.125     -358796.781 5   -279581.53121        11.000           0.625
  20562230.555       -4497.310 6     -3503.81022        19.500           1.563
  24109349.438     -302061.563 5   -235372.30221         8.000           0.500
 91  6 17 16  6  0.0000000  0  5G18G 2G11G19G16
  20692172.766      275205.475 7    214445.71723        27.000           2.625
  24107123.484     -525162.194 5   -334700.78921        10.250           0.563
  24114712.922     -394365.731 6   -307297.52321        12.000           0.563
  20562189.195       -4717.724 6     -3675.55421        18.500           1.438
  24103699.570     -331769.448 5   -258521.28121         8.250           0.438
 91  6 17 16  6 15.0000000  0  5G18G 2G11G19G16
  20697028.297      300740.943 7    234343.46123        26.500           2.625
  24098050.578     -572839.230 5   -371851.63121        10.500           0.531
  24107950.148     -429896.437 5   -334983.74521        10.750           0.500
  20562151.094       -4916.283 6     -3830.26622        19.750           1.500
  24098063.164     -361405.756 5   -281614.49521         8.750           0.406
 91  6 17 16  6 30.0000000  0  5G18G 2G11G19G16
  20701905.063      326343.514 7    254293.49423        27.750           2.688
  24088986.156     -620523.265 5   -409007.91521        10.250           0.500
  24101198.773     -465390.630 5   -362641.47221        10.750           0.406
  20562118.602       -5095.356 6     -3969.79922        19.000           1.594
  24092432.586     -390971.991 5   -304653.10921         8.750           0.469
 91  6 17 16  6 45.0000000  0  5G18G 2G11G19G16
  20706783.695      351997.138 7    274283.30923        26.500           2.656
  24079899.484     -668230.165 5   -446182.04421        10.750           0.438
  24094447.844     -500864.022 5   -390282.99521        11.750           0.531
  20562081.984       -5271.081 6     -4106.72122        19.500           1.531
  24086813.125     -420484.436 5   -327649.79421         8.000           0.438
 91  6 17 16  7  0.0000000  0  5G18G 2G11G19G16
  20711678.164      377702.409 8    294313.36923        28.000           2.625
  24070812.000     -715959.121 5   -483373.35621        10.000           0.438
  24087699.375     -536315.551 5   -417907.48421         9.750           0.563
  20562047.891       -5442.631 6     -4240.39821        19.500           1.438
  24081215.484     -449942.134 5   -350603.79121         8.250           0.375
 91  6 17 16  7 15.0000000  0  5G18G 2G11G19G16
  20716580.922      403466.554 8    314389.30723        28.000           2.656
  24061734.234     -763702.758 5   -520576.07921        10.500           0.531
  24080962.203     -571737.719 5   -445509.09721        11.750           0.656
  20562018.141       -5602.970 6     -4365.33322        18.500           1.531
  24075627.172     -479337.505 5   -373509.26921         8.500           0.375
 91  6 17 16  7 30.0000000  0  5G18G 2G11G19G16
  20721493.617      429295.988 7    334516.11722        27.000           2.438
  24052648.680     -811454.338 5   -557785.03321        10.500           0.469
  24074228.711     -607123.377 6   -473082.30521        12.000           0.563
  20561991.492       -5745.540 6                        19.250
  24070037.352     -508663.607 5   -396360.77021         8.250           0.375
 91  6 17 16  7 45.0000000  0  5G18G 2G11G19G16
  20726422.375      455189.878 7    354693.15323        26.750           2.531
  24043558.773     -859214.412 5   -595000.58221        10.000           0.438
  24067502.453     -642472.946 6   -500627.36521        12.250           0.688
  20561970.828       -5871.252 6                        19.500
  24064468.313     -537921.180 5   -419158.86721         8.500           0.500
 91  6 17 16  8  0.0000000  0  5G18G 2G11G19G16
  20731360.391      481134.035 7    374909.35423        27.000           2.563
  24034463.281     -906996.757 5   -632233.50521         9.750           0.438
  24060771.352     -677800.060 5   -528154.93721        11.000           0.563
  20561947.836       -5993.913 6                        19.500
  24058921.383     -567123.830 5   -441914.16221         9.000           0.406
 91  6 17 16  8 15.0000000  0  5G18G 2G11G19G16
  20736307.805      507134.860 7    395169.71123        27.000           2.563
  24025358.656     -954794.800 5   -669478.64521         9.250           0.406
  24054061.250     -713098.080 5   -555659.82121        11.250           0.625
  20561924.930       -6107.503 6                        19.750
  24053370.500     -596265.063 5   -464621.61121         9.000           0.313
 91  6 17 16  8 30.0000000  0  5G18G 2G11G19G16
  20741261.797      533193.817 7    415475.36223        26.500           2.531
  24016269.977    -1002606.899 5   -706734.75421         9.000           0.438
  24047352.578     -748364.901 6   -583140.39421        12.000           0.656
  20561905.539       -6210.307 6                        18.250
  24047840.242     -625343.199 5   -487279.86621         9.750           0.313
 91  6 17 16  8 45.0000000  0  5G18G 2G11G19G16
  20746235.797      559304.586 7    435821.39423        27.500           2.719
  24007164.930    -1050439.288 5   -744006.68521        10.000           0.344
  24040646.102     -783606.558 5   -610601.36921        11.000           0.656
  20561886.695       -6308.644 6                        18.750
  24042321.727     -654364.149 5   -509893.58221        10.000           0.344
 91  6 17 16  9  0.0000000  0  5G18G 2G11G19G16
  20751218.086      585492.150 7    456227.25723        27.000           2.656
  23998066.328    -1098266.401 5   -781274.51221        10.250           0.531
  24033950.523     -818797.383 5   -638022.71521        11.250           0.594
  20561872.461       -6377.354 7                        20.000
  24036802.500     -683302.495 5   -532442.93221         9.000           0.313
 91  6 17 16  9 15.0000000  0  5G18G 2G11G19G16
  20756210.164      611731.277 7    476673.30723        26.250           2.688
  23988959.625    -1146113.224 5   -818557.65621         9.000           0.438
  24027258.664     -853962.115 6   -665423.73421        12.250           0.656
  20561863.039       -6441.698 6                        19.750
  24031309.906     -712183.187 5   -554947.33821         9.250           0.344
 91  6 17 16  9 30.0000000  0  5G18G 2G11G19G16
  20761210.047      638014.339 7    497153.58623        26.500           2.656
  23979846.820    -1193987.221 5   -855862.01021         8.500           0.313
  24020568.391     -889107.914 6   -692810.00621        12.000           0.625
  20561847.250       -6509.171 7                        20.000
  24025829.023     -741013.557 5   -577412.54421         9.500           0.469
 91  6 17 16  9 45.0000000  0  5G18G 2G11G19G16
  20766225.234      664358.081 7    517681.14423        27.500           2.625
  23970737.266    -1241871.331 5   -893174.26021         9.750           0.281
  24013890.406     -924217.590 6   -720168.12221        12.750           0.688
  20561838.703       -6563.080 6                        18.750
  24020351.813     -769776.651 5   -599825.31921         9.500           0.438
 91  6 17 16 10  0.0000000  0  5G18G 2G11G19G16
  20771245.977      690741.666 7    538239.75523        26.750           2.625
  23961616.852    -1289786.215 5   -930510.49621         9.750           0.469
  24007210.305     -959311.612 6   -747514.08921        12.250           0.594
  20561824.211       -6624.360 6                        19.250
  24014888.789     -798492.755 5   -622201.49121        10.000           0.563
 91  6 17 16 10 15.0000000  0  5G18G 2G11G19G16
  20776277.039      717177.082 7    558838.75523        26.750           2.813
  23952497.719    -1337719.544 5   -967861.07021         9.750           0.438
  24000533.008     -994377.590 5   -774838.13321        11.750           0.625
  20561817.531       -6680.963 6                        18.750
  24009439.891     -827149.953 5   -644531.77221        10.000           0.250
 91  6 17 16 10 30.0000000  0  5G18G 2G11G19G16
  20781318.789      743667.867 7    579480.89023        26.750           2.781
  23943372.602    -1385667.461 5  -1005223.03021        10.000           0.344
  23993869.188    -1029411.292 6   -802137.05121        12.750           0.531
  20561803.148       -6729.246 6                        18.500
  24003988.344     -855744.056 5   -666812.87221         9.750           0.406
 91  6 17 16 10 45.0000000  0  5G18G 2G11G19G16
  20786370.008      770213.270 7    600165.58023        26.750           2.688
  23934241.680    -1433630.560 5  -1042596.83521        10.000           0.406
  23987210.594    -1064413.218 6   -829411.22521        13.250           0.500
  20561797.719       -6769.979 6                        18.750
  23998563.188     -884275.824 5   -689045.39021         9.250           0.344
 91  6 17 16 11  0.0000000  0  5G18G 2G11G19G16
  20791432.594      796805.294 7    620886.61123        27.250           2.563
  23925118.492    -1481616.585 5  -1079988.49121        10.500           0.500
  23980554.781    -1099390.877 6   -856666.50521        12.500           0.500
  20561790.648       -6810.952 6                        19.500
  23993147.477     -912752.949 5   -711235.34921         9.250           0.406
 91  6 17 16 11 15.0000000  0  5G18G 2G11G19G16
  20796501.625      823443.787 7    641643.84723        26.750           2.531
  23915974.797    -1529625.371 5  -1117397.89721        10.500           0.438
  23973898.227    -1134343.795 5   -883902.51421        11.500           0.500
  20561780.867       -6852.229 6                        19.250
  23987739.086     -941174.832 5   -733382.28821         9.750           0.219
 91  6 17 16 11 30.0000000  0  5G18G 2G11G19G16
  20801580.836      850137.592 7    662444.18223        26.500           2.563
  23906841.078    -1577647.923 5  -1154818.01421        10.500           0.469
  23967254.414    -1169262.942 6   -911112.19021        12.250           0.594
  20561777.773       -6885.111 6                        18.500
  23982339.070     -969532.570 5   -755479.20121        10.000           0.281
 91  6 17 16 11 45.0000000  0  5G18G 2G11G19G16
  20806670.453      876895.129 7    683294.16923        26.000           2.750
  23897702.297    -1625675.249 5  -1192241.87521        10.000           0.406
  23960622.977    -1204138.950 6   -938288.27321        12.500           0.625
  20561770.602       -6900.858 6                        18.250
  23976963.070     -997817.247 5   -777519.19121        10.500           0.344
 91  6 17 16 12  0.0000000  0  5G18G 2G11G19G16
  20811772.789      903708.118 7    704187.37923        25.750           2.969
  23888566.945    -1673715.372 5  -1229675.67921        10.750           0.625
  23953985.414    -1238979.641 5   -965436.82621        11.500           0.500
  20561773.930       -6907.599 6                        18.750
  23971600.969    -1026036.695 5   -799508.37221        10.750           0.281
 91  6 17 16 12 15.0000000  0  5G18G 2G11G19G16
  20816886.188      930578.548 7    725125.32723        25.750           2.781
  23879414.000    -1721766.124 5  -1267117.75921        11.500           0.563
  23947365.938    -1273782.750 6   -992556.09121        13.000           0.531
  20561772.336       -6903.469 6                        18.250
  23966236.672    -1054189.030 5   -821445.23421        10.250           0.219
 91  6 17 16 12 30.0000000  0  5G18G 2G11G19G16
  20822007.914      957499.021 7    746102.28723        25.250           2.750
  23870278.859    -1769834.832 5  -1304573.86421        11.250           0.563
  23940753.641    -1308555.322 6  -1019651.56721        13.250           0.469
  20561774.055       -6896.026 6                        19.000
  23960883.891    -1082281.452 5   -843335.41021         9.750           0.219
 91  6 17 16 12 45.0000000  0  5G18G 2G11G19G16
  20827140.438      984470.579 7    767119.05423        25.250           2.594
  23861121.547    -1817920.210 5  -1342042.92321        11.000           0.438
  23934137.859    -1343295.972 6  -1046722.14621        12.250           0.469
  20561780.172       -6884.210 6                        19.000
  23955548.266    -1110312.455 5   -865177.77221         9.000           0.313
 91  6 17 16 13  0.0000000  0  5G18G 2G11G19G16
  20832284.063     1011490.449 7    788173.46723        25.750           2.531
  23851962.375    -1866024.375 5  -1379526.64821        10.500           0.438
  23927529.430    -1378006.843 6  -1073769.53921        12.000           0.500
  20561779.398       -6870.516 6                        19.000
  23950224.258    -1138284.273 5   -886973.99021         8.500           0.188
 91  6 17 16 13 15.0000000  0  5G18G 2G11G19G16
  20837432.203     1038551.408 7    809259.89823        25.500           2.688
  23842805.125    -1914154.429 5  -1417030.57721        10.000           0.438
  23920930.164    -1412694.659 6  -1100798.96021        13.000           0.375
  20561779.727       -6862.129 6                        18.500
  23944911.719    -1166203.741 5   -908729.38421         8.500           0.219
 91  6 17 16 13 30.0000000  0  5G18G 2G11G19G16
  20842590.984     1065663.331 7    830386.03723        25.500           2.531
  23833644.469    -1962300.370 5  -1454546.84521        11.000           0.406
  23914336.383    -1447349.167 6  -1127802.45221        12.750           0.406
  20561782.734       -6849.354 6                        19.000
  23939621.234    -1194061.238 5   -930436.50521         9.000           0.281
 91  6 17 16 13 45.0000000  0  5G18G 2G11G19G16
  20847758.992     1092827.388 7    851552.79823        24.500           2.531
  23824479.000    -2010460.541 6  -1492074.23921        12.000           0.500
  23907745.055    -1481968.522 6  -1154778.53921        12.500           0.375
  20561785.656       -6830.529 6                        18.500
  23934334.531    -1221854.949 5   -952093.95121         9.750           0.344
 91  6 17 16 14  0.0000000  0  5G18G 2G11G19G16
  20852944.688     1120059.228 7    872772.38422        24.750           2.344
  23815313.938    -2058619.138 5  -1529600.41221        10.250           0.406
  23901170.289    -1516536.635 6  -1181714.70021        14.000           0.500
  20561793.953       -6789.994 6                        19.500
  23929049.828    -1249568.904 5   -973689.25121         9.250           0.281
 91  6 17 16 14 15.0000000  0  5G18G 2G11G19G16
  20858134.656     1147337.026 7    894027.77822        25.000           2.375
  23806146.109    -2106797.870 5  -1567142.22121        10.500           0.438
  23894603.922    -1551075.010 6  -1208627.69821        14.750           0.594
  20561803.031       -6749.874 6                        19.250
  23923786.313    -1277224.829 5   -995239.31521         8.750           0.250
 91  6 17 16 14 30.0000000  0  5G18G 2G11G19G16
  20863333.867     1174663.265 7    915320.91923        24.750           2.531
  23796973.625    -2154993.776 5  -1604697.44321        11.000           0.500
  23888029.859    -1585580.686 6  -1235515.21121        13.750           0.594
  20561813.094       -6707.358 6                        19.750
  23918544.836    -1304819.827 5  -1016741.90421         9.500           0.344
 91  6 17 16 14 45.0000000  0  5G18G 2G11G19G16
  20868543.227     1202026.875 7    936643.17923        25.750           2.688
  23787799.977    -2203217.791 5  -1642274.56521        10.500           0.563
  23881469.336    -1620064.194 6  -1262385.45021        14.500           0.688
  20561818.766       -6673.573 6                        19.000
  23913298.445    -1332364.665 5  -1038205.40421         9.750           0.344
 91  6 17 16 15  0.0000000  0  5G18G 2G11G19G16
  20873757.828     1229442.780 7    958006.17023        26.000           2.719
  23778621.953    -2251454.708 5  -1679861.75321        10.750           0.500
  23874919.758    -1654510.121 6  -1289226.38921        14.500           0.625
  20561824.391       -6633.435 6                        19.250
  23908070.586    -1359843.868 5  -1059617.78521         9.000           0.344
 91  6 17 16 15 15.0000000  0  5G18G 2G11G19G16
  20878983.594     1256919.401 7    979416.48223        24.750           2.688
  23769450.539    -2299695.690 6  -1717452.11821        12.000           0.500
  23868374.695    -1688909.358 6  -1316030.95221        15.250           0.656
  20561836.313       -6578.341 6                        18.500
  23902845.000    -1387248.697 5  -1080972.21321         8.500           0.250
 91  6 17 16 15 30.0000000  0  5G18G 2G11G19G16
  20884225.070     1284446.593 7   1000866.19923        25.250           2.594
  23760261.953    -2347950.947 5  -1755053.59821        10.250           0.563
  23861827.453    -1723271.957 6  -1342806.95921        13.750           0.688
  20561847.180       -6518.632 6                        19.250
  23897659.188    -1414589.353 5  -1102276.58221         9.750           0.281
 91  6 17 16 15 45.0000000  0  5G18G 2G11G19G16
  20889473.719     1312039.446 7   1022367.08823        25.500           2.531
  23751077.719    -2396204.909 5  -1792654.02121        10.500           0.531
  23855304.867    -1757582.214 6  -1369542.19621        14.500           0.781
  20561860.344       -6439.128 6                        18.500
  23892464.820    -1441850.306 5  -1123518.89221         9.750           0.375
 91  6 17 16 16  0.0000000  0  5G18G 2G11G19G16
  20894739.742     1339686.206 7   1043909.97223        25.500           2.563
  23741887.898    -2444468.553 5  -1830262.02621        11.250           0.625
  23848778.250    -1791851.179 6  -1396245.23421        13.500           0.844
  20561878.391       -6351.250 6                        19.500
  23887289.617    -1469042.690 5  -1144707.76621        10.250           0.344
 91  6 17 16 16 15.0000000  0  5G18G 2G11G19G16
  20900009.766     1367390.197 7   1065497.46423        25.500           2.625
  23732703.891    -2492738.844 5  -1867875.22621        10.500           0.656
  23842266.563    -1826075.193 6  -1422913.26121        14.250           0.656
  20561899.727       -6251.786 6                        19.000
  23882125.234    -1496163.163 5  -1165840.61221        10.000           0.438
 91  6 17 16 16 30.0000000  0  5G18G 2G11G19G16
  20905290.852     1395149.299 7   1087127.88523        24.750           2.594
  23723516.914    -2541017.657 5  -1905495.05521        11.250           0.469
  23835769.398    -1860256.025 6  -1449547.63621        15.000           0.656
  20561919.156       -6142.958 6                        19.250
  23876982.789    -1523213.637 5  -1186918.90821        10.750           0.406
 91  6 17 16 16 45.0000000  0  5G18G 2G11G19G16
  20910581.313     1422950.638 7   1108791.22523        24.750           2.625
  23714330.406    -2589317.262 6  -1943131.09721        12.500           0.594
  23829260.461    -1894405.857 6  -1476157.85121        12.500           0.594
  20561936.211       -6037.290 6                        18.500
  23871846.031    -1550206.399 5  -1207952.22421        11.250           0.406
 91  6 17 16 17  0.0000000  0  5G18G 2G11G19G16
  20915885.438     1450814.672 7   1130503.41822        24.750           2.469
  23705134.750    -2637617.192 6  -1980767.38521        13.000           0.563
  23822779.453    -1928503.844 6  -1502727.68021        14.000           0.594
  20561961.422       -5914.409 6                        18.750
  23866724.344    -1577120.955 5  -1228924.60421        11.250           0.375
 91  6 17 16 17 15.0000000  0  5G18G 2G11G19G16
  20921197.969     1478730.197 7   1152255.73423        25.750           2.594
  23695939.805    -2685928.297 5  -2018412.39221        11.750           0.594
  23816297.555    -1962560.809 6  -1529265.54921        13.000           0.594
  20561983.852       -5785.523 6                        18.250
  23861603.063    -1603968.171 5  -1249844.50821        10.000           0.250
 91  6 17 16 17 30.0000000  0  5G18G 2G11G19G16
  20926518.695     1506697.378 7   1174048.29923        25.500           2.688
  23686746.500    -2734249.979 6  -2056065.61621        12.250           0.531
  23809818.422    -1996576.032 6  -1555770.89121        13.000           0.625
  20562010.438       -5650.182 6                        19.000
  23856504.820    -1630747.544 5  -1270711.55921        10.000           0.375
 91  6 17 16 17 45.0000000  0  5G18G 2G11G19G16
  20931851.781     1534725.816 7   1195888.60623        25.250           2.594
  23677550.523    -2782572.438 6  -2093719.46921        12.000           0.563
  23803354.859    -2030539.450 6  -1582235.89021        12.500           0.625
  20562040.688       -5498.480 6                        19.500
  23851431.188    -1657449.069 5  -1291517.94621        10.250           0.375
 91  6 17 16 18  0.0000000  0  5G18G 2G11G19G16
  20937198.422     1562823.724 7   1217783.04723        25.250           2.594
  23668354.828    -2830887.037 5  -2131367.20121        11.250           0.594
  23796907.266    -2064442.237 6  -1608653.58821        14.750           0.719
  20562075.859       -5322.223 6                        19.250
  23846368.766    -1684064.129 5  -1312256.95021        10.000           0.438
 91  6 17 16 18 15.0000000  0  5G18G 2G11G19G16
  20942554.914     1590974.519 7   1239718.69522        25.250           2.156
  23659156.477    -2879210.324 5  -2169021.70021        11.000           0.469
  23790465.852    -2098300.768 6  -1635036.80821        13.750           0.625
  20562110.891       -5138.174 6                        19.250
  23841316.516    -1710609.334 5  -1332941.52421         9.500           0.344
 91  6 17 16 18 30.0000000  0  5G18G 2G11G19G16
  20947922.188     1619173.837 7   1261692.15022        25.500           2.375
  23649958.414    -2927546.288 6  -2206686.05721        12.000           0.500
  23784030.055    -2132118.897 6  -1661388.56721        15.000           0.906
  20562147.609       -4950.731 6        -0.49331        17.750           1.469
  23836278.406    -1737088.585 5  -1353574.71021         9.750           0.375
 91  6 17 16 18 45.0000000  0  5G18G 2G11G19G16
  20953300.938     1647427.960 7   1283708.30722        26.000           2.469
  23640767.492    -2975888.583 6  -2244355.35721        12.750           0.500
  23777607.211    -2165889.869 6  -1687703.56921        15.500           0.875
  20562182.109       -4753.474 6       153.20722        18.000           1.500
  23831259.930    -1763495.358 5  -1374151.43721        10.500           0.375
 91  6 17 16 19  0.0000000  0  5G18G 2G11G19G16
  20958688.695     1675741.398 7   1305770.68922        26.000           2.438
  23631569.258    -3024232.276 6  -2282025.76521        12.500           0.594
  23771187.195    -2199608.616 6  -1713977.85721        14.000           0.719
  20562226.898       -4541.622 6       318.27522        18.250           1.500
  23826246.664    -1789824.698 5  -1394667.79421        10.500           0.500
 91  6 17 16 19 15.0000000  0  5G18G 2G11G19G16
  20964082.594     1704092.714 7   1327862.57322        25.250           2.375
  23622360.055    -3072598.429 6  -2319713.66021        12.500           0.656
  23764774.664    -2233296.061 6  -1740227.79021        13.500           0.656
  20562263.477       -4336.563 6       478.03121        19.000           1.469
  23821245.859    -1816097.640 5  -1415140.19221        10.500           0.438
 91  6 17 16 19 30.0000000  0  5G18G 2G11G19G16
  20969491.469     1732503.769 7   1350001.00823        26.000           2.688
  23613163.398    -3120964.859 6  -2357401.75721        13.750           0.656
  23758376.633    -2266929.843 6  -1766435.86721        13.750           0.750
  20562302.078       -4116.436 6       649.55221        19.000           1.375
  23816260.086    -1842292.226 5  -1435551.54321        10.250           0.438
 91  6 17 16 19 45.0000000  0  5G18G 2G11G19G16
  20974905.383     1760965.759 7   1372179.14922        24.750           2.438
  23603952.375    -3169339.784 6  -2395096.49321        13.000           0.500
  23751989.344    -2300518.184 6  -1792608.57221        13.750           0.844
  20562346.688       -3889.699 6       826.22121        18.250           1.406
  23811296.852    -1868416.611 5  -1455908.21321        11.750           0.406
 91  6 17 16 20  0.0000000  0  5G18G 2G11G19G16
  20980337.602     1789512.735 7   1394423.50222        25.500           2.375
  23594747.555    -3217689.647 6  -2432771.72021        13.000           0.531
  23745606.508    -2334027.002 6  -1818719.30121        13.250           0.656
  20562395.422       -3622.775 6      1034.19622        18.250           1.500
  23806336.234    -1894437.055 5  -1476183.89321        10.000           0.313
 91  6 17 16 20 15.0000000  0  5G18G 2G11G19G16
  20985774.094     1818094.992 7   1416695.36023        25.000           2.625
  23585550.922    -3266063.442 6  -2470465.57121        14.250           0.719
  23739236.039    -2367505.190 6  -1844806.18421        12.750           0.719
  20562447.133       -3364.996 6      1235.04122        19.000           1.594
  23801391.867    -1920402.594 5  -1496416.75721         9.000           0.469
 91  6 17 16 20 30.0000000  0  5G18G 2G11G19G16
  20991226.164     1846725.153 7   1439004.53423        25.250           2.594
  23576345.867    -3314448.096 6  -2508167.87921        12.750           0.625
  23732873.266    -2400939.587 6  -1870858.91821        13.250           0.719
  20562498.484       -3103.394 6      1438.86622        19.000           1.531
  23796467.695    -1946300.300 5  -1516596.77321         9.250           0.406
 91  6 17 16 20 45.0000000  0  5G18G 2G11G19G16
  20996683.953     1875413.243 7   1461358.84923        25.250           2.813
  23567128.922    -3362833.408 6  -2545870.70221        13.000           0.563
  23726522.625    -2434319.721 6  -1896869.35221        14.250           0.625
  20562550.727       -2828.097 6      1653.36222        18.500           1.531
  23791549.820    -1972119.687 5  -1536715.76921         9.250           0.438
 91  6 17 16 21  0.0000000  0  5G18G 2G11G19G16
  21002154.391     1904156.653 7   1483756.26523        25.500           2.781
  23557921.438    -3411221.738 6  -2583575.91721        12.250           0.625
  23720180.453    -2467647.788 6  -1922839.22821        14.750           0.813
  20562603.930       -2541.492 6      1876.67122        17.250           1.625
  23786657.172    -1997863.457 5  -1556775.82121        11.000           0.531
 91  6 17 16 21 15.0000000  0  5G18G 2G11G19G16
  21007638.883     1932971.388 7   1506209.26023        25.250           2.781
  23548719.734    -3459596.894 6  -2621270.82621        12.250           0.719
  23713849.328    -2500907.403 6  -1948755.77821        14.250           0.906
  20562664.016       -2227.463 6      2121.34122        18.750           1.563
  23781783.117    -2023514.829 6  -1576763.88621        12.250           0.500
 91  6 17 16 21 30.0000000  0  5G18G 2G11G19G16
  21013133.000     1961850.190 7   1528712.18923        25.250           2.875
  23539510.852    -3507965.887 6  -2658960.93621        12.000           0.781
  23707536.945    -2534105.416 6  -1974624.28521        15.250           0.750
  20562727.102       -1893.329 6      2381.67621        19.000           1.469
  23776904.828    -2049081.164 5  -1596685.69221        11.000           0.500
 91  6 17 16 21 45.0000000  0  5G18G 2G11G19G16
  21018642.586     1990795.033 7   1551266.56523        26.000           2.719
  23530315.172    -3556326.133 6  -2696644.24121        12.000           0.688
  23701230.719    -2567239.103 6  -2000442.69921        15.750           0.938
  20562793.352       -1536.981 6      2659.32122        17.750           1.531
  23772063.719    -2074560.299 5  -1616539.56021        11.500           0.500
 91  6 17 16 22  0.0000000  0  5G18G 2G11G19G16
  21024159.773     2019799.700 7   1573867.56523        25.250           2.625
  23521117.523    -3604683.831 6  -2734325.54121        12.250           0.656
  23694933.898    -2600314.227 6  -2026215.47621        14.250           0.750
  20562865.266       -1164.590 6      2949.47021        19.000           1.406
  23767227.320    -2099958.134 5  -1636330.07621        11.000           0.500
 91  6 17 16 22 15.0000000  0  5G18G 2G11G19G16
  21029689.977     2048862.826 7   1596514.12123        24.750           2.781
  23511904.063    -3653039.781 6  -2772005.49221        12.500           0.563
  23688650.773    -2633331.550 6  -2051943.20021        14.750           0.688
  20562941.664        -777.167 6      3251.33921        19.000           1.406
  23762407.227    -2125275.034 5  -1656057.51821        10.500           0.563
 91  6 17 16 22 30.0000000  0  5G18G 2G11G19G16
  21035229.875     2077978.407 7   1619201.53823        24.500           2.781
  23502708.375    -3701399.677 6  -2809688.52421        12.500           0.625
  23682375.461    -2666296.703 6  -2077630.28421        12.750           0.656
  20563016.234        -380.777 7      3560.19421        20.250           1.375
  23757604.148    -2150516.850 5  -1675726.46621        11.000           0.438
 91  6 17 16 22 45.0000000  0  5G18G 2G11G19G16
  21040780.742     2107140.773 7   1641925.41423        24.500           2.656
  23493494.859    -3749769.139 6  -2847379.01321        12.000           0.594
  23676113.086    -2699214.958 6  -2103280.79721        13.750           0.563
  20563094.148          18.914 6      3871.62021        19.250           1.406
  23752813.211    -2175689.326 5  -1695341.34321        10.500           0.500
 91  6 17 16 23  0.0000000  0  5G18G 2G11G19G16
  21046342.188     2136356.338 7   1664690.75423        24.750           2.688
  23484292.039    -3798141.370 6  -2885071.63921        12.500           0.656
  23669861.344    -2732079.378 6  -2128889.36921        14.750           0.625
  20563170.469         428.519 6      4190.77421        18.250           1.438
  23748045.531    -2200785.537 5  -1714896.82421        10.750           0.469
 91  6 17 16 23 15.0000000  0  5G18G 2G11G19G16
  21051907.359     2165637.177 7   1687506.94823        24.000           2.656
  23475093.813    -3846504.134 6  -2922756.89621        14.000           0.656
  23663620.758    -2764877.675 6  -2154446.40421        14.000           0.781
  20563252.602         859.969 6      4526.94821        19.000           1.469
  23743280.867    -2225793.362 5  -1734383.44821        10.000           0.375
 91  6 17 16 23 30.0000000  0  5G18G 2G11G19G16
  21057496.297     2194980.055 7   1710371.49723        24.500           2.594
  23465893.484    -3894860.388 6  -2960437.10721        13.750           0.656
  23657394.977    -2797612.450 6  -2179953.96421        14.750           0.750
  20563338.211        1310.311 6      4877.85022        19.250           1.531
  23738538.453    -2250715.722 5  -1753803.47121        10.250           0.438
 91  6 17 16 23 45.0000000  0  5G18G 2G11G19G16
  21063090.813     2224376.089 7   1733277.46023        25.000           2.594
  23456688.133    -3943218.570 6  -2998118.79521        13.250           0.625
  23651170.719    -2830292.027 6  -2205418.50821        14.250           0.656
  20563424.555        1770.892 6      5236.72422        18.250           1.500
  23733811.531    -2275560.846 5  -1773163.28921        10.000           0.313
 91  6 17 16 24  0.0000000  0  5G18G 2G11G19G16
  21068697.211     2253842.919 7   1756238.59223        24.250           2.656
  23447494.008    -3991560.932 6  -3035788.14921        14.000           0.563
  23644963.523    -2862898.456 6  -2230826.04921        13.250           0.719
  20563515.805        2259.254 6      5617.24521        18.250           1.375
  23729101.945    -2300311.392 5  -1792449.41521         9.000           0.406
 91  6 17 16 24 15.0000000  0  5G18G 2G11G19G16
  21074316.055     2283370.739 7   1779247.23923        23.750           2.594
  23438288.102    -4039896.834 6  -3073452.50321        12.750           0.625
  23638773.500    -2895440.874 6  -2256183.70921        14.500           0.656
  20563613.953        2765.977 6      6012.08221        18.750           1.375
  23724415.078    -2324976.636 5  -1811669.03621         9.750           0.438
 91  6 17 16 24 30.0000000  0  5G18G 2G11G19G16
  21079947.602     2312957.701 7   1802301.97423        24.250           2.594
  23429095.523    -4088227.625 6  -3111112.84621        12.750           0.719
  23632590.531    -2927920.598 6  -2281492.54721        13.000           0.656
  20563714.758        3289.338 6      6419.88321        19.500           1.469
  23719727.141    -2349558.047 5  -1830823.38321         8.500           0.344
 91  6 17 16 24 45.0000000  0  5G18G 2G11G19G16
  21085588.305     2342599.842 7   1825399.69823        24.750           2.719
  23419892.805    -4136557.282 6  -3148772.29321        12.750           0.750
  23626423.992    -2960341.347 6  -2306755.41121        14.750           0.688
  20563816.984        3825.050 6      6837.30922        18.500           1.500
  23715068.156    -2374059.259 5  -1849915.22821         9.000           0.438
 91  6 17 16 25  0.0000000  0  5G18G 2G11G19G16
  21091234.492     2372296.494 7   1848539.90023        24.000           2.781
  23410700.070    -4184886.186 5  -3186431.16921        11.750           0.719
  23620267.766    -2992703.142 6  -2331972.30721        14.500           0.531
  20563919.477        4372.746 6      7264.06722        19.000           1.563
  23710427.406    -2398480.491 5  -1868944.74321         9.250           0.375
 91  6 17 16 25 15.0000000  0  5G18G 2G11G19G16
  21096901.305     2402050.868 7   1871725.08723        24.500           2.781
  23401504.734    -4233210.634 6  -3224086.56421        13.000           0.625
  23614116.469    -3025002.347 6  -2357140.50021        14.250           0.625
  20564026.336        4935.626 6      7702.66122        18.250           1.531
  23705786.102    -2422818.506 5  -1887909.43421         8.500           0.406
 91  6 17 16 25 30.0000000  0  5G18G 2G11G19G16
  21102573.617     2431863.079 7   1894955.33923        24.000           2.688
  23392311.234    -4281530.282 6  -3261738.24221        12.500           0.625
  23607983.078    -3057238.379 6  -2382259.43721        15.250           0.688
  20564138.945        5513.961 6      8153.30522        19.000           1.563
  23701171.227    -2447072.751 5  -1906808.84821         9.000           0.313
 91  6 17 16 25 45.0000000  0  6G18G 2G11G19G16G 6
  21108259.242     2461739.566 7   1918235.67523        24.250           2.625
  23383118.758    -4329838.281 6  -3299380.81121        13.500           0.719
  23601862.422    -3089404.098 6  -2407323.59421        15.000           0.688
  20564251.133        6114.491 6      8621.23722        18.250           1.563
  23696575.680    -2471236.387 5  -1925637.62521         9.250           0.438
  24438050.883          -0.32713                         5.750
 91  6 17 16 26  0.0000000  0  6G18G 2G11G19G16G 6
  21113955.000     2491671.927 7   1941559.56523        24.250           2.563
  23373928.375    -4378142.943 6  -3337020.81321        12.750           0.688
  23595751.500    -3121507.752 6  -2432339.38721        14.250           0.719
  20564368.953        6728.752 6      9099.87922        18.500           1.500
  23691993.484    -2495318.054 5  -1944402.56321         9.500           0.281
  24430456.344      -39965.848 4                         6.750
 91  6 17 16 26 15.0000000  0  6G18G 2G11G19G16G 6
  21119660.523     2521658.945 7   1964926.02323        24.750           2.625
  23364732.617    -4426444.864 6  -3374658.67021        12.750           0.594
  23589655.180    -3153549.727 6  -2457307.09921        14.250           0.750
  20564486.102        7355.978 6      9588.62321        18.000           1.469
  23687431.938    -2519318.099 5  -1963103.89021        10.000           0.406
  24422843.023      -79956.049 4        -0.10731         7.250           0.344
 91  6 17 16 26 30.0000000  0  6G18G 2G11G19G16G 6
  21125378.180     2551706.844 7   1988339.94123        24.750           2.531
  23355548.922    -4474737.709 6  -3412289.44421        13.750           0.719
  23583573.828    -3185523.490 6  -2482221.67321        14.250           0.656
  20564610.383        8002.266 6     10092.21221        18.750           1.438
  23682875.289    -2543230.150 5  -1981736.63721         9.250           0.438
  24415234.344     -119964.771 5    -31175.72321         7.750           0.281
 91  6 17 16 26 45.0000000  0  6G18G 2G11G19G16G 6
  21131110.242     2581820.560 7   2011805.14123        25.750           2.625
  23346354.336    -4523016.486 6  -3449909.26221        12.500           0.750
  23577502.742    -3217423.723 6  -2507078.93121        14.000           0.531
  20564739.500        8672.510 6     10614.48021        18.250           1.438
  23678343.227    -2567049.186 5  -2000296.91521         9.750           0.313
  24407607.055     -159987.108 4    -62361.94121         7.000           0.313
 91  6 17 16 27  0.0000000  0  6G18G 2G11G19G16G 6
  21136854.203     2612001.954 7   2035323.07223        25.250           2.563
  23337175.656    -4571278.741 6  -3487516.20821        14.000           0.719
  23571447.711    -3249247.867 6  -2531876.91021        14.750           0.594
  20564870.344        9369.072 6     11157.24721        18.000           1.469
  23673834.234    -2590772.824 5  -2018782.88121        10.250           0.375
  24400001.234     -200020.904 4    -93557.05421         7.000           0.219
 91  6 17 16 27 15.0000000  0  6G18G 2G11G19G16G 6
  21142607.250     2642239.903 7   2058885.06922        25.000           2.469
  23327982.688    -4619535.485 6  -3525118.85521        13.500           0.781
  23565403.656    -3281006.809 6  -2556624.08121        15.250           0.656
  20565004.961       10080.635 6     11711.70621        17.750           1.469
  23669333.039    -2614411.702 5  -2037202.78921         9.750           0.375
  24392376.805     -240077.265 5   -124769.79621         7.500           0.281
 91  6 17 16 27 30.0000000  0  6G18G 2G11G19G16G 6
  21148373.219     2672532.901 7   2082489.97022        24.750           2.438
  23318813.836    -4667787.824 6  -3562718.05921        14.250           0.719
  23559370.109    -3312701.470 6  -2581321.14621        15.000           0.594
  20565145.500       10806.012 6     12276.92521        18.750           1.469
  23664846.148    -2637966.935 5  -2055557.52321         9.500           0.406
  24384741.648     -280157.476 4   -156001.12521         7.250           0.250
 91  6 17 16 27 45.0000000  0  6G18G 2G11G19G16G 6
  21154152.758     2702898.712 7   2106151.60322        25.250           2.344
  23309626.727    -4716017.682 6  -3600299.74421        13.000           0.719
  23553357.734    -3344313.705 6  -2605954.01221        14.750           0.563
  20565285.805       11562.944 6     12866.73722        17.750           1.531
  23660383.594    -2661420.770 5  -2073833.20321         9.750           0.375
  24377127.977     -320243.845 5   -187237.25021         8.000           0.313
 91  6 17 16 28  0.0000000  0  6G18G 2G11G19G16G 6
  21159939.500     2733317.627 7   2129854.60622        24.750           2.375
  23300449.813    -4764244.472 6  -3637879.05021        13.250           0.750
  23547351.602    -3375862.567 6  -2630537.46921        14.750           0.656
  20565435.797       12331.909 6     13465.92722        18.250           1.500
  23655942.234    -2684792.613 5  -2092045.00321        10.500           0.375
  24369476.766     -360355.753 4   -218493.27921         6.500           0.156
 91  6 17 16 28 15.0000000  0  6G18G 2G11G19G16G 6
  21165735.047     2763776.363 7   2153588.64122        24.750           2.469
  23291271.258    -4812481.302 6  -3675466.18321        13.250           0.719
  23541360.438    -3407361.124 6  -2655081.73721        14.500           0.656
  20565582.734       13099.591 6     14064.11922        18.250           1.563
  23651502.320    -2708095.787 5  -2110203.30121         9.750           0.281
  24361843.086     -400506.611 4   -249779.62721         7.250           0.250
 91  6 17 16 28 30.0000000  0  6G18G 2G11G19G16G 6
  21171544.266     2794294.198 7   2177368.73423        25.000           2.531
  23282095.156    -4860708.445 6  -3713045.75621        13.250           0.750
  23535376.133    -3438789.422 6  -2679571.26321        14.250           0.500
  20565731.633       13885.428 6     14676.45622        18.750           1.656
  23647085.273    -2731310.514 5  -2128292.69021         9.500           0.344
  24354205.875     -440676.885 5   -281081.10721         8.000           0.313
 91  6 17 16 28 45.0000000  0  6G18G 2G11G19G16G 6
  21177358.359     2824869.169 7   2201193.33822        24.250           2.438
  23272922.883    -4908927.346 6  -3750618.91721        13.750           0.719
  23529413.086    -3470148.905 6  -2704007.15021        15.250           0.531
  20565882.133       14687.672 6     15301.58422        17.750           1.625
  23642689.016    -2754438.169 5  -2146314.23021        10.250           0.281
  24346554.453     -480868.293 5   -312399.06121         7.750           0.313
 91  6 17 16 29  0.0000000  0  6G18G 2G11G19G16G 6
  21183194.047     2855520.962 7   2225077.81822        24.500           2.313
  23263751.523    -4957118.257 6  -3788170.25921        13.000           0.750
  23523458.797    -3501419.638 6  -2728373.89021        14.000           0.594
  20566040.742       15526.063 6     15954.86622        18.500           1.656
  23638304.945    -2777458.916 5  -2164252.46421        10.000           0.406
  24338904.430     -521061.155 4   -343718.19521         6.750           0.219
 91  6 17 16 29 15.0000000  0  6G18G 2G11G19G16G 6
  21189042.320     2886252.230 7   2249024.21822        24.500           2.469
  23254589.789    -5005278.127 6  -3825697.42021        14.250           0.875
  23517525.609    -3532598.379 6  -2752668.95921        15.250           0.594
  20566208.156       16403.311 6     16638.43022        17.500           1.531
  23633941.719    -2800369.934 5  -2182105.17921         9.250           0.375
  24331251.789     -561252.731 4   -375036.29521         6.750           0.406
 91  6 17 16 29 30.0000000  0  6G18G 2G11G19G16G 6
  21194898.656     2917026.962 7   2273004.48622        25.250           2.438
  23245419.336    -5053442.831 6  -3863228.33021        13.250           0.906
  23511606.516    -3563720.699 6  -2776920.05621        14.750           0.531
  20566376.898       17283.576 6     17324.34122        18.500           1.656
  23629595.016    -2823207.111 5  -2199900.39021         9.500           0.406
  24323610.898     -601478.991 4   -406381.40921         7.250           0.313
 91  6 17 16 29 45.0000000  0  6G18G 2G11G19G16G 6
  21200764.188     2947844.869 7   2297018.39922        24.500           2.469
  23236254.125    -5101612.566 6  -3900763.13821        14.250           0.844
  23505693.219    -3594786.489 6  -2801127.08121        15.000           0.563
  20566545.477       18166.661 6     18012.45822        18.250           1.531
  23625259.773    -2845970.497 5  -2217638.07821         8.750           0.406
  24315936.344     -641740.095 4   -437753.65321         6.750           0.219
 91  6 17 16 30  0.0000000  0  6G18G 2G11G19G16G 6
  21206639.078     2978729.204 7   2321084.07423        25.250           2.625
  23227091.289    -5149763.302 6  -3938283.19121        13.500           0.844
  23499796.359    -3625771.734 6  -2825271.37221        14.000           0.688
  20566719.789       19076.113 6     18721.11322        18.500           1.500
  23620947.336    -2868636.189 5  -2235299.63721         9.250           0.406
  24308272.719     -682012.301 5   -469134.57921         7.500           0.344
 91  6 17 16 30 15.0000000  0  6G18G 2G11G19G16G 6
  21212529.609     3009681.378 7   2345202.61823        24.500           2.625
  23217931.891    -5197893.624 6  -3975787.29821        14.000           0.844
  23493914.320    -3656674.731 6  -2849351.57921        14.250           0.750
  20566893.578       20013.363 6     19451.43621        17.250           1.469
  23616655.227    -2891202.538 5  -2252883.77921        10.000           0.438
  24300607.594     -722294.383 5   -500523.19821         8.000           0.188
 91  6 17 16 30 30.0000000  0  6G18G 2G11G19G16G 6
  21218433.328     3040698.354 7   2369371.65522        25.000           2.469
  23208773.617    -5246005.932 6  -4013277.41621        13.000           0.750
  23488048.563    -3687497.965 6  -2873369.60821        13.750           0.719
  20567079.188       20975.630 6     20201.26021        17.000           1.438
  23612387.859    -2913672.441 5  -2270392.78121        11.250           0.438
  24292936.570     -762589.134 5   -531921.66821         7.750           0.281
 91  6 17 16 30 45.0000000  0  6G18G 2G11G19G16G 6
  21224343.625     3071775.919 7   2393587.89322        24.000           2.438
  23199625.875    -5294104.369 6  -4050756.67221        14.750           0.875
  23482194.977    -3718245.260 6  -2897328.47021        13.000           0.625
  20567264.414       21958.908 6     20967.43921        17.250           1.469
  23608122.922    -2936049.524 5  -2287829.45621        11.000           0.375
  24285269.148     -802900.587 5   -563333.16821         8.000           0.344
 91  6 17 16 31  0.0000000  0  6G18G 2G11G19G16G 6
  21230271.734     3102910.607 7   2417848.65422        23.750           2.406
  23190471.656    -5342192.057 6  -4088227.58921        14.750           0.844
  23476362.625    -3748919.634 6  -2921230.53521        14.000           0.781
  20567459.648       22959.683 6     21747.25021        17.250           1.406
  23603885.594    -2958337.099 5  -2305196.41121        11.000           0.438
  24277600.117     -843232.083 5   -594760.27521         7.750           0.313
 91  6 17 16 31 15.0000000  0  6G18G 2G11G19G16G 6
  21236209.023     3134111.767 7   2442161.21422        23.000           2.344
  23181328.320    -5390259.522 6  -4125682.75221        14.750           0.813
  23470541.266    -3779511.393 6  -2945068.20921        14.000           0.750
  20567654.023       23987.207 6     22547.91521        18.250           1.375
  23599667.734    -2980525.796 5  -2322486.26121        11.250           0.406
  24269919.414     -883574.491 5   -626195.91221         8.000           0.188
 91  6 17 16 31 30.0000000  0  6G18G 2G11G19G16G 6
  21242155.102     3165359.607 7   2466510.13222        23.250           2.313
  23172182.195    -5438325.996 6  -4163137.13321        15.000           0.750
  23464729.016    -3810039.598 6  -2968856.36121        13.500           0.625
  20567851.063       25021.967 6     23354.22022        17.250           1.531
  23595463.906    -3002635.146 6  -2339714.30321        12.000           0.563
  24262235.727     -923947.132 5   -657655.05821         8.750           0.219
 91  6 17 16 31 45.0000000  0  6G18G 2G11G19G16G 6
  21248112.281     3196662.932 7   2490902.29122        23.250           2.313
  23163039.523    -5486382.261 6  -4200583.54921        15.750           0.875
  23458933.164    -3840494.989 6  -2992587.76421        13.250           0.656
  20568048.742       26073.004 6     24173.20222        17.250           1.625
  23591267.266    -3024655.548 6  -2356873.05521        12.000           0.406
  24254552.008     -964341.198 5   -689130.94721         8.250           0.281
 91  6 17 16 32  0.0000000  0  6G18G 2G11G19G16G 6
  21254076.563     3228031.680 7   2515345.43622        22.750           2.250
  23153895.930    -5534418.144 6  -4238014.08021        14.000           0.813
  23453154.422    -3870867.206 6  -3016254.36621        13.500           0.719
  20568255.539       27150.372 6     25012.69322        19.000           1.656
  23587093.313    -3046577.064 5  -2373954.72621        11.750           0.375
  24246861.414    -1004746.617 5   -720615.66221         8.250           0.250
 91  6 17 16 32 15.0000000  0  6G18G 2G11G19G16G 6
  21260061.367     3259459.960 7   2539834.95822        23.500           2.219
  23144757.625    -5582439.200 6  -4275433.02221        14.500           0.781
  23447389.391    -3901161.583 6  -3039860.32721        13.250           0.688
  20568463.836       28248.475 6     25868.34722        17.750           1.656
  23582941.578    -3068405.410 6  -2390963.80021        12.000           0.313
  24239170.891    -1045168.879 5   -752113.45021         8.750           0.344
 91  6 17 16 32 30.0000000  0  6G18G 2G11G19G16G 6
  21266055.102     3290954.237 7   2564375.92122        23.250           2.250
  23135620.406    -5630438.834 6  -4312835.31421        14.000           0.906
  23441643.555    -3931371.415 6  -3063400.40721        14.500           0.750
  20568678.344       29373.637 6     26745.09122        18.500           1.500
  23578805.734    -3090133.591 5  -2407894.82521        11.750           0.406
  24231480.438    -1085601.670 5   -783619.50721         8.250           0.156
 91  6 17 16 32 45.0000000  0  6G18G 2G11G19G16G 6
  21272059.219     3322510.801 7   2588965.41122        22.750           2.188
  23126489.914    -5678420.381 6  -4350223.48821        14.250           0.781
  23435909.375    -3961499.756 6  -3086876.96521        14.000           0.813
  20568899.469       30522.472 6     27640.28222        18.250           1.719
  23574687.148    -3111765.235 5  -2424750.64121        10.750           0.313
  24223786.227    -1126048.503 5   -815136.48521         8.750           0.156
 91  6 17 16 33  0.0000000  0  6G18G 2G11G19G16G 6
  21278078.367     3354130.337 7   2613603.96922        23.500           2.313
  23117364.859    -5726382.984 6  -4387596.89821        14.500           0.969
  23430189.352    -3991545.411 6  -3110289.11321        14.000           0.875
  20569122.906       31695.663 6     28554.44422        18.000           1.594
  23570589.148    -3133299.354 5  -2441530.44621        10.250           0.438
  24216089.930    -1166508.540 5   -846663.82821         9.000           0.219
 91  6 17 16 33 15.0000000  0  6G18G 2G11G19G16G 6
  21284105.242     3385801.316 7   2638282.61522        23.500           2.406
  23108237.602    -5774337.617 6  -4424964.12121        14.750           0.938
  23424488.156    -4021519.365 6  -3133645.41421        14.500           0.781
  20569345.773       32881.910 6     29478.79122        17.500           1.531
  23566508.805    -3154747.102 5  -2458242.97921        11.000           0.406
  24208376.336    -1206993.111 5   -878210.19721         8.500           0.156
 91  6 17 16 33 30.0000000  0  6G18G 2G11G19G16G 6
  21290140.773     3417526.352 7   2663003.37722        24.250           2.469
  23099112.945    -5822281.458 6  -4462322.90121        13.750           0.844
  23418797.773    -4051418.637 6  -3156943.48921        14.250           0.719
  20569576.070       34084.118 6     30415.57622        16.500           1.594
  23562441.453    -3176105.642 5  -2474885.96821        10.750           0.469
  24200668.883    -1247499.563 5   -909773.65921         7.750           0.219
 91  6 17 16 33 45.0000000  0  6G18G 2G11G19G16G 6
  21296187.953     3449302.669 7   2687764.10523        24.750           2.531
  23089989.953    -5870217.111 6  -4499675.32821        13.000           0.844
  23413121.914    -4081245.554 6  -3180185.18921        13.750           0.844
  20569804.445       35299.513 6     31362.64622        17.250           1.563
  23558397.883    -3197377.470 6  -2491461.42921        12.000           0.500
  24192953.680    -1288030.548 5   -941356.21821         7.750           0.219
 91  6 17 16 34  0.0000000  0  6G18G 2G11G19G16G 6
  21302244.383     3481130.101 7   2712564.66923        24.000           2.500
  23080864.852    -5918144.290 6  -4537021.12521        13.500           0.938
  23407457.195    -4110999.841 6  -3203370.29421        13.250           0.656
  20570039.813       36528.063 6     32319.95822        18.500           1.594
  23554368.523    -3218562.232 5  -2507969.03221        11.750           0.500
  24185244.844    -1328586.058 5   -972957.88121         7.500           0.188
 91  6 17 16 34 15.0000000  0  6G18G 2G11G19G16G 6
  21308308.547     3512992.540 7   2737392.50022        24.250           2.469
  23071751.922    -5966078.777 6  -4574372.63821        13.750           0.875
  23401806.852    -4140697.016 6  -3226510.91721        14.000           0.813
  20570275.742       37753.909 6     33275.15322        17.750           1.500
  23550351.938    -3239675.921 6  -2524421.23121        12.000           0.563
  24177514.586    -1369181.878 4  -1004590.96621         7.000           0.313
 91  6 17 16 34 30.0000000  0  6G18G 2G11G19G16G 6
  21314378.656     3544913.104 7   2762265.63023        22.750           2.500
  23062632.070    -6013996.981 6  -4611711.45021        15.250           0.938
  23396173.766    -4170313.576 6  -3249588.67921        15.000           0.906
  20570509.633       39000.100 6     34246.21322        18.250           1.531
  23546347.250    -3260695.236 5  -2540799.91921        11.750           0.469
  24169778.180    -1409794.992 4  -1036237.47921         6.750           0.313
 91  6 17 16 34 45.0000000  0  6G18G 2G11G19G16G 6
  21320471.156     3576908.267 7   2787196.88622        23.250           2.438
  23053522.820    -6061882.434 6  -4649024.74421        14.750           0.969
  23390556.953    -4199832.595 6  -3272590.45721        15.500           0.719
  20570754.055       40283.054 6     35245.92121        17.500           1.469
  23542370.719    -3281603.526 5  -2557092.07421        11.500           0.500
  24162062.117    -1450408.814 4  -1067884.60021         7.000           0.281
 91  6 17 16 35  0.0000000  0  6G18G 2G11G19G16G 6
  21326572.375     3608978.452 7   2812186.60822        23.000           2.375
  23044417.563    -6109734.346 6  -4686311.88921        15.500           0.969
  23384954.375    -4229253.229 6  -3295515.57921        14.750           0.813
  20571001.992       41603.508 6     36274.85021        17.750           1.406
  23538414.617    -3302399.975 6  -2573297.09321        12.000           0.469
  24154338.469    -1491022.670 5  -1099531.71021         7.750           0.219
 91  6 17 16 35 15.0000000  0  6G18G 2G11G19G16G 6
  21332686.648     3641104.099 7   2837219.53822        23.500           2.469
  23035312.430    -6157571.703 6  -4723587.70021        15.500           0.969
  23379372.617    -4258594.308 6  -3318378.71021        14.000           0.813
  20571260.695       42942.401 6     37318.13721        17.250           1.469
  23534474.508    -3323103.569 6  -2589429.74121        12.000           0.375
  24146593.648    -1531655.904 4  -1131193.94721         7.000           0.219
 91  6 17 16 35 30.0000000  0  6G18G 2G11G19G16G 6
  21338808.945     3673290.274 7   2862299.63722        23.250           2.250
  23026210.523    -6205389.432 6  -4760848.23021        15.250           1.031
  23373804.461    -4287850.503 6  -3341175.70121        14.500           0.844
  20571524.078       44304.769 6     38379.72122        17.500           1.500
  23530553.852    -3343709.396 6  -2605486.23721        12.000           0.375
  24138856.352    -1572303.488 4  -1162867.38321         6.750           0.313
 91  6 17 16 35 45.0000000  0  6G18G 2G11G19G16G 6
  21344946.789     3705520.482 7   2887414.05122        24.000           2.344
  23017110.570    -6253203.687 6  -4798106.02821        15.500           0.875
  23368249.617    -4317037.976 6  -3363919.11521        14.250           0.813
  20571783.703       45674.178 6     39446.80122        18.000           1.531
  23526647.086    -3364233.590 5  -2621479.11121        11.250           0.375
  24131116.773    -1612981.834 4  -1194564.69821         6.500           0.250
 91  6 17 16 36  0.0000000  0  6G18G 2G11G19G16G 6
  21351085.008     3737810.717 7   2912575.22922        23.000           2.250
  23008019.047    -6300998.194 6  -4835348.46221        16.250           0.969
  23362711.008    -4346140.215 6  -3386596.12521        13.750           0.875
  20572046.367       47066.648 6     40531.84322        18.250           1.563
  23522757.852    -3384660.018 5  -2637395.81321        11.000           0.406
  24123378.547    -1653674.734 4  -1226273.43621         6.750           0.250
 91  6 17 16 36 15.0000000  0  6G18G 2G11G19G16G 6
  21357244.555     3770163.794 7   2937785.38222        22.750           2.281
  22998928.078    -6348769.764 6  -4872573.02321        16.000           0.906
  23357191.422    -4375153.822 6  -3409204.07021        15.250           0.813
  20572317.141       48485.263 6     41637.24422        18.000           1.500
  23518893.750    -3404985.420 6  -2653233.79621        12.250           0.563
  24115620.398    -1694379.107 4  -1257991.06521         7.000           0.250
 91  6 17 16 36 30.0000000  0  6G18G 2G11G19G16G 6
  21363413.250     3802562.029 7   2963030.71422        24.250           2.250
  22989843.430    -6396535.434 6  -4909792.96421        16.250           1.063
  23351683.352    -4404095.783 6  -3431756.19221        14.750           0.781
  20572588.445       49912.714 6     42749.54422        17.250           1.594
  23515041.953    -3425226.956 6  -2669006.40421        12.000           0.625
  24107873.844    -1735112.424 5  -1289731.27421         7.500           0.375
 91  6 17 16 36 45.0000000  0  6G18G 2G11G19G16G 6
  21369589.836     3835032.911 7   2988332.65722        24.000           2.156
  22980759.609    -6444267.758 6  -4946986.94321        16.000           0.875
  23346193.469    -4432938.595 6  -3454231.06221        15.000           0.719
  20572865.219       51376.271 6     43889.98522        17.250           1.563
  23511215.109    -3445357.585 6  -2684692.60921        12.500           0.594
  24100127.602    -1775847.235 4  -1321472.65821         7.250           0.313
 91  6 17 16 37  0.0000000  0  6G18G 2G11G19G16G 6
  21375779.852     3867569.641 7   3013685.91722        23.500           2.094
  22971675.922    -6491973.046 6  -4984159.84721        15.250           0.875
  23340721.914    -4461688.454 6  -3476633.51521        14.250           0.750
  20573150.969       52869.428 6     45053.48322        18.000           1.531
  23507405.305    -3465383.308 6  -2700297.06321        12.000           0.531
  24092375.391    -1816590.094 5  -1353220.29121         8.750           0.313
 91  6 17 16 37 15.0000000  0  6G18G 2G11G19G16G 6
  21381983.000     3900161.088 7   3039081.81722        23.500           2.031
  22962601.469    -6539662.004 6  -5021320.03221        16.000           1.000
  23335266.414    -4490355.874 6  -3498971.72121        14.000           0.719
  20573436.609       54381.356 6     46231.60822        17.250           1.594
  23503599.844    -3485314.796 5  -2715828.07821        10.500           0.531
  24084608.773    -1857352.029 5  -1384982.76221         7.750           0.281
 91  6 17 16 37 30.0000000  0  6G18G 2G11G19G16G 6
  21388191.719     3932794.432 7   3064510.36022        23.250           2.000
  22953525.820    -6587347.585 6  -5058477.57421        14.750           1.156
  23329826.500    -4518953.429 6  -3521255.49121        14.750           0.844
  20573726.719       55899.227 6     47414.36122        18.500           1.500
  23499830.297    -3505164.740 5  -2731295.55121        10.750           0.500
  24076856.688    -1898145.746 5  -1416770.04121         8.000           0.281
 91  6 17 16 37 45.0000000  0  6G18G 2G11G19G16G 6
  21394414.102     3965483.957 7   3089982.69022        23.250           2.000
  22944454.586    -6635014.740 6  -5095620.75021        15.000           1.000
  23324399.984    -4547466.112 6  -3543473.11221        15.000           0.750
  20574017.625       57437.680 6     48613.15222        17.750           1.625
  23496071.625    -3524918.374 5  -2746688.00921        11.250           0.469
  24069085.836    -1938956.626 5  -1448570.66821         8.500           0.281
 91  6 17 16 38  0.0000000  0  6G18G 2G11G19G16G 6
  21400646.656     3998229.179 7   3115498.41422        23.750           2.125
  22935386.711    -6682663.710 6  -5132749.78121        14.750           0.969
  23318992.352    -4575894.072 6  -3565624.73221        14.500           0.906
  20574314.023       58996.270 6     49827.63222        18.000           1.500
  23492328.383    -3544576.470 5  -2762006.00821        11.250           0.500
  24061320.578    -1979785.079 5  -1480384.98621         8.750           0.313
 91  6 17 16 38 15.0000000  0  6G18G 2G11G19G16G 6
  21406885.898     4031032.732 7   3141059.59822        22.500           1.938
  22926326.797    -6730291.700 6  -5169862.43721        15.750           1.031
  23313597.867    -4604234.132 6  -3587707.85721        14.250           0.875
  20574617.000       60577.760 6     51059.96122        18.000           1.594
  23488610.727    -3564135.867 5  -2777247.08221        11.750           0.594
  24053546.281    -2020628.379 5  -1512210.87221         9.000           0.281
 91  6 17 16 38 30.0000000  0  6G18G 2G11G19G16G 6
  21413138.102     4063893.129 7   3166665.06622        21.750           1.969
  22917267.039    -6777899.716 6  -5206959.55421        15.250           1.094
  23308224.313    -4632487.281 6  -3609723.23621        15.500           0.875
  20574920.211       62180.711 6     52309.01822        18.250           1.500
  23484902.102    -3583597.588 6  -2792412.04521        12.250           0.531
  24045773.070    -2061487.839 5  -1544049.38721         9.000           0.313
 91  6 17 16 38 45.0000000  0  6G18G 2G11G19G16G 6
  21419404.305     4096813.729 7   3192317.44722        23.000           2.000
  22908211.328    -6825484.272 6  -5244038.35621        16.000           1.031
  23302867.625    -4660649.881 6  -3631668.07221        16.000           0.750
  20575228.594       63808.753 6     53577.61922        17.500           1.531
  23481214.547    -3602958.239 5  -2807498.25621        11.250           0.625
  24037991.930    -2102360.044 5  -1575897.81521         8.000           0.406
 91  6 17 16 39  0.0000000  0  6G18G 2G11G19G16G 6
  21425670.672     4129766.479 7   3217994.87522        22.500           2.000
  22899153.500    -6873073.116 6  -5281120.52221        15.500           1.063
  23297514.328    -4688749.544 6  -3653563.88621        15.250           0.688
  20575539.141       65434.108 6     54844.13222        18.250           1.500
  23477547.508    -3622245.483 5  -2822527.27121        11.000           0.531
  24030208.078    -2143272.935 5  -1607777.90321         8.000           0.375
 91  6 17 16 39 15.0000000  0  6G18G 2G11G19G16G 6
  21431961.469     4162804.054 7   3243738.41322        22.500           2.031
  22890104.109    -6920613.117 6  -5318164.63221        15.500           1.125
  23292190.391    -4716733.013 6  -3675369.12821        15.750           0.719
  20575858.625       67109.583 6     56149.70921        18.000           1.406
  23473897.539    -3641406.480 5  -2837457.90721        10.750           0.594
  24022422.227    -2184173.505 5  -1639648.42521         7.750           0.375
 91  6 17 16 39 30.0000000  0  6G18G 2G11G19G16G 6
  21438257.039     4195883.122 7   3269514.28722        22.750           2.031
  22881064.352    -6968147.317 6  -5355204.19921        16.250           1.094
  23286878.945    -4744643.228 6  -3697117.30721        14.500           0.719
  20576180.016       68791.935 6     57460.63722        18.500           1.563
  23470266.453    -3660484.210 5  -2852323.68921        10.500           0.500
  24014624.352    -2225105.061 4  -1671543.08721         7.250           0.344
 91  6 17 16 39 45.0000000  0  6G18G 2G11G19G16G 6
  21444563.750     4229013.770 7   3295330.34422        23.000           2.156
  22872017.422    -7015665.330 6  -5392231.16121        17.000           1.156
  23281585.539    -4772469.657 6  -3718800.20421        14.250           0.719
  20576503.086       70491.371 6     58784.86921        17.750           1.469
  23466654.141    -3679468.329 5  -2867116.50921        10.500           0.438
  24006842.273    -2266057.316 5  -1703453.86921         8.250           0.406
 91  6 17 16 40  0.0000000  0  6G18G 2G11G19G16G 6
  21450880.742     4262199.776 7   3321189.52622        24.000           2.094
  22862983.023    -7063163.035 6  -5429242.31921        16.750           1.031
  23276303.500    -4800208.036 6  -3740414.48921        14.250           0.750
  20576828.922       72211.844 6     60125.50222        17.750           1.531
  23463064.344    -3698355.152 5  -2881833.50221        10.000           0.469
  23999042.930    -2307026.380 5  -1735377.76921         7.750           0.344
 91  6 17 16 40 15.0000000  0  6G18G 2G11G19G16G 6
  21457206.688     4295458.982 7   3347105.75122        22.500           2.031
  22853946.164    -7110622.166 6  -5466223.40621        15.000           1.125
  23271048.758    -4827839.856 6  -3761945.72221        15.250           0.813
  20577164.906       73971.482 6     61496.64121        17.750           1.406
  23459493.758    -3717126.149 5  -2896460.22621        11.250           0.469
  23991250.461    -2347994.046 5  -1767300.58421         8.750           0.344
 91  6 17 16 40 30.0000000  0  6G18G 2G11G19G16G 6
  21463546.383     4328779.259 7   3373069.56822        22.250           2.063
  22844922.727    -7158054.638 6  -5503183.70521        15.750           1.188
  23265808.500    -4855376.841 6  -3783403.06721        14.750           0.719
  20577503.719       75758.158 6     62888.85722        18.000           1.500
  23455937.469    -3735793.307 5  -2911006.03221        11.000           0.406
  23983452.000    -2388972.437 5  -1799231.73221         9.000           0.250
 91  6 17 16 40 45.0000000  0  6G18G 2G11G19G16G 6
  21469894.805     4362155.148 7   3399076.72522        21.500           2.031
  22835907.586    -7205465.614 6  -5540127.27621        16.000           1.125
  23260587.406    -4882823.952 6  -3804790.38921        15.750           0.750
  20577848.422       77566.611 6     64298.03721        17.750           1.469
  23452403.430    -3754361.740 5  -2925474.92721        11.000           0.469
  23975649.141    -2429966.824 5  -1831175.32121         8.000           0.281
 91  6 17 16 41  0.0000000  0  6G18G 2G11G19G16G 6
  21476255.688     4395568.941 7   3425113.40422        22.000           2.031
  22826883.500    -7252872.441 6  -5577067.60321        16.750           1.000
  23255373.438    -4910198.574 6  -3826121.20721        15.750           0.688
  20578190.766       79379.275 6     65710.52121        17.250           1.438
  23448893.563    -3772849.096 5  -2939880.64021        11.500           0.563
  23967837.703    -2470994.832 5  -1863145.16321         7.750           0.281
 91  6 17 16 41 15.0000000  0  6G18G 2G11G19G16G 6
  21482625.250     4429038.153 7   3451193.27122        22.250           1.969
  22817860.836    -7300257.302 6  -5613990.82521        15.750           1.094
  23250181.914    -4937482.644 6  -3847381.50021        16.750           0.656
  20578544.641       81213.927 6     67140.12222        17.750           1.531
  23445383.813    -3791237.399 5  -2954209.17621        10.500           0.469
  23960030.727    -2512038.646 5  -1895127.30321         7.750           0.406
 91  6 17 16 41 30.0000000  0  6G18G 2G11G19G16G 6
  21489007.242     4462579.141 7   3477329.07822        22.000           1.938
  22808854.734    -7347603.635 6  -5650883.99521        17.000           1.094
  23245012.781    -4964659.512 6  -3868558.26621        16.250           0.563
  20578899.352       83086.960 6     68599.62722        17.750           1.563
  23441919.383    -3809510.136 5  -2968447.67321        10.750           0.500
  23952229.313    -2553081.961 5  -1927109.04421         8.250           0.313
 91  6 17 16 41 45.0000000  0  6G18G 2G11G19G16G 6
  21495402.398     4496174.098 7   3503506.94222        22.000           2.000
  22799847.008    -7394928.791 6  -5687760.69021        16.250           1.094
  23239857.305    -4991746.435 6  -3889664.92521        16.500           0.719
  20579261.422       84980.970 6     70075.48922        18.250           1.500
  23438455.445    -3827684.824 5  -2982609.76021        10.000           0.500
  23944400.477    -2594142.299 5  -1959104.06721         7.500           0.344
 91  6 17 16 42  0.0000000  0  6G18G 2G11G19G16G 6
  21501805.734     4529825.775 7   3529728.97722        22.500           2.063
  22790845.180    -7442229.851 6  -5724618.60421        15.750           1.031
  23234716.828    -5018740.316 6  -3910699.08221        15.250           0.688
  20579622.242       86898.754 6     71569.86521        18.250           1.469
  23435015.438    -3845758.409 5  -2996693.04021        10.500           0.500
  23936591.938    -2635216.745 5  -1991110.05121         8.250           0.219
 91  6 17 16 42 15.0000000  0  6G18G 2G11G19G16G 6
  21508222.406     4563532.153 7   3555993.66022        22.250           2.125
  22781849.711    -7489508.238 6  -5761458.84721        16.250           1.063
  23229602.477    -5045642.700 6  -3931661.95221        16.000           0.688
  20579994.734       88838.337 6     73081.23422        17.750           1.625
  23431588.391    -3863732.761 5  -3010699.02721        10.250           0.563
  23928772.617    -2676307.220 5  -2023128.57121         8.250           0.375
 91  6 17 16 42 30.0000000  0  6G18G 2G11G19G16G 6
  21514642.664     4597289.580 7   3582298.10822        22.500           2.125
  22772861.195    -7536767.402 6  -5798284.09621        16.250           1.188
  23224499.680    -5072456.567 6  -3952555.83621        15.250           0.781
  20580365.375       90796.484 6     74607.06221        17.750           1.469
  23428190.938    -3881610.946 5  -3024630.05921        10.750           0.500
  23920950.461    -2717416.971 5  -2055162.06721         8.500           0.250
 91  6 17 16 42 45.0000000  0  6G18G 2G11G19G16G 6
  21521075.508     4631102.798 7   3608646.03822        22.500           2.094
  22763872.664    -7584002.420 6  -5835090.54421        15.750           1.219
  23219412.125    -5099177.027 6  -3973376.92421        14.500           0.719
  20580747.297       92777.893 6     76151.02121        18.500           1.406
  23424805.438    -3899388.347 5  -3038482.57021        10.750           0.563
  23913120.313    -2758541.486 5  -2087207.12221         8.250           0.281
 91  6 17 16 43  0.0000000  0  6G18G 2G11G19G16G 6
  21527520.547     4664971.279 7   3635037.03522        22.000           2.094
  22754881.453    -7631213.391 6  -5871878.24021        15.750           1.250
  23214348.539    -5125804.040 6  -3994125.19421        15.750           0.844
  20581128.367       94782.199 6     77712.82221        18.500           1.438
  23421442.406    -3917065.048 5  -3052256.61321        10.500           0.594
  23905302.367    -2799680.960 5  -2119263.79821         8.250           0.219
 91  6 17 16 43 15.0000000  0  6G18G 2G11G19G16G 6
  21533979.242     4698892.833 7   3661469.37922        22.000           2.094
  22745908.992    -7678401.946 6  -5908648.48721        16.500           1.219
  23209298.281    -5152339.215 6  -4014801.89521        16.000           0.781
  20581513.148       96807.632 6     79291.08421        18.250           1.375
  23418103.227    -3934642.957 5  -3065953.67621        10.500           0.469
  23897461.977    -2840837.222 5  -2151333.56121         8.000           0.281
 91  6 17 16 43 30.0000000  0  6G18G 2G11G19G16G 6
  21540440.031     4732860.587 7   3687937.72122        21.250           2.031
  22736927.609    -7725574.982 6  -5945406.63221        16.500           1.156
  23204264.391    -5178789.119 6  -4035412.17021        15.250           0.719
  20581902.859       98847.219 6     80880.36321        17.750           1.438
  23414774.891    -3952128.901 5  -3079579.09021        11.000           0.500
  23889635.953    -2882017.177 5  -2183421.81921         9.250           0.313
 91  6 17 16 43 45.0000000  0  6G18G 2G11G19G16G 6
  21546914.578     4766883.075 7   3714448.71522        21.500           2.031
  22727954.703    -7772723.431 6  -5982145.62321        16.500           1.125
  23199248.711    -5205144.488 6  -4055948.77521        15.000           0.719
  20582291.406      100909.993 6     82487.72621        18.250           1.469
  23411464.461    -3969513.901 5  -3093125.85221         9.750           0.531
  23881789.164    -2923212.030 5  -2215521.64221         9.250           0.250
 91  6 17 16 44  0.0000000  0  6G18G 2G11G19G16G 6
  21553399.563     4800962.604 7   3741004.15622        21.750           1.969
  22718988.484    -7819844.824 6  -6018863.53121        16.250           1.188
  23194254.344    -5231402.834 6  -4076409.77521        15.250           0.719
  20582692.266      102998.332 6     84114.99521        18.000           1.375
  23408172.352    -3986795.538 5  -3106592.05321        10.500           0.563
  23873943.859    -2964419.300 5  -2247631.15021         9.000           0.313
 91  6 17 16 44 15.0000000  0  6G18G 2G11G19G16G 6
  21559902.953     4835112.092 7   3767614.11122        23.250           1.969
  22710034.359    -7866925.911 6  -6055550.04021        16.250           0.969
  23189279.258    -5257550.883 6  -4096784.81121        15.500           0.844
  20583092.281      105125.206 6     85772.30622        17.250           1.500
  23404907.242    -4003960.902 5  -3119967.65421        10.750           0.531
  23866106.164    -3005626.049 5  -2279740.27321         9.000           0.313
 91  6 17 16 44 30.0000000  0  6G18G 2G11G19G16G 6
  21566405.547     4869297.530 7   3794252.08122        22.750           2.063
  22701074.766    -7914000.208 6  -6092231.26221        16.750           1.156
  23184318.734    -5283621.840 6  -4117099.79721        15.750           0.906
  20583496.789      107257.204 6     87433.60921        17.750           1.406
  23401662.594    -4021043.316 5  -3133278.61121        11.750           0.625
  23858270.734    -3046865.806 5  -2311875.07421         9.000           0.313
 91  6 17 16 44 45.0000000  0  6G18G 2G11G19G16G 6
  21572923.000     4903546.579 7   3820939.61522        23.750           1.875
  22692121.547    -7961039.715 6  -6128885.35921        16.500           1.031
  23179372.938    -5309587.725 6  -4137332.91821        15.250           0.906
  20583911.414      109421.808 6     89120.31521        17.250           1.469
  23398428.438    -4038014.820 5  -3146503.16021        11.750           0.594
  23850404.438    -3088110.992 5  -2344014.13621         7.500           0.375
 91  6 17 16 45  0.0000000  0  6G18G 2G11G19G16G 6
  21579447.664     4937827.657 7   3847652.11222        24.000           2.000
  22683168.773    -8008075.922 6  -6165536.89321        16.000           1.063
  23174445.008    -5335479.927 6  -4157508.60221        15.500           0.813
  20584319.469      111587.418 6     90807.79121        17.250           1.469
  23395215.500    -4054907.046 5  -3159665.94021        11.500           0.688
  23842553.539    -3129393.151 4  -2376181.99721         7.250           0.313
 91  6 17 16 45 15.0000000  0  6G18G 2G11G19G16G 6
  21585977.359     4972163.331 7   3874407.14822        22.250           2.000
  22674225.695    -8055085.800 6  -6202167.90421        17.000           1.156
  23169537.563    -5361275.320 6  -4177608.85521        16.250           0.781
  20584742.461      113776.933 6     92513.90822        17.750           1.500
  23392022.594    -4071697.150 5  -3172749.15021        10.750           0.594
  23834685.375    -3170689.361 4  -2408360.79421         6.500           0.344
 91  6 17 16 45 30.0000000  0  6G18G 2G11G19G16G 6
  21592527.414     5006554.658 7   3901205.55722        23.500           1.969
  22665282.641    -8102067.998 6  -6238777.34521        16.250           1.250
  23164650.898    -5386972.328 6  -4197632.45121        16.250           0.781
  20585163.445      115991.569 6     94239.60222        17.250           1.500
  23388844.977    -4088383.711 5  -3185751.65921        10.500           0.500
  23826828.773    -3211998.356 5  -2440549.59621         7.500           0.281
 91  6 17 16 45 45.0000000  0  6G18G 2G11G19G16G 6
  21599078.891     5041001.644 7   3928047.32722        22.750           1.938
  22656352.250    -8149022.197 6  -6275364.96221        18.000           1.188
  23159774.969    -5412570.477 6  -4217579.02121        15.500           0.688
  20585589.258      118231.523 6     95985.02022        17.250           1.500
  23385691.977    -4104966.359 5  -3198673.22721        11.250           0.594
  23818966.688    -3253319.928 5  -2472748.19321         8.000           0.344
 91  6 17 16 46  0.0000000  0  6G18G 2G11G19G16G 6
  21605649.609     5075510.181 7   3954937.06722        23.500           1.906
  22647420.016    -8195942.201 6  -6311925.93921        17.500           1.219
  23154924.945    -5438063.522 6  -4237443.68021        14.500           0.906
  20586019.570      120502.876 6     97754.90221        16.000           1.438
  23382555.852    -4121438.960 6  -3211509.01321        12.250           0.594
  23811101.055    -3294648.225 5  -2504951.99821         8.000           0.344
 91  6 17 16 46 15.0000000  0  6G18G 2G11G19G16G 6
  21612221.438     5110067.758 7   3981865.01822        22.750           1.969
  22638498.500    -8242840.030 6  -6348469.63821        17.750           1.031
  23150093.195    -5463463.296 6  -4257235.65421        15.000           0.938
  20586456.344      122793.339 6     99539.68222        17.250           1.531
  23379436.984    -4137813.716 5  -3224268.59921        11.750           0.531
  23803240.844    -3335995.453 5  -2537170.55721         8.500           0.344
 91  6 17 16 46 30.0000000  0  6G18G 2G11G19G16G 6
  21618806.617     5144668.114 7   4008826.30422        22.500           1.969
  22629570.852    -8289721.526 6  -6385000.62221        17.500           0.938
  23145276.023    -5488775.562 6  -4276959.42621        15.250           0.906
  20586890.125      125096.930 6    101334.68622        17.000           1.500
  23376333.703    -4154096.841 5  -3236956.75121        11.250           0.563
  23795362.445    -3377367.468 5  -2569408.43321         8.750           0.344
 91  6 17 16 46 45.0000000  0  6G18G 2G11G19G16G 6
  21625397.203     5179313.193 7   4035822.43522        22.000           1.844
  22620656.203    -8336584.574 6  -6421517.24121        17.500           1.219
  23140476.719    -5513998.151 6  -4296613.34621        15.750           1.031
  20587334.383      127415.836 6    103141.62621        17.250           1.469
  23373255.523    -4170286.054 5  -3249571.72621        11.000           0.656
  23787489.063    -3418762.415 5  -2601664.18021         9.000           0.281
 91  6 17 16 47  0.0000000  0  6G18G 2G11G19G16G 6
  21632006.055     5214023.425 7   4062869.35222        22.000           1.781
  22611746.336    -8383408.632 6  -6458003.46021        18.000           1.188
  23135697.516    -5539110.419 6  -4316181.30921        16.000           0.906
  20587779.258      129770.378 6    104976.32321        17.250           1.406
  23370200.891    -4186361.006 5  -3262097.66321        11.250           0.563
  23779612.492    -3460159.914 5  -2633921.92321         8.750           0.406
 91  6 17 16 47 15.0000000  0  6G18G 2G11G19G16G 6
  21638624.133     5248802.570 7   4089969.94622        22.250           1.688
  22602848.109    -8430189.322 6  -6494455.88721        18.250           1.156
  23130936.688    -5564107.749 6  -4335659.69921        15.000           0.750
  20588238.828      132164.802 6    106842.09721        17.250           1.438
  23367168.477    -4202317.444 5  -3274531.26821        11.250           0.531
  23771736.836    -3501555.515 5  -2666178.18321         8.750           0.313
 91  6 17 16 47 30.0000000  0  6G18G 2G11G19G16G 6
  21645250.266     5283634.107 7   4117111.36022        22.500           1.750
  22593951.672    -8476942.941 6  -6530887.20921        18.750           1.313
  23126199.883    -5589006.271 6  -4355061.12521        15.000           0.906
  20588694.648      134582.798 6    108726.24722        17.250           1.531
  23364146.086    -4218171.657 5  -3286885.21221        11.000           0.469
  23763855.055    -3542965.822 5  -2698445.90321         9.000           0.375
 91  6 17 16 47 45.0000000  0  6G18G 2G11G19G16G 6
  21651887.656     5318515.091 7   4144291.31622        22.750           1.688
  22585054.000    -8523672.052 6  -6567299.42621        17.750           1.313
  23121482.336    -5613808.581 6  -4374387.55821        15.500           0.719
  20589161.711      137021.565 6    110626.56622        16.500           1.531
  23361147.234    -4233926.018 5  -3299161.33921        10.750           0.500
  23755967.094    -3584393.449 5  -2730727.12921         8.500           0.375
 91  6 17 16 48  0.0000000  0  6G18G 2G11G19G16G 6
  21658537.172     5353443.153 7   4171507.94822        23.250           1.688
  22576168.055    -8570378.782 6  -6603694.21221        17.750           1.406
  23116779.273    -5638516.630 6  -4393640.55921        14.750           0.875
  20589633.609      139478.699 6    112541.21122        16.500           1.500
  23358163.609    -4249582.921 5  -3311361.54621        10.750           0.469
  23748082.148    -3625840.905 5  -2763023.78921         8.250           0.469
 91  6 17 16 48 15.0000000  0  6G18G 2G11G19G16G 6
  21665192.828     5388428.721 7   4198769.40822        22.750           1.625
  22567284.133    -8617052.237 6  -6640063.08321        17.750           1.406
  23112100.000    -5663119.481 6  -4412811.57621        14.500           1.000
  20590104.953      141965.022 6    114478.58721        17.000           1.406
  23355208.922    -4265131.774 5  -3323477.55121        11.250           0.438
  23740197.156    -3667297.332 5  -2795327.45221         9.500           0.313
 91  6 17 16 48 30.0000000  0  6G18G 2G11G19G16G 6
  21671858.859     5423459.579 7   4226066.15622        22.000           1.719
  22558406.992    -8663704.370 6  -6676415.32121        18.000           1.344
  23107434.094    -5687628.832 6  -4431909.74021        14.750           1.000
  20590578.477      144468.617 6    116429.43621        17.000           1.469
  23352267.367    -4280584.715 5  -3335518.81921        11.500           0.469
  23732306.922    -3708774.658 5  -2827647.40421        10.000           0.344
 91  6 17 16 48 45.0000000  0  6G18G 2G11G19G16G 6
  21678534.625     5458551.832 7   4253410.72222        22.250           1.750
  22549540.430    -8710318.892 6  -6712738.26621        18.500           1.344
  23102790.836    -5712028.402 6  -4450922.36021        15.250           1.000
  20591062.125      147005.427 6    118406.15322        16.500           1.625
  23349352.992    -4295925.395 5  -3347472.60521        11.250           0.531
  23724401.703    -3750256.874 5  -2859971.14921         9.000           0.375
 91  6 17 16 49  0.0000000  0  6G18G 2G11G19G16G 6
  21685224.336     5493687.457 7   4280789.09722        22.000           1.719
  22540669.563    -8756913.463 6  -6749045.66121        17.250           1.313
  23098165.703    -5736335.705 6  -4469863.08121        15.750           0.906
  20591550.867      149557.649 6    120394.89121        17.000           1.469
  23346447.180    -4311171.698 5  -3359352.86721        11.000           0.469
  23716507.477    -3791761.897 5  -2892312.66821         8.750           0.250
 91  6 17 16 49 15.0000000  0  6G18G 2G11G19G16G 6
  21691914.344     5528858.900 7   4308195.38222        22.000           1.625
  22531806.633    -8803495.087 6  -6785342.96921        17.750           1.313
  23093554.602    -5760557.585 6  -4488737.21621        15.750           0.969
  20592034.234      152118.281 6    122390.19122        16.500           1.531
  23343560.273    -4326330.507 5  -3371164.93621        11.000           0.563
  23708604.039    -3833296.708 5  -2924677.40421         8.500           0.344
 91  6 17 16 49 30.0000000  0  6G18G 2G11G19G16G 6
  21698619.000     5564087.151 7   4335645.93722        21.250           1.656
  22522945.039    -8850042.670 6  -6821613.75221        17.750           1.375
  23088971.164    -5784672.787 6  -4507528.26721        17.500           0.813
  20592528.094      154708.287 6    124408.37722        17.250           1.531
  23340699.266    -4341380.475 5  -3382892.16521        11.000           0.594
  23700699.727    -3874840.339 5  -2957049.02921         8.250           0.344
 91  6 17 16 49 45.0000000  0  6G18G 2G11G19G16G 6
  21705330.164     5599357.149 7   4363129.02122        21.000           1.719
  22514094.273    -8896570.913 6  -6857869.46021        18.000           1.438
  23084397.656    -5808695.983 6  -4526247.59621        18.000           0.813
  20593022.859      157312.733 6    126437.81421        16.250           1.469
  23337846.797    -4356336.641 5  -3394546.34221        10.500           0.563
  23692782.352    -3916407.680 5  -2989439.11121         8.750           0.375
 91  6 17 16 50  0.0000000  0  6G18G 2G11G19G16G 6
  21712052.703     5634690.905 7   4390661.78722        21.500           1.844
  22505252.047    -8943057.624 6  -6894092.81921        18.000           1.281
  23079850.172    -5832604.735 6  -4544877.77121        16.000           0.781
  20593525.922      159953.926 6    128495.87122        17.000           1.625
  23335030.031    -4371177.087 5  -3406110.34021        11.000           0.563
  23684884.555    -3957976.619 5  -3021830.45221         9.750           0.313
 91  6 17 16 50 15.0000000  0  6G18G 2G11G19G16G 6
  21718784.891     5670064.325 7   4418225.46522        21.250           1.688
  22496405.297    -8989526.323 6  -6930302.11421        18.250           1.375
  23075315.391    -5856422.670 6  -4563437.18321        15.500           0.750
  20594034.172      162608.083 6    130564.05022        17.000           1.500
  23332231.531    -4385925.491 5  -3417602.62121        11.750           0.500
  23676970.883    -3999570.889 5  -3054241.52121        10.500           0.500
 91  6 17 16 50 30.0000000  0  6G18G 2G11G19G16G 6
  21725519.289     5705451.432 7   4445799.79722        21.750           1.719
  22487560.453    -9036002.909 6  -6966517.58421        18.000           1.375
  23070792.188    -5880175.349 6  -4581945.72621        14.500           0.938
  20594532.648      165249.286 6    132622.12522        17.250           1.656
  23329430.422    -4400607.646 5  -3429043.26221        11.750           0.531
  23669043.969    -4041216.403 5  -3086692.54021         9.000           0.375
 91  6 17 16 50 45.0000000  0  6G18G 2G11G19G16G 6
  21732259.953     5740877.375 7   4473404.40022        21.250           1.625
  22478717.664    -9082461.459 6  -7002718.99421        17.000           1.375
  23066289.813    -5903836.969 6  -4600383.33221        15.750           0.906
  20595043.242      167903.064 6    134690.00422        17.500           1.531
  23326649.742    -4415197.707 5  -3440412.13321        10.500           0.594
  23661109.570    -4082887.584 5  -3119163.55121         8.500           0.375
 91  6 17 16 51  0.0000000  0  6G18G 2G11G19G16G 6
  21739017.211     5776371.472 7   4501062.08922        22.500           1.688
  22469886.781    -9128872.803 6  -7038883.62321        17.250           1.406
  23061813.391    -5927378.144 6  -4618727.06921        16.000           0.906
  20595555.523      170598.611 6    136790.42422        17.250           1.625
  23323901.367    -4429666.599 5  -3451686.60921        10.500           0.563
  23653177.578    -4124555.318 5  -3151631.87121         8.750           0.375
 91  6 17 16 51 15.0000000  0  6G18G 2G11G19G16G 6
  21745783.297     5811925.011 7   4528766.11422        21.750           1.594
  22461062.195    -9175245.008 6  -7075017.75021        17.250           1.375
  23057349.750    -5950806.944 6  -4636983.25721        15.000           0.781
  20596075.016      173327.744 6    138917.01322        17.250           1.531
  23321171.164    -4444022.678 5  -3462873.16721        11.000           0.625
  23645247.070    -4166227.911 5  -3184103.97021         9.750           0.281
 91  6 17 16 51 30.0000000  0  6G18G 2G11G19G16G 6
  21752556.602     5847532.524 7   4556512.18822        20.750           1.563
  22452244.438    -9221583.405 6  -7111125.52921        17.250           1.375
  23052914.758    -5974128.694 6  -4655156.02321        16.000           0.781
  20596595.203      176084.912 6    141065.45322        17.750           1.531
  23318456.180    -4458271.346 5  -3473976.01621        10.750           0.500
  23637314.039    -4207910.717 5  -3216584.05121         9.750           0.375
 91  6 17 16 51 45.0000000  0  6G18G 2G11G19G16G 6
  21759342.172     5883198.376 7   4584303.74222        20.250           1.625
  22443437.891    -9267883.286 6  -7147203.28721        17.500           1.344
  23048496.898    -5997338.503 6  -4673241.57521        16.000           0.906
  20597128.359      178874.769 6    143239.36322        17.500           1.531
  23315768.203    -4472407.786 5  -3484991.43821        11.750           0.531
  23629389.898    -4249599.223 5  -3249068.56621         9.000           0.375
 91  6 17 16 52  0.0000000  0  6G18G 2G11G19G16G 6
  21766144.570     5918929.043 7   4612145.77722        21.250           1.625
  22434631.703    -9314137.831 6  -7183245.72921        17.000           1.313
  23044103.227    -6020429.375 6  -4691234.41921        16.500           0.969
  20597663.508      181704.081 6    145444.01822        17.250           1.500
  23313095.797    -4486425.364 5  -3495914.22921        11.000           0.500
  23621454.609    -4291286.623 5  -3281552.22321         8.750           0.313
 91  6 17 16 52 15.0000000  0  6G18G 2G11G19G16G 6
  21772952.266     5954704.368 7   4640022.61622        21.750           1.594
  22425835.672    -9360366.596 6  -7219268.08521        16.250           1.438
  23039729.445    -6043420.915 6  -4709149.86721        16.250           0.844
  20598210.383      184552.980 6    147663.94322        17.000           1.563
  23310452.133    -4500344.022 5  -3506759.95221        11.500           0.500
  23613508.453    -4332992.781 5  -3314050.49221         8.500           0.375
 91  6 17 16 52 29.9990000  0  6G18G 2G11G19G16G 6
  21779769.456     5990526.776 7   4667936.14722        21.250           1.781
  22417047.034    -9406561.809 6  -7255264.29621        16.750           1.375
  23035375.808    -6066306.726 6  -4726982.91321        16.250           0.969
  20598753.901      187425.923 6    149902.60322        17.000           1.563
  23307825.886    -4514157.982 5  -3517524.08121        11.750           0.563
  23605582.605    -4374710.290 5  -3346557.60921         9.250           0.469
 91  6 17 16 52 44.9990000  0  6G18G 2G11G19G16G 6
  21786597.034     6026395.893 7   4695886.06322        22.000           1.563
  22408256.683    -9452734.111 6  -7291242.64721        17.000           1.375
  23031033.448    -6089094.281 6  -4744739.41521        15.500           0.875
  20599304.331      190318.687 6    152156.70022        16.750           1.594
  23305209.636    -4527873.869 5  -3528211.79321        11.000           0.531
  23597629.448    -4416449.431 5  -3379081.55421         8.500           0.406
 91  6 17 16 52 59.9990000  0  6G18G 2G11G19G16G 6
  21793428.245     6062316.722 7   4723876.28522        21.250           1.563
  22399482.651    -9498872.951 6  -7327194.92422        18.250           1.500
  23026723.120    -6111774.404 6  -4762412.19321        15.250           0.906
  20599858.901      193238.460 6    154431.85122        18.000           1.531
  23302614.558    -4541482.999 5  -3538816.30621        10.000           0.563
  23589683.565    -4458199.961 5  -3411614.40221         8.500           0.438
 91  6 17 16 53 14.9990000  0  6G18G 2G11G19G16G 6
  21800276.136     6098295.505 7   4751911.65921        21.750           1.469
  22390706.878    -9544971.639 6  -7363115.91721        18.750           1.438
  23022426.605    -6134340.270 6  -4779995.96721        15.250           1.125
  20600422.933      196191.733 6    156733.10222        17.250           1.594
  23300045.980    -4554979.168 5  -3549332.81321        10.000           0.563
  23581747.550    -4499955.192 5  -3444150.91221         8.750           0.469
 91  6 17 16 53 29.9990000  0  6G18G 2G11G19G16G 6
  21807137.394     6134351.133 7   4780006.93121        21.500           1.469
  22381948.112    -9591010.903 6  -7398990.61322        18.500           1.563
  23018159.495    -6156772.611 6  -4797475.67221        16.000           1.094
  20600994.636      199197.794 6    159075.47922        17.500           1.563
  23297515.339    -4568343.026 5  -3559746.21021        11.250           0.563
  23573804.206    -4541696.164 5  -3476676.29821         8.750           0.563
 91  6 17 16 53 44.9990000  0  6G18G 2G11G19G16G 6
  21814015.784     6170485.936 7   4808163.88022        21.250           1.563
  22373197.214    -9636988.016 6  -7434816.86921        19.250           1.438
  23013915.940    -6179068.375 6  -4814848.95021        16.000           1.125
  20601580.987      202259.342 6    161461.09822        17.250           1.500
  23294994.378    -4581571.754 5  -3570054.33021        11.250           0.594
  23565861.097    -4583420.247 5  -3509188.53421         8.250           0.438
 91  6 17 16 53 59.9990000  0  6G18G 2G11G19G16G 6
  21820897.042     6206658.428 7   4836350.20322        20.750           1.563
  22364453.355    -9682944.091 6  -7470626.75621        19.500           1.438
  23009692.222    -6201268.886 6  -4832147.99921        14.750           0.969
  20602163.565      205334.814 6    163857.57621        18.000           1.438
  23292488.565    -4594707.110 5  -3580289.66621        10.500           0.594
  23557909.167    -4625168.773 5  -3541719.81021         8.250           0.406
 91  6 17 16 54 14.9990000  0  6G18G 2G11G19G16G 6
  21827786.417     6242852.299 7   4864553.17922        21.000           1.656
  22355709.745    -9728895.306 7  -7506432.82921        20.000           1.406
  23005482.628    -6223390.263 6  -4849385.39821        15.000           0.875
  20602749.542      208407.948 6    166252.21822        17.500           1.594
  23290009.448    -4607765.209 5  -3590464.82921        11.000           0.469
  23549969.261    -4666958.166 5  -3574282.95021         8.500           0.344
 91  6 17 16 54 29.9990000  0  6G18G 2G11G19G16G 6
  21834679.769     6279082.338 7   4892784.33322        20.750           1.563
  22346970.847    -9774826.397 6  -7542223.24821        19.750           1.438
  23001292.370    -6245417.019 6  -4866549.09221        16.750           0.938
  20603333.581      211494.018 6    168656.94922        17.750           1.563
  23287537.964    -4620730.909 5  -3600567.99521        10.500           0.500
  23542008.620    -4708773.108 5  -3606865.99521         8.250           0.469
 91  6 17 16 54 44.9990000  0  6G18G 2G11G19G16G 6
  21841581.589     6315354.452 7   4921048.28322        21.250           1.500
  22338231.433    -9820731.016 6  -7577993.02321        19.250           1.406
  22997118.448    -6267342.667 6  -4883633.97721        15.750           0.906
  20603926.612      214599.194 6    171076.56522        17.250           1.531
  23285093.769    -4633597.817 5  -3610594.15821        11.000           0.563
  23534047.230    -4750607.366 5  -3639464.06721         8.500           0.344
 91  6 17 16 54 59.9990000  0  6G18G 2G11G19G16G 6
  21848494.464     6351686.413 7   4949358.85022        21.500           1.625
  22329508.831    -9866591.471 7  -7613728.38222        20.250           1.531
  22992971.339    -6289149.468 6  -4900626.25821        15.500           1.031
  20604520.386      217741.060 6    173524.77022        16.750           1.688
  23282665.722    -4646348.411 5  -3620529.71221        11.000           0.563
  23526088.339    -4792443.228 5  -3672063.41521         8.500           0.313
 91  6 17 16 55 14.9990000  0  6G18G 2G11G19G16G 6
  21855422.394     6388069.022 7   4977708.89121        22.500           1.469
  22320781.409    -9912416.579 6  -7649436.20822        19.000           1.500
  22988839.980    -6310846.075 6  -4917532.67421        14.750           1.031
  20605126.628      220910.890 6    175994.77222        16.750           1.563
  23280260.894    -4658991.548 5  -3630381.53521        10.750           0.469
  23518113.409    -4834289.855 5  -3704671.11821         7.750           0.344
 91  6 17 16 55 29.9990000  0  6G18G 2G11G19G16G 6
  21862351.722     6424502.822 7   5006098.83822        21.750           1.531
  22312070.644    -9958205.181 6  -7685115.58822        19.000           1.594
  22984728.839    -6332431.364 6  -4934352.36321        15.000           1.031
  20605735.690      224109.564 6    178487.23722        17.000           1.500
  23277877.995    -4671526.368 5  -3640148.95621        11.000           0.531
  23510162.558    -4876146.229 5  -3737286.46721         9.000           0.469
 91  6 17 16 55 44.9990000  0  6G18G 2G11G19G16G 6
  21869290.401     6460969.866 7   5034514.68322        21.500           1.563
  22303365.073   -10003974.833 6  -7720780.20721        19.250           1.438
  22980643.331    -6353922.890 6  -4951098.97321        15.750           1.094
  20606346.651      227319.235 6    180988.28722        16.750           1.500
  23275503.886    -4683970.628 5  -3649845.77021         9.750           0.563
  23502187.128    -4918030.035 5  -3769923.16921         9.000           0.344
 91  6 17 16 55 59.9990000  0  6G18G 2G11G19G16G 6
  21876246.011     6497506.939 7   5062985.09322        22.000           1.500
  22294669.605   -10049688.485 6  -7756401.17122        19.000           1.500
  22976579.198    -6375283.518 6  -4967743.59421        15.500           1.125
  20606966.972      230576.940 6    183526.75922        16.000           1.594
  23273163.433    -4696287.411 5  -3659443.28521        10.750           0.594
  23494222.886    -4959904.410 5  -3802552.51821         8.750           0.531
 91  6 17 16 56 14.9990000  0  6G18G 2G11G19G16G 6
  21883202.253     6534085.163 7   5091487.56622        21.250           1.563
  22285965.190   -10095374.681 6  -7792000.74321        18.000           1.469
  22972528.542    -6396541.716 6  -4984308.41021        15.000           1.125
  20607592.034      233854.016 6    186080.31422        17.250           1.594
  23270837.870    -4708505.351 5  -3668963.75121        11.250           0.531
  23486238.081    -5001798.074 5  -3835196.90721         8.250           0.500
 91  6 17 16 56 29.9990000  0  6G18G 2G11G19G16G 6
  21890176.362     6570713.950 7   5120029.44122        21.500           1.531
  22277283.190   -10141023.710 6  -7827571.36621        19.500           1.344
  22968508.284    -6417687.555 6  -5000785.67321        15.000           1.125
  20608220.284      237160.260 6    188656.60421        16.750           1.469
  23268538.714    -4720614.638 6  -3678399.57221        12.250           0.531
  23478274.011    -5043701.151 5  -3867848.64321         8.500           0.406
 91  6 17 16 56 44.9990000  0  6G18G 2G11G19G16G 6
  21897154.995     6607398.713 7   5148614.92622        21.250           1.500
  22268607.089   -10186630.024 7  -7863108.70621        20.000           1.438
  22964508.925    -6438715.376 6  -5017170.96521        16.000           1.000
  20608856.315      240501.026 6    191259.79322        17.500           1.594
  23266252.511    -4732609.735 5  -3687746.42721        11.250           0.563
  23470294.073    -5085608.367 5  -3900503.58421         8.250           0.406
 91  6 17 16 56 59.9990000  0  6G18G 2G11G19G16G 6
  21904145.058     6644135.032 7   5177240.59921        20.000           1.438
  22259935.050   -10232197.636 7  -7898615.88821        20.000           1.406
  22960526.058    -6459629.086 6  -5033467.35421        16.000           0.906
  20609494.440      243872.184 6    193886.67222        18.250           1.563
  23263984.823    -4744494.768 5  -3697007.50421        10.250           0.500
  23462327.526    -5127523.853 5  -3933164.98221         9.250           0.344
 91  6 17 16 57 14.9990000  0  6G18G 2G11G19G16G 6
  21911146.925     6680926.112 7   5205908.92822        20.000           1.656
  22251268.065   -10277723.070 6  -7934090.20422        19.250           1.531
  22956571.331    -6480425.181 6  -5049672.09421        16.250           0.969
  20610146.651      247277.206 6    196539.93522        17.500           1.531
  23261748.417    -4756266.556 5  -3706180.35521        10.750           0.594
  23454349.761    -5169444.210 5  -3965830.18521         9.500           0.438
 91  6 17 16 57 29.9990000  0  6G18G 2G11G19G16G 6
  21918158.112     6717783.890 6   5234629.24721        19.250           1.406
  22242618.151   -10323194.078 6  -7969522.10621        19.000           1.469
  22952638.151    -6501091.385 6  -5065775.61521        16.750           0.906
  20610800.581      250727.939 6    199228.82422        17.500           1.563
  23259532.730    -4767913.251 5  -3715255.72821        11.500           0.656
  23446366.433    -5211357.323 5  -3998489.72121         8.750           0.438
 91  6 17 16 57 44.9990000  0  6G18G 2G11G19G16G 6
  21925191.112     6754707.435 7   5263400.78921        21.250           1.438
  22233970.386   -10368611.193 6  -8004912.01221        18.750           1.438
  22948727.995    -6521628.298 6  -5081778.38221        15.250           0.938
  20611467.011      254223.827 6    201952.88722        17.250           1.563
  23257344.800    -4779435.513 6  -3724234.13621        12.000           0.563
  23438390.073    -5253263.957 5  -4031144.24521         9.250           0.406
 91  6 17 16 57 59.9990000  0  6G18G 2G11G19G16G 6
  21932223.440     6791677.550 7   5292208.62221        20.750           1.375
  22225335.269   -10413992.894 6  -8040274.33521        19.000           1.469
  22944840.558    -6542054.310 6  -5097694.73521        15.500           0.938
  20612138.214      257746.080 6    204697.50222        16.750           1.563
  23255165.933    -4790851.841 5  -3733129.99321        11.750           0.563
  23430414.480    -5295182.853 5  -4063808.31221         9.250           0.531
 91  6 17 16 58 14.9990000  0  6G18G 2G11G19G16G 6
  21939272.292     6828708.288 7   5321063.69821        20.500           1.469
  22216712.987   -10459325.081 6  -8075598.07321        19.250           1.438
  22940981.706    -6562355.130 6  -5113513.55721        16.750           0.969
  20612812.050      261309.101 6    207473.89122        16.750           1.625
  23253019.683    -4802148.168 5  -3741932.34121        11.750           0.469
  23422449.745    -5337099.747 5  -4096470.80021         9.750           0.438
 91  6 17 16 58 29.9990000  0  6G18G 2G11G19G16G 6
  21946363.964     6865981.235 7   5350107.50021        20.750           1.406
  22208129.706   -10504425.972 7  -8110741.57621        20.500           1.469
  22937175.925    -6582348.913 6  -5129093.09821        16.000           1.031
  20613538.690      265094.464 6    210423.51322        16.000           1.625
  23250927.487    -4813142.678 5  -3750499.52821        11.250           0.563
  23414497.550    -5378833.042 5  -4128990.25521         9.750           0.375
 91  6 17 16 58 44.9990000  0  6G18G 2G11G19G16G 6
  21953509.323     6903518.585 7   5379357.34121        21.250           1.469
  22199593.730   -10549272.898 7  -8145687.18821        20.000           1.438
  22933433.776    -6602012.910 6  -5144415.65621        15.250           1.031
  20614302.651      269124.587 6    213563.86621        17.250           1.406
  23248899.980    -4823813.059 5  -3758814.12921        11.250           0.563
  23406593.815    -5420360.249 5  -4161349.09321         9.250           0.438
 91  6 17 16 58 59.9990000  0  6G18G 2G11G19G16G 6
  21960664.065     6941127.781 7   5408663.14721        20.500           1.406
  22191070.808   -10594058.071 6  -8180584.68021        19.250           1.438
  22929714.534    -6621539.174 6  -5159630.90221        15.750           0.969
  20615077.870      273207.181 6    216745.11222        17.250           1.594
  23246890.917    -4834351.504 5  -3767025.93421        11.500           0.625
  23398691.347    -5461873.539 5  -4193697.08521         9.250           0.375
 91  6 17 16 59 14.9990000  0  6G18G 2G11G19G16G 6
  21967829.058     6978783.858 6   5438005.50421        19.500           1.406
  22182555.323   -10638806.012 7  -8215453.16022        20.000           1.656
  22926023.355    -6640952.439 6  -5174758.12621        16.750           0.969
  20615860.894      277317.485 6    219947.93822        17.000           1.594
  23244903.550    -4844782.711 5  -3775154.16021        11.500           0.531
  23390787.464    -5503397.853 5  -4226053.70021         9.500           0.344
 91  6 17 16 59 29.9990000  0  6G18G 2G11G19G16G 6
  21975003.972     7016486.995 6   5467384.52021        19.500           1.313
  22174052.370   -10683516.646 7  -8250292.56322        20.750           1.563
  22922349.839    -6660252.340 6  -5189796.99721        15.000           0.938
  20616648.628      281455.863 6    223172.64422        17.250           1.625
  23242934.698    -4855106.746 5  -3783198.90121        10.250           0.625
  23382891.792    -5544933.044 5  -4258418.75321         9.750           0.344
 91  6 17 16 59 44.9990000  0  6G18G 2G11G19G16G 6
  21982184.667     7054242.827 6   5496804.60721        18.750           1.250
  22165548.487   -10728183.888 7  -8285098.17222        20.500           1.719
  22918699.870    -6679432.760 6  -5204742.75321        14.750           1.031
  20617442.222      285628.161 6    226423.78822        17.000           1.719
  23240997.003    -4865317.618 5  -3791155.46321        11.000           0.594
  23374980.706    -5586473.021 5  -4290787.55221         9.250           0.406
 91  6 17 16 59 59.9990000  0  6G18G 2G11G19G16G 6
  21989381.292     7092045.133 6   5526260.90521        19.500           1.344
  22157060.362   -10772813.158 6  -8319874.18122        19.750           1.656
  22915070.308    -6698499.116 6  -5219599.63421        15.750           0.938
  20618245.034      289828.597 6    229696.84022        17.750           1.688
  23239078.503    -4875420.977 6  -3799028.22621        12.250           0.594
  23367074.808    -5628023.606 5  -4323164.64021         9.500           0.438
 91  6 17 17  0 14.9990000  0  6G18G 2G11G19G16G 6
  21996581.386     7129893.558 6   5555753.13921        19.250           1.219
  22148571.519   -10817404.669 6  -8354620.77722        18.750           1.625
  22911464.823    -6717451.538 6  -5234367.73121        16.750           1.063
  20619046.065      294056.834 6    232991.57622        17.500           1.688
  23237174.503    -4885417.232 6  -3806817.54021        12.000           0.500
  23359169.214    -5669585.109 5  -4355550.21421         9.750           0.438
 91  6 17 17  0 29.9990000  0  6G18G 2G11G19G16G 6
  22003802.315     7167817.883 6   5585304.51721        19.500           1.188
  22140097.800   -10861928.456 6  -8389314.58422        18.750           1.719
  22907885.964    -6736259.927 6  -5249023.60721        17.250           0.969
  20619863.737      298342.800 6    236331.29322        16.750           1.688
  23235297.089    -4895276.328 5  -3814499.99321        11.250           0.563
  23351265.519    -5711127.518 5  -4387920.91221        10.000           0.313
 91  6 17 17  0 44.9990000  0  6G18G 2G11G19G16G 6
  22011037.995     7205840.634 6   5614932.58721        19.250           1.313
  22131640.964   -10906361.762 6  -8423937.89122        19.250           1.750
  22904339.675    -6754901.450 6  -5263549.45721        16.750           1.000
  20620695.815      302709.336 6    239733.78722        17.500           1.719
  23233442.151    -4904975.890 5  -3822058.14621        10.500           0.625
  23343368.183    -5752628.145 5  -4420259.06821        10.000           0.563
 91  6 17 17  0 59.9990000  0  6G18G 2G11G19G16G 6
  22018285.261     7243934.388 6   5644615.98821        19.250           1.219
  22123200.581   -10950731.517 7  -8458511.67322        20.000           1.688
  22900818.581    -6773403.047 6  -5277966.27221        16.500           1.156
  20621534.198      307129.379 6    243177.97022        17.500           1.781
  23231630.792    -4914542.973 5  -3829513.02621        10.750           0.688
  23335459.886    -5794114.204 5  -4452585.84521         9.000           0.344
 91  6 17 17  1 14.9990000  0  6G18G 2G11G19G16G 6
  22025539.026     7282052.254 6   5674318.17021        19.750           1.219
  22114754.651   -10995084.323 6  -8493072.25922        19.000           1.625
  22897316.612    -6791811.310 6  -5292310.32521        16.250           1.000
  20622375.050      311556.183 6    246627.42422        17.250           1.688
  23229820.370    -4924024.386 5  -3836901.17821        10.500           0.563
  23327576.511    -5835632.427 5  -4484937.71921         9.750           0.438
 91  6 17 17  1 29.9990000  0  6G18G 2G11G19G16G 6
  22032797.706     7320197.878 7   5704041.97921        20.250           1.219
  22106321.667   -11039416.162 7  -8527616.51622        20.250           1.594
  22893831.065    -6810122.123 6  -5306578.47121        15.500           1.094
  20623220.089      315993.655 6    250085.18722        16.250           1.688
  23228042.026    -4933416.152 6  -3844219.47321        12.000           0.625
  23319664.105    -5877178.737 5  -4517311.45721         9.750           0.469
 91  6 17 17  1 44.9990000  0  6G18G 2G11G19G16G 6
  22040061.956     7358377.152 6   5733792.00821        19.750           1.313
  22097893.448   -11083720.640 7  -8562139.44021        20.500           1.438
  22890366.815    -6828328.922 6  -5320765.55821        16.000           1.094
  20624067.245      320448.076 6    253556.16622        16.250           1.625
  23226272.315    -4942712.010 6  -3851463.02921        12.500           0.531
  23311762.331    -5918747.099 5  -4549702.37921        11.250           0.500
 91  6 17 17  1 59.9990000  0  6G18G 2G11G19G16G 6
  22047334.862     7396591.548 6   5763569.41421        19.500           1.250
  22089470.823   -11127996.294 7  -8596639.90522        21.000           1.594
  22886921.823    -6846430.162 6  -5334870.38321        16.250           1.094
  20624918.925      324920.897 6    257041.46922        16.500           1.656
  23224522.136    -4951910.595 6  -3858630.78821        12.000           0.625
  23303841.003    -5960335.855 5  -4582109.22721        10.250           0.563
 91  6 17 17  2 14.9990000  0  6G18G 2G11G19G16G 6
  22054612.292     7434846.891 6   5793378.71921        18.500           1.344
  22081047.433   -11172236.877 6  -8631113.05222        19.500           1.656
  22883498.753    -6864419.719 6  -5348888.19621        16.000           1.063
  20625777.956      329418.116 6    260545.79222        17.250           1.656
  23222786.526    -4961005.727 5  -3865717.95521        11.750           0.563
  23295930.042    -6001938.981 5  -4614527.23821        10.750           0.406
 91  6 17 17  2 29.9990000  0  6G18G 2G11G19G16G 6
  22061902.956     7473131.702 6   5823210.98121        19.250           1.281
  22072633.386   -11216453.259 6  -8665567.34922        19.750           1.625
  22880092.815    -6882308.462 6  -5362827.46621        16.000           0.906
  20626636.081      333928.887 6    264060.66822        18.000           1.656
  23221083.190    -4970008.615 6  -3872733.22121        12.000           0.438
  23287998.940    -6043567.695 5  -4646965.18721         9.750           0.438
 91  6 17 17  2 44.9990000  0  6G18G 2G11G19G16G 6
  22069196.120     7511473.484 6   5853087.64121        18.500           1.281
  22064229.097   -11260617.731 7  -8699981.17922        20.500           1.688
  22876716.198    -6900068.502 6  -5376666.44321        17.250           0.969
  20627501.003      338480.816 6    267607.61722        17.500           1.594
  23219386.159    -4978891.703 5  -3879655.14421        11.750           0.469
  23280079.565    -6085194.192 5  -4679401.40321         9.750           0.438
 91  6 17 17  2 59.9990000  0  6G18G 2G11G19G16G 6
  22076500.526     7549864.083 6   5883002.35221        18.500           1.156
  22055837.644   -11304738.376 7  -8734360.85922        21.500           1.719
  22873358.065    -6917707.756 6  -5390411.28321        15.500           0.938
  20628374.237      343065.755 6    271180.28022        17.500           1.750
  23217714.550    -4987663.018 6  -3886489.97621        12.500           0.469
  23272164.261    -6126826.546 5  -4711842.18921        10.500           0.375
 91  6 17 17  3 14.9990000  0  6G18G 2G11G19G16G 6
  22083820.987     7588314.259 6   5912963.47821        19.250           1.313
  22047448.081   -11348803.897 7  -8768697.59222        21.000           1.688
  22870024.784    -6935215.074 6  -5404053.32821        15.250           1.000
  20629252.659      347694.736 6    274787.27922        17.250           1.750
  23216071.636    -4996311.573 6  -3893229.12321        12.750           0.563
  23264237.792    -6168453.769 5  -4744278.99621        10.000           0.438
 91  6 17 17  3 29.9990000  0  6G18G 2G11G19G16G 6
  22091157.409     7626880.511 6   5943015.04421        18.250           1.344
  22039083.948   -11392757.717 7  -8802947.29222        20.250           1.719
  22866732.073    -6952533.591 6  -5417548.25421        16.750           1.031
  20630155.128      352424.378 6    278472.71022        17.250           1.875
  23214461.269    -5004780.763 6  -3899828.51821        12.000           0.531
  23256329.480    -6210019.167 5  -4776667.61321        11.000           0.375
 91  6 17 17  3 44.9990000  0  6G18G 2G11G19G16G 6
  22098508.589     7665502.861 6   5973110.32221        18.750           1.313
  22030731.440   -11436659.235 7  -8837156.22622        21.750           1.719
  22863457.144    -6969722.915 6  -5430942.50921        15.750           0.906
  20631063.417      357195.074 6    282190.11722        17.500           1.781
  23212871.644    -5013130.151 6  -3906334.57221        12.250           0.625
  23248421.995    -6251582.534 5  -4809054.64521        11.000           0.469
 91  6 17 17  3 59.9990000  0  6G18G 2G11G19G16G 6
  22105863.558     7704167.531 6   6003238.57921        18.000           1.375
  22022384.550   -11480522.008 7  -8871334.96722        21.000           1.594
  22860211.167    -6986796.338 6  -5444246.47121        16.500           0.906
  20631975.698      361993.412 6    285929.07722        17.500           1.750
  23211300.480    -5021373.566 6  -3912758.04821        12.000           0.594
  23240504.058    -6293157.229 5  -4841450.49721        11.250           0.438
 91  6 17 17  4 14.9990000  0  6G18G 2G11G19G16G 6
  22113236.480     7742892.679 6   6033413.95521        19.250           1.281
  22014050.214   -11524327.182 7  -8905468.84722        20.750           1.719
  22856985.245    -7003735.374 6  -5457445.70621        15.750           1.031
  20632895.675      366837.667 6    289703.80622        16.750           1.781
  23209760.487    -5029492.577 6  -3919084.57921        12.000           0.625
  23232606.581    -6334724.846 5  -4873840.83721        11.500           0.406
 91  6 17 17  4 29.9990000  0  6G18G 2G11G19G16G 6
  22120618.128     7781685.280 6   6063641.90521        19.000           1.156
  22005719.886   -11568067.894 6  -8939552.48022        19.500           1.781
  22853794.565    -7020532.821 6  -5470534.59821        17.000           0.938
  20633827.644      371734.972 6    293519.87422        17.250           1.719
  23208238.972    -5037480.148 5  -3925308.69321        11.750           0.656
  23224688.401    -6376278.503 5  -4906220.30121        10.250           0.438
 91  6 17 17  4 44.9990000  0  6G18G 2G11G19G16G 6
  22128002.323     7820506.453 6   6093892.11221        18.500           1.125
  21997403.847   -11611782.413 6  -8973615.70222        19.500           1.688
  22850611.464    -7037226.866 6  -5483542.92321        17.000           1.063
  20634763.823      376646.902 6    297347.33422        17.750           1.781
  23206738.058    -5045374.779 5  -3931460.38221        11.500           0.594
  23216779.503    -6417856.567 5  -4938618.75921        11.000           0.406
 91  6 17 17  4 59.9990000  0  6G18G 2G11G19G16G 6
  22135401.659     7859386.935 6   6124188.53621        18.250           1.063
  21989096.026   -11655439.742 7  -9007634.36122        20.500           1.844
  22847460.987    -7053786.572 6  -5496446.55321        16.750           1.063
  20635707.214      381604.450 6    301210.34522        18.000           1.844
  23205258.573    -5053145.692 5  -3937515.65321        11.250           0.438
  23208870.417    -6459428.091 5  -4971012.15721        11.250           0.469
 91  6 17 17  5 14.9990000  0  6G18G 2G11G19G16G 6
  22142805.815     7898305.209 6   6154514.41221        18.000           1.000
  21980799.628   -11699061.129 7  -9041625.01022        21.500           1.719
  22844333.300    -7070233.139 6  -5509262.04721        16.250           0.969
  20636655.097      386586.346 6    305092.33222        17.500           1.813
  23203800.409    -5060814.344 5  -3943491.26621        11.750           0.531
  23200960.526    -6501014.468 5  -5003417.11721        11.250           0.469
 91  6 17 17  5 29.9990000  0  6G18G 2G11G19G16G 6
  22150221.480     7937246.007 6   6184857.84321        18.750           1.125
  21972502.019   -11742661.555 7  -9075599.33522        21.250           1.813
  22841221.151    -7086581.524 6  -5522001.03621        16.500           1.031
  20637605.745      391577.331 6    308981.40422        17.750           1.844
  23202351.964    -5068395.842 5  -3949398.95921        11.750           0.500
  23193031.167    -6542630.834 5  -5035845.44021        10.500           0.469
 91  6 17 17  5 44.9990000  0  6G18G 2G11G19G16G 6
  22157638.433     7976227.557 6   6215233.00921        18.500           1.063
  21964210.495   -11786222.398 7  -9109542.81822        21.750           1.750
  22838132.698    -7102813.079 6  -5534648.97821        15.750           1.125
  20638556.925      396595.919 6    312891.98522        17.250           1.781
  23200929.323    -5075871.602 5  -3955224.25921        11.250           0.531
  23185109.190    -6584258.608 5  -5068282.66221        10.000           0.375
 91  6 17 17  5 59.9990000  0  6G18G 2G11G19G16G 6
  22165069.034     8015279.471 6   6245663.00121        18.500           1.125
  21955935.167   -11829713.624 7  -9143432.04522        20.750           1.781
  22835075.042    -7118897.625 6  -5547182.36721        17.250           1.156
  20639525.808      401672.170 6    316847.50522        17.000           1.750
  23199533.276    -5083211.929 5  -3960944.01121        11.750           0.438
  23177193.401    -6625867.725 5  -5100705.34021        10.250           0.438
 91  6 17 17  6 14.9990000  0  6G18G 2G11G19G16G 6
  22172514.097     8054398.969 6   6276145.66721        18.000           1.156
  21947673.276   -11873137.549 7  -9177268.83522        21.250           1.688
  22832036.730    -7134837.595 6  -5559603.11021        16.000           1.125
  20640500.730      406803.403 6    320845.86322        17.250           1.781
  23198167.011    -5090419.132 5  -3966560.03421        11.500           0.438
  23169277.730    -6667460.892 5  -5133115.58721        10.250           0.531
 91  6 17 17  6 29.9990000  0  6G18G 2G11G19G16G 6
  22179969.706     8093566.466 6   6306665.73321        18.500           1.063
  21939417.909   -11916513.596 7  -9211068.30422        21.000           1.781
  22829029.472    -7150652.329 6  -5571926.28621        15.750           0.813
  20641486.026      411970.260 6    324871.97022        18.000           1.719
  23196816.394    -5097512.766 5  -3972087.55921        11.000           0.469
  23161359.073    -6709057.476 5  -5165528.49121        10.250           0.469
 91  6 17 17  6 44.9990000  0  6G18G 2G11G19G16G 6
  22187430.409     8132776.662 6   6337219.06421        17.250           1.000
  21931171.355   -11959846.785 7  -9244834.39422        21.250           1.719
  22826043.526    -7166346.656 6  -5584155.61321        17.250           0.938
  20642476.222      417167.736 6    328921.95622        17.750           1.781
  23195485.980    -5104498.060 5  -3977530.68721        11.250           0.531
  23153443.487    -6750662.520 5  -5197947.98921        10.000           0.563
 91  6 17 17  6 59.9990000  0  6G18G 2G11G19G16G 6
  22194898.378     8172025.197 6   6367802.27821        17.250           1.156
  21922935.011   -12003141.340 7  -9278570.37322        21.250           1.719
  22823079.980    -7181924.811 6  -5596294.40721        18.000           1.031
  20643469.097      422391.484 6    332992.38122        17.000           1.750
  23194180.690    -5111379.451 5  -3982892.82921        11.250           0.563
  23145523.706    -6792280.378 5  -5230377.46121        10.250           0.563
 91  6 17 17  7 14.9990000  0  6G18G 2G11G19G16G 6
  22202374.136     8211318.190 6   6398420.15021        16.750           1.125
  21914704.706   -12046390.646 7  -9312271.10222        21.250           1.750
  22820137.511    -7197380.212 6  -5608337.55321        17.250           1.094
  20644469.300      427647.955 6    337088.32022        17.250           1.750
  23192889.112    -5118150.404 5  -3988168.91921        11.750           0.531
  23137600.308    -6833904.535 5  -5262811.84421         9.250           0.438
 91  6 17 17  7 29.9990000  0  6G18G 2G11G19G16G 6
  22209857.401     8250640.711 6   6429060.99321        17.250           1.188
  21906476.980   -12089609.353 7  -9345947.98522        21.500           1.750
  22817214.370    -7212727.509 6  -5620296.47021        15.750           1.063
  20645469.378      432922.546 6    341198.36822        17.250           1.750
  23191614.862    -5124825.781 5  -3993370.52721        11.500           0.500
  23129676.589    -6875549.786 5  -5295262.66521         9.250           0.531
 91  6 17 17  7 44.9990000  0  6G18G 2G11G19G16G 6
  22217350.050     8290010.133 6   6459738.40521        17.250           1.250
  21898265.417   -12132779.530 7  -9379587.04222        21.500           1.875
  22814319.144    -7227948.789 6  -5632157.19321        16.250           1.031
  20646484.409      438232.941 6    345336.34222        17.250           1.844
  23190373.722    -5131387.951 6  -3998483.94121        12.250           0.438
  23121756.269    -6917198.243 5  -5327715.99221        10.250           0.531
 91  6 17 17  7 59.9990000  0  6G18G 2G11G19G16G 6
  22224853.667     8329435.138 6   6490459.12421        17.500           1.344
  21890057.386   -12175892.022 7  -9413181.16122        20.750           1.875
  22811448.573    -7243034.878 6  -5643912.57421        17.000           1.094
  20647505.159      443588.300 6    349509.34722        16.500           1.781
  23189142.245    -5137827.880 5  -4003502.08121        11.500           0.531
  23113832.987    -6958840.992 5  -5360164.84421        11.500           0.500
 91  6 17 17  8 14.9990000  0  6G18G 2G11G19G16G 6
  22232364.448     8368915.040 6   6521222.61121        17.250           1.281
  21881865.792   -12218947.434 7  -9446730.79822        20.500           1.844
  22808608.276    -7257986.451 6  -5655563.13721        19.250           0.969
  20648530.050      448987.954 6    353716.85322        17.250           1.906
  23187939.370    -5144146.309 5  -4008425.56821        10.750           0.344
  23105902.995    -7000478.667 5  -5392609.75721        10.250           0.500
 91  6 17 17  8 29.9990000  0  6G18G 2G11G19G16G 6
  22239888.386     8408443.188 6   6552023.68921        17.250           1.219
  21873683.636   -12261952.086 7  -9480240.87422        21.500           1.813
  22805784.901    -7272809.689 6  -5667113.69021        17.250           1.063
  20649565.745      454425.411 6    357953.82922        16.250           1.906
  23186761.167    -5150349.732 5  -4013259.44021        11.750           0.531
  23097976.933    -7042117.657 5  -5425055.68821        10.500           0.594
 91  6 17 17  8 44.9990000  0  6G18G 2G11G19G16G 6
  22247413.597     8447998.545 6   6582845.97321        16.750           1.219
  21865506.940   -12304926.801 7  -9513727.63922        21.500           1.906
  22802987.753    -7287525.299 6  -5678580.38721        17.750           0.969
  20650602.136      459879.962 6    362204.10722        17.000           1.938
  23185599.495    -5156459.103 5  -4018020.00721        11.500           0.438
  23090054.230    -7083778.768 5  -5457518.86221        11.000           0.625
 91  6 17 17  8 59.9990000  0  6G18G 2G11G19G16G 6
  22254944.722     8487601.802 6   6613705.57621        16.250           1.188
  21857335.769   -12347850.470 7  -9547174.60922        21.750           1.844
  22800207.886    -7302111.993 6  -5689946.62621        17.000           0.938
  20651648.128      465372.681 6    366484.13522        16.000           1.875
  23184462.331    -5162453.458 5  -4022690.95721        11.500           0.531
  23082132.198    -7125440.983 5  -5489982.90321        11.500           0.531
 91  6 17 17  9 14.9990000  0  6G18G 2G11G19G16G 6
  22262491.433     8527250.184 6   6644600.34421        17.000           1.188
  21849177.573   -12390725.595 7  -9580583.77122        21.750           1.938
  22797456.245    -7316572.367 6  -5701214.45621        16.750           1.031
  20652702.730      470900.796 6    370791.74822        16.750           1.844
  23183332.003    -5168335.409 5  -4027274.30221         9.750           0.500
  23074198.878    -7167106.971 5  -5522449.88421        10.500           0.531
 91  6 17 17  9 29.9990000  0  6G18G 2G11G19G16G 6
  22270045.136     8566933.409 6   6675522.28321        16.750           1.156
  21841029.112   -12433562.017 7  -9613962.76522        22.750           1.938
  22794724.308    -7330916.340 6  -5712391.57021        15.500           1.031
  20653754.925      476454.317 6    375119.14522        17.250           1.750
  23182243.276    -5174115.170 5  -4031778.02921        10.250           0.469
  23066269.745    -7208786.747 5  -5554927.60021        10.750           0.469
 91  6 17 17  9 44.9990000  0  6G18G 2G11G19G16G 6
  22277607.690     8606652.221 6   6706471.91121        17.250           1.094
  21832880.417   -12476358.743 7  -9647310.83622        21.750           1.969
  22792020.370    -7345142.954 6  -5723477.20621        16.500           1.000
  20654815.230      482034.187 6    379467.07822        16.500           1.719
  23181164.065    -5179791.932 5  -4036201.50721        11.500           0.438
  23058333.878    -7250479.436 5  -5587415.38121        10.750           0.500
 91  6 17 17  9 59.9990000  0  6G18G 2G11G19G16G 6
  22285178.417     8646451.904 6   6737484.58621        17.250           1.219
  21824755.050   -12519069.997 7  -9680592.29922        22.500           1.969
  22789342.722    -7359206.284 6  -5734435.63021        15.500           1.063
  20655891.886      487686.066 6    383871.13122        17.000           1.563
  23180101.776    -5185319.939 5  -4040509.09721        10.750           0.594
  23050405.784    -7292139.294 5  -5619877.57921        10.500           0.531
 91  6 17 17 10 14.9990000  0  6G18G 2G11G19G16G 6
  22292752.823     8686261.252 6   6768504.78521        17.000           1.125
  21816632.534   -12561767.025 7  -9713862.67622        22.750           1.969
  22786683.253    -7373177.657 6  -5745322.40321        15.750           1.094
  20656971.565      493338.707 6    388275.77722        17.250           1.625
  23179069.401    -5190770.855 5  -4044756.59021        10.750           0.469
  23042465.808    -7333837.608 5  -5652369.76921        10.500           0.500
 91  6 17 17 10 29.9990000  0  6G18G 2G11G19G16G 6
  22300336.847     8726116.270 6   6799560.57321        17.000           1.063
  21808517.636   -12604413.249 7  -9747093.46222        22.250           2.094
  22784052.815    -7387019.424 6  -5756107.96121        16.500           1.031
  20658053.300      499028.656 6    392709.48222        16.500           1.688
  23178045.909    -5196108.030 5  -4048915.45321        10.000           0.531
  23034531.386    -7375537.900 5  -5684863.46321        11.000           0.438
 91  6 17 17 10 44.9990000  0  6G18G 2G11G19G16G 6
  22307926.550     8766013.086 6   6830648.93321        17.250           1.000
  21800401.362   -12647011.846 7  -9780287.14522        20.750           2.063
  22781438.261    -7400737.834 6  -5766797.81821        16.250           1.031
  20659143.487      504752.358 6    397169.50222        17.250           1.656
  23177060.120    -5201335.258 5  -4052988.63121        10.750           0.438
  23026601.073    -7417243.602 5  -5717361.38921        11.250           0.563
 91  6 17 17 10 59.9990000  0  6G18G 2G11G19G16G 6
  22315527.362     8805944.521 6   6861764.26921        18.000           1.000
  21792307.706   -12689570.099 7  -9813449.38522        21.750           2.156
  22778851.362    -7414337.122 6  -5777394.65221        15.500           0.969
  20660240.308      510502.720 6    401650.28922        16.000           1.688
  23176084.839    -5206459.530 5  -4056981.58521        10.750           0.500
  23018655.362    -7458961.829 5  -5749869.07121        10.750           0.625
 91  6 17 17 11 14.9990000  0  6G18G 2G11G19G16G 6
  22323136.097     8845913.942 6   6892909.20421        18.250           0.938
  21784218.230   -12732084.147 7  -9846577.18322        21.750           2.063
  22776288.347    -7427814.321 6  -5787896.31721        15.750           0.938
  20661333.636      516283.562 6    406154.82922        16.250           1.750
  23175126.636    -5211477.158 5  -4060891.43321        10.750           0.438
  23010723.261    -7500688.831 5  -5782383.58521        11.000           0.625
 91  6 17 17 11 29.9990000  0  6G18G 2G11G19G16G 6
  22330745.370     8885925.943 6   6924087.29421        17.000           0.938
  21776138.058   -12774549.400 7  -9879666.96222        21.750           2.094
  22773746.917    -7441164.789 6  -5798299.25321        16.750           0.938
  20662441.925      522099.385 6    410686.63322        16.750           1.719
  23174201.425    -5216383.914 5  -4064714.90421        11.250           0.438
  23002778.831    -7542420.172 5  -5814901.47821        11.250           0.500
 91  6 17 17 11 44.9990000  0  6G18G 2G11G19G16G 6
  22338372.800     8925983.772 6   6955301.11221        17.250           0.969
  21768064.362   -12816961.940 7  -9912715.65722        21.250           2.125
  22771233.128    -7454384.626 6  -5808600.39921        17.250           0.844
  20663555.495      527954.051 6    415248.69722        16.000           1.781
  23173287.370    -5221175.957 5  -4068449.01121        11.250           0.438
  22994837.206    -7584152.041 5  -5847419.78021        11.000           0.531
 91  6 17 17 11 59.9990000  0  6G18G 2G11G19G16G 6
  22346003.081     8966090.551 6   6986553.06121        17.000           0.938
  21760007.675   -12859318.410 7  -9945720.66322        21.250           2.219
  22768739.980    -7467470.492 6  -5818797.15121        17.250           0.969
  20664677.378      533850.896 6    419843.63222        16.500           1.656
  23172388.308    -5225849.962 5  -4072091.12121        10.250           0.438
  22986897.964    -7625881.010 5  -5879935.84421        11.500           0.594
 91  6 17 17 12 14.9990000  0  6G18G 2G11G19G16G 6
  22353638.136     9006224.754 6   7017826.38021        16.250           1.000
  21751952.042   -12901640.129 7  -9978698.59722        21.250           2.188
  22766274.026    -7480443.866 6  -5828906.24421        17.750           1.031
  20665802.823      539768.290 6    424454.57122        16.750           1.781
  23171521.230    -5230428.037 5  -4075658.48021        10.000           0.438
  22978955.362    -7667628.753 5  -5912466.51921        11.750           0.688
 91  6 17 17 12 29.9990000  0  6G18G 2G11G19G16G 6
  22361278.831     9046354.600 6   7049096.31321        16.500           0.844
  21743897.800   -12943958.247 7 -10011673.72522        21.000           2.156
  22763818.550    -7493335.841 6  -5838951.91521        17.000           1.031
  20666930.948      545675.117 6    429057.27122        17.250           1.625
  23170663.019    -5234941.361 5  -4079175.37921        10.750           0.563
  22971001.034    -7709426.451 5  -5945036.12321        11.750           0.688
 91  6 17 17 12 44.9990000  0  6G18G 2G11G19G16G 6
  22368918.808     9086529.495 6   7080401.35721        15.750           1.000
  21735858.980   -12986222.931 7 -10044607.21822        22.250           2.250
  22761391.136    -7506096.704 6  -5848895.40421        17.000           1.000
  20668060.542      551620.881 6    433690.32022        17.250           1.563
  23169823.151    -5239340.227 5  -4082603.11421        10.250           0.531
  22963043.097    -7751224.353 6  -5977605.89021        12.000           0.656
 91  6 17 17 12 59.9990000  0  6G18G 2G11G19G16G 6
  22376579.847     9126751.876 6   7111743.38021        16.750           0.969
  21727824.175   -13028431.587 7 -10077497.04822        21.500           2.250
  22758990.659    -7518723.660 6  -5858734.55921        17.750           0.906
  20669202.276      557608.288 6    438355.83522        16.750           1.656
  23169015.605    -5243622.031 5  -4085939.59221        10.500           0.406
  22955097.128    -7793019.853 6  -6010173.78621        12.500           0.594
 91  6 17 17 13 14.9990000  0  6G18G 2G11G19G16G 6
  22384231.628     9166979.745 6   7143089.69321        17.000           1.000
  21719794.433   -13070626.104 7 -10110375.85622        21.750           2.281
  22756603.097    -7531258.522 6  -5868501.96421        17.000           0.938
  20670340.909      563595.481 6    443021.17622        17.250           1.688
  23168208.425    -5247828.850 5  -4089217.68021         9.750           0.500
  22947129.597    -7834854.754 6  -6042772.37821        12.000           0.625
 91  6 17 17 13 29.9990000  0  6G18G 2G11G19G16G 6
  22391889.526     9207247.007 6   7174466.69621        16.000           0.938
  21711776.237   -13112772.097 7 -10143216.86522        21.750           2.250
  22754241.769    -7543667.077 6  -5878170.93821        16.750           1.125
  20671482.058      569616.725 6    447713.05122        16.750           1.781
  23167427.323    -5251926.661 5  -4092410.79221         9.250           0.469
  22939173.409    -7876695.078 6  -6075375.21721        12.000           0.531
 91  6 17 17 13 44.9990000  0  6G18G 2G11G19G16G 6
  22399566.128     9247556.888 6   7205876.90221        16.500           0.969
  21703765.581   -13154866.085 7 -10176017.33922        22.500           2.313
  22751903.026    -7555945.758 6  -5887738.72921        16.750           1.094
  20672636.784      575675.580 6    452434.22822        16.250           1.813
  23166672.823    -5255911.820 5  -4095516.15421        10.750           0.469
  22931205.409    -7918537.191 5  -6107979.41421        11.750           0.625
 91  6 17 17 13 59.9990000  0  6G18G 2G11G19G16G 6
  22407245.745     9287911.099 6   7237321.65321        16.750           0.844
  21695763.628   -13196906.172 7 -10208775.81822        21.500           2.313
  22749592.159    -7568092.552 6  -5897203.75221        16.250           1.094
  20673798.940      581773.814 6    457186.09422        15.750           1.656
  23165938.206    -5259782.742 6  -4098532.48921        12.000           0.406
  22923245.737    -7960379.266 6  -6140583.60121        12.250           0.500
 91  6 17 17 14 14.9990000  0  6G18G 2G11G19G16G 6
  22414938.558     9328327.651 6   7268814.98321        16.750           0.938
  21687781.151   -13238874.066 7 -10241478.03422        22.000           2.125
  22747312.222    -7580089.246 6  -5906551.81321        16.250           1.094
  20674971.823      587929.605 6    461982.80822        17.000           1.719
  23165223.511    -5263521.422 5  -4101445.78621        11.500           0.469
  22915287.675    -8002203.094 6  -6173173.58721        12.250           0.688
 91  6 17 17 14 29.9990000  0  6G18G 2G11G19G16G 6
  22422641.355     9368820.911 6   7300368.07521        17.250           1.000
  21679810.565   -13280754.656 7                        21.750
  22745059.519    -7591920.887 6  -5915771.25221        15.250           0.969
  20676152.120      594157.972 6    466836.05422        16.750           1.719
  23164543.331    -5267113.191 5  -4104244.59121        11.500           0.625
  22907330.605    -8043993.831 5                        11.750
 91  6 17 17 14 44.9990000  0  6G18G 2G11G19G16G 6
  22430352.565     9409353.314 6   7331951.66721        17.250           1.188
  21671849.589   -13322585.328 7                        21.250
  22742827.917    -7603624.909 6  -5924891.25721        14.500           1.094
  20677346.448      600421.386 6    471716.63522        16.250           1.688
  23163877.839    -5270595.636 5  -4106958.23221        11.250           0.469
  22899380.534    -8085788.961 6                        13.000
 91  6 17 17 14 59.9990000  0  6G18G 2G11G19G16G 6
  22438073.964     9449921.406 6   7363563.07321        17.000           1.156
  21663901.659   -13364369.282 7                        21.250
  22740632.183    -7615204.380 6  -5933914.21921        17.750           0.906
  20678545.573      606716.852 6    476622.17422        16.250           1.563
  23163235.776    -5273971.638 5  -4109588.92421        10.750           0.469
  22891429.480    -8127591.499 6                        13.250
 91  6 17 17 15 14.9990000  0  6G18G 2G11G19G16G 6
  22445801.886     9490539.604 6   7395213.50821        16.500           1.094
  21655959.362   -13406091.590 7 -10371777.30122        20.750           2.188
  22738451.784    -7626644.456 6  -5942828.56221        18.500           0.969
  20679750.847      613058.925 6    481564.02922        16.000           1.500
  23162621.300    -5277226.832 5  -4112125.47521        10.500           0.469
  22883472.972    -8169386.777 6  -6303446.44921        13.000           0.469
 91  6 17 17 15 29.9990000  0  6G18G 2G11G19G16G 6
  22453540.425     9531205.546 6   7426901.15921        16.250           0.906
  21648029.480   -13447754.314 7 -10404241.73222        21.500           2.313
  22736302.159    -7637947.089 6  -5951635.82121        17.750           1.031
  20680967.284      619445.514 6    486540.57522        16.000           1.531
  23162015.761    -5280363.272 5  -4114569.49121        10.000           0.406
  22875518.940    -8211176.961 6  -6336010.21521        13.000           0.469
 91  6 17 17 15 44.9990000  0  6G18G 2G11G19G16G 6
  22461283.526     9571899.192 6   7458610.41421        15.500           0.938
  21640112.175   -13489377.446 7 -10436675.30022        22.250           2.281
  22734171.355    -7649132.237 6  -5960351.47821        17.000           1.031
  20682185.355      625856.447 6    491536.08922        15.750           1.656
  23161440.464    -5283401.354 5  -4116936.87221        10.500           0.531
  22867565.019    -8252981.935 6  -6368585.49221        13.250           0.594
 91  6 17 17 15 59.9990000  0  6G18G 2G11G19G16G 6
  22469025.042     9612557.071 6   7490291.78321        16.250           0.844
  21632185.276   -13531023.965 7 -10469127.10722        21.750           2.250
  22732055.378    -7660262.938 6  -5969024.74821        17.750           1.031
  20683398.550      632228.983 6    496501.69922        15.500           1.594
  23160872.292    -5286404.228 5  -4119276.79421        10.750           0.531
  22859594.753    -8294864.859 6  -6401221.50921        13.000           0.594
 91  6 17 17 16 14.9990000  0  6G18G 2G11G19G16G 6
  22476766.292     9653262.015 6   7522009.82721        15.000           0.875
  21624270.612   -13572610.559 7 -10501532.21822        21.750           2.281
  22729961.331    -7671255.946 6  -5977590.70921        16.500           1.031
  20684620.698      638646.270 6    501502.17822        16.500           1.625
  23160324.558    -5289288.887 5  -4121524.63721        10.750           0.469
  22851626.105    -8336742.362 6  -6433853.30721        12.750           0.563
 91  6 17 17 16 29.9990000  0  6G18G 2G11G19G16G 6
  22484518.253     9694000.768 6   7553754.20721        14.500           0.844
  21616369.581   -13614150.303 7 -10533900.82522        22.000           2.281
  22727893.503    -7682124.308 6  -5986059.52521        17.000           0.969
  20685849.370      645095.124 6    506527.25922        17.250           1.563
  23159793.722    -5292068.796 5  -4123690.83121        11.000           0.500
  22843657.175    -8378627.740 6  -6466491.24921        13.250           0.625
 91  6 17 17 16 44.9990000  0  6G18G 2G11G19G16G 6
  22492280.214     9734779.221 6   7585529.52021        14.250           0.906
  21608474.831   -13655636.717 7 -10566227.87122        22.000           2.219
  22725851.190    -7692861.660 6  -5994426.28221        17.750           0.938
  20687082.784      651581.760 6    511581.77122        16.500           1.594
  23159285.558    -5294737.320 5  -4125770.25221        11.250           0.469
  22835686.659    -8420514.731 6  -6499130.43421        13.500           0.500
 91  6 17 17 16 59.9990000  0  6G18G 2G11G19G16G 6
  22500047.612     9775596.042 6   7617334.71921        15.000           0.906
  21600586.480   -13697070.951 7 -10598514.26322        21.500           2.188
  22723828.612    -7703469.097 6  -6002691.81021        16.500           0.906
  20688323.097      658105.121 6    516664.90422        17.000           1.625
  23158799.370    -5297295.735 5  -4127763.87721        11.250           0.469
  22827714.081    -8462404.300 6  -6531771.63421        13.000           0.594
 91  6 17 17 17 14.9990000  0  6G18G 2G11G19G16G 6
  22507823.261     9816442.417 6   7649162.97721        15.500           0.969
  21592711.448   -13738461.862 7 -10630766.88822        22.000           2.250
  22721832.519    -7713955.388 6  -6010862.93021        16.000           1.094
  20689568.909      664656.521 6    521769.88522        16.250           1.688
  23158332.089    -5299753.110 6  -4129678.73421        12.000           0.500
  22819741.284    -8504305.233 6  -6564421.70421        12.750           0.500
 91  6 17 17 17 29.9990000  0  6G18G 2G11G19G16G 6
  22515606.511     9857341.396 6   7681032.20621        15.500           1.000
  21584847.214   -13779785.769 7 -10662967.30822        22.000           2.188
  22719866.237    -7724296.987 6  -6018921.28621        16.500           1.031
  20690826.620      671259.337 6    526914.92122        16.250           1.625
  23157888.722    -5302086.346 5  -4131496.86621        11.750           0.500
  22811768.261    -8546194.254 6  -6597062.46721        12.750           0.594
 91  6 17 17 17 44.9990000  0  6G18G 2G11G19G16G 6
  22523391.315     9898252.559 6   7712910.93521        15.250           0.906
  21576989.347   -13821082.818 7 -10695146.80622        21.500           2.250
  22717924.300    -7734534.068 6  -6026898.20921        18.750           1.000
  20692085.292      677873.309 6    532068.65022        16.000           1.625
  23157456.269    -5304335.307 5  -4133249.35121        11.750           0.563
  22803794.503    -8588111.385 6  -6629725.15221        13.250           0.594
 91  6 17 17 17 59.9990000  0  6G18G 2G11G19G16G 6
  22531203.948     9939302.141 6   7744897.53021        16.000           0.844
  21569155.190   -13862226.466 7 -10727206.76122        21.000           2.188
  22716019.315    -7744539.925 6  -6034694.95621        19.000           1.031
  20693367.495      684625.191 6    537329.85222        16.000           1.625
  23157074.526    -5306373.989 5  -4134837.96921        11.750           0.438
  22795830.292    -8629930.120 6  -6662311.17221        12.000           0.656
 91  6 17 17 18 14.9990000  0  6G18G 2G11G19G16G 6
  22539030.190     9980423.693 6   7776940.18921        15.750           0.875
  21561344.722   -13903282.711 7 -10759198.62122        22.000           2.094
  22714144.612    -7754380.708 6  -6042363.07921        18.000           0.906
  20694665.987      691448.764 6    542646.91622        15.500           1.625
  23156711.659    -5308268.428 5  -4136314.19421        11.000           0.438
  22787881.862    -8671716.497 6  -6694871.96421        12.750           0.594
 91  6 17 17 18 29.9990000  0  6G18G 2G11G19G16G 6
  22546859.526    10021592.176 6   7809019.41121        15.250           0.875
  21553549.183   -13944276.405 7 -10791141.73822        23.250           2.188
  22712299.901    -7764081.272 6  -6049921.93321        17.750           0.844
  20695975.058      698319.133 6    548000.43222        15.750           1.750
  23156379.933    -5310043.776 5  -4137697.62421        11.000           0.531
  22779927.980    -8713495.476 6  -6727426.99421        12.000           0.688
 91  6 17 17 18 44.9990000  0  6G18G 2G11G19G16G 6
  22554693.347    10062786.930 6   7841119.12521        14.500           0.781
  21545751.651   -13985227.828 7 -10823051.91122        22.500           2.313
  22710474.667    -7773662.100 6  -6057387.49821        17.000           1.000
  20697289.401      705215.826 6    553374.46722        16.250           1.594
  23156051.800    -5311720.802 5  -4139004.44521        10.750           0.563
  22771977.776    -8755287.616 6  -6759992.27821        12.000           0.594
 91  6 17 17 18 59.9990000  0  6G18G 2G11G19G16G 6
  22562521.292    10103883.788 6   7873142.55221        15.250           0.844
  21537945.089   -14026260.833 7 -10855025.65322        22.250           2.250
  22708654.292    -7783246.884 6  -6064856.14721        17.500           1.156
  20698582.831      712015.027 6    558672.54922        16.750           1.813
  23155729.972    -5313423.221 5  -4140331.05121        11.250           0.563
  22763996.620    -8797216.452 6  -6792664.09421        12.000           0.594
 91  6 17 17 19 14.9990000  0  6G18G 2G11G19G16G 6
  22570349.886    10145037.243 6   7905210.06921        15.000           0.813
  21530147.050   -14067220.482 7 -10886942.23222        21.000           2.406
  22706857.269    -7792680.741 6  -6072207.16821        17.250           1.094
  20699890.511      718871.498 6    564015.24122        17.000           1.750
  23155426.909    -5314996.289 5  -4141556.85721        11.250           0.563
  22756027.987    -8839127.315 6  -6825321.86721        12.750           0.688
 91  6 17 17 19 29.9990000  0  6G18G 2G11G19G16G 6
  22578189.847    10186228.451 6   7937307.00621        15.250           0.781
  21522369.628   -14108125.498 7 -10918816.23722        22.750           2.281
  22705085.105    -7801982.580 6  -6079455.33421        17.000           1.094
  20701198.456      725766.602 6    569388.04022        16.750           1.719
  23155150.315    -5316459.090 5  -4142696.73321        10.750           0.469
  22748048.901    -8881039.112 6  -6857980.38021        12.500           0.656
 91  6 17 17 19 44.9990000  0  6G18G 2G11G19G16G 6
  22586031.370    10227462.386 6   7969437.23721        15.000           0.813
  21514597.120   -14148970.458 7 -10950643.45322        23.250           2.219
  22703341.511    -7811146.932 6  -6086596.36921        16.500           1.156
  20702520.870      732705.967 6    574795.32722        16.500           1.844
  23154892.667    -5317806.302 5  -4143746.54521        10.250           0.438
  22740071.112    -8922946.371 6  -6890635.36421        12.000           0.531
 91  6 17 17 19 59.9990000  0  6G18G 2G11G19G16G 6
  22593892.378    10268738.241 6   8001600.14621        15.750           0.813
  21506832.378   -14189755.761 7 -10982424.18122        23.000           2.188
  22701625.956    -7820174.152 6  -6093630.54421        16.250           1.063
  20703847.987      739688.845 6    580236.53522        16.750           1.625
  23154653.425    -5319038.509 5  -4144706.76821        10.000           0.438
  22732100.190    -8964849.539 6  -6923287.16421        12.250           0.688
 91  6 17 17 20 14.9990000  0  6G18G 2G11G19G16G 6
  22601758.847    10310067.447 6   8033804.61821        16.000           0.813
  21499081.394   -14230469.731 7 -11014149.32222        22.250           2.156
  22699933.917    -7829052.767 6  -6100548.91921        16.500           1.031
  20705187.183      746726.816 6    585720.67522        16.000           1.719
  23154454.972    -5320144.489 5  -4145568.59021        11.000           0.531
  22724127.011    -9006737.141 6  -6955926.85021        12.000           0.625
 91  6 17 17 20 29.9990000  0  6G18G 2G11G19G16G 6
  22609628.737    10351448.506 6   8066049.48621        15.500           0.719
  21491350.886   -14271113.569 7 -11045819.82022        22.500           2.313
  22698272.933    -7837783.784 6  -6107352.31021        16.500           0.969
  20706539.339      753818.679 6    591246.79722        16.000           1.750
  23154269.823    -5321125.406 5  -4146332.98421        11.750           0.531
  22716161.917    -9048610.074 6  -6988555.10421        12.500           0.688
 91  6 17 17 20 44.9990000  0  6G18G 2G11G19G16G 6
  22617512.737    10392862.027 6   8098319.65621        15.750           0.688
  21483625.722   -14311706.248 7 -11077450.45122        21.750           2.313
  22696634.276    -7846386.356 6  -6114055.60521        16.250           1.031
  20707892.323      760945.381 6    596800.06722        16.250           1.688
  23154097.730    -5322000.625 6  -4147015.00921        12.250           0.531
  22708191.081    -9090487.641 6  -7021186.95721        12.500           0.625
 91  6 17 17 20 59.9990000  0  6G18G 2G11G19G16G 6
  22625398.136    10434307.308 6   8130614.57021        15.500           0.656
  21475913.300   -14352248.542 7 -11109041.82422        22.000           2.281
  22695021.222    -7854861.190 6  -6120659.32721        16.000           1.094
  20709261.573      768106.059 6    602379.81522        16.000           1.594
  23153953.980    -5322770.941 6  -4147615.30821        12.000           0.469
  22700220.800    -9132370.513 6  -7053822.93521        12.500           0.625
 91  6 17 17 21 14.9990000  0  6G18G 2G11G19G16G 6
  22633295.800    10475807.989 6   8162952.65621        14.750           0.656
  21468210.573   -14392716.189 7 -11140575.02623        22.000           2.500
  22693439.315    -7863184.110 6  -6127144.71721        16.500           1.031
  20710631.183      775324.890 6    608004.88122        16.500           1.594
  23153825.831    -5323412.386 5  -4148115.17721        11.000           0.500
  22692251.558    -9174234.591 6  -7086444.27321        13.000           0.688
 91  6 17 17 21 29.9990000  0  6G18G 2G11G19G16G 6
  22641199.480    10517345.019 6   8195319.06021        14.250           0.688
  21460519.987   -14433127.751 7 -11172064.52522        22.250           2.438
  22691879.980    -7871373.772 6  -6133526.25521        15.000           1.063
  20712014.323      782583.281 6    613660.77222        16.000           1.625
  23153728.159    -5323943.888 5  -4148529.37321        11.000           0.563
  22684293.011    -9216098.514 6  -7119065.49321        14.000           0.781
 91  6 17 17 21 44.9990000  0  6G18G 2G11G19G16G 6
  22649109.737    10558928.329 6   8227721.53021        14.500           0.719
  21452845.167   -14473473.302 7 -11203502.58722        22.500           2.375
  22690350.675    -7879420.204 6  -6139796.18521        17.000           1.094
  20713403.526      789891.232 6    619355.27422        16.500           1.781
  23153646.940    -5324355.624 5  -4148850.23321         9.750           0.469
  22676325.183    -9257952.318 6  -7151678.82021        12.500           0.813
 91  6 17 17 21 59.9990000  0  6G18G 2G11G19G16G 6
  22657022.597    10600499.662 6   8260114.67721        14.000           0.688
  21445161.440   -14513810.683 7 -11234934.28123        20.750           2.531
  22688837.925    -7887381.155 6  -6145999.51621        17.750           0.969
  20714790.167      797190.946 6    625043.35922        17.000           1.813
  23153576.956    -5324705.687 5  -4149123.05221         9.500           0.406
  22668346.480    -9299853.818 6  -7184329.32821        12.000           0.656
 91  6 17 17 22 14.9990000  0  6G18G 2G11G19G16G 6
  22664943.206    10642105.264 6   8292534.51421        14.000           0.531
  21437504.276   -14554093.104 7 -11266323.14522        22.250           2.344
  22687342.964    -7895210.035 6  -6152099.96121        15.750           1.219
  20716188.675      804529.007 6    630761.32622        16.750           1.781
  23153538.245    -5324947.698 5  -4149311.65321        10.000           0.438
  22660374.214    -9341756.499 6  -7216980.74021        12.750           0.719
 91  6 17 17 22 29.9990000  0  6G18G 2G11G19G16G 6
  22672862.683    10683748.562 6   8324983.71621        12.750           0.750
  21429847.636   -14594317.070 7 -11297666.46522        22.000           2.469
  22685882.089    -7902903.435 6  -6158094.77121        17.500           1.250
  20717591.370      811908.925 6    636511.91122        17.000           1.844
  23153513.628    -5325077.926 5                        10.500
  22652398.581    -9383656.763 6  -7249630.25721        12.250           0.625
 91  6 17 17 22 44.9990000  0  6G18G 2G11G19G16G 6
  22680766.440    10725270.771 6   8357338.56821        13.500           0.781
  21422173.105   -14634640.902 7 -11329087.61023        21.750           2.500
  22684413.058    -7910619.785 6  -6164107.47221        17.500           1.156
  20718971.925      819172.107 6    642171.53922        16.250           1.813
  23153475.292    -5325255.507 5                        11.250
  22644397.620    -9425713.167 6  -7282401.45321        12.000           0.688
 91  6 17 17 22 59.9990000  0  6G18G 2G11G19G16G 6
  22688667.534    10766779.708 6   8389683.08421        14.000           0.688
  21414503.003   -14674956.405 7 -11360502.25522        21.000           2.406
  22682959.401    -7918250.863 6  -6170053.76521        17.000           1.000
  20720357.737      826426.654 6    647824.42622        16.250           1.781
  23153459.065    -5325371.983 5                        11.000
  22636390.331    -9467817.400 6  -7315209.93121        12.250           0.688
 91  6 17 17 23 14.9990000  0  6G18G 2G11G19G16G 6
  22696567.065    10808297.923 6   8422034.83721        14.750           0.781
  21406834.612   -14715240.773 7 -11391892.63623        21.000           2.531
  22681530.050    -7925774.019 6  -6175915.94621        16.500           1.031
  20721737.159      833695.372 6    653488.35122        16.750           1.906
  23153456.745    -5325405.098 5                        11.000
  22628366.886    -9509946.909 5  -7348038.08621        11.500           0.750
 91  6 17 17 23 29.9990000  0  6G18G 2G11G19G16G 6
  22704489.081    10849907.861 6   8454458.05621        15.000           0.688
  21399188.331   -14755411.226 7 -11423194.25223        21.250           2.500
  22680133.581    -7933106.463 6  -6181629.51621        16.500           0.969
  20723142.487      841061.073 6    659227.84722        16.250           1.875
  23153469.870    -5325272.366 5                        10.250
  22620367.659    -9552018.749 6  -7380821.31821        12.250           0.688
 91  6 17 17 23 44.9990000  0  6G18G 2G11G19G16G 6
  22712408.253    10891558.243 6   8486912.77521        13.500           0.719
  21391562.581   -14795518.811 7 -11454446.89122        21.750           2.469
  22678765.300    -7940299.159 6  -6187234.18421        17.500           1.094
  20724553.097      848472.897 6    665003.29022        17.000           1.750
  23153506.081    -5325025.003 5                         8.750
  22612359.659    -9594084.044 6  -7413599.44521        12.500           0.781
 91  6 17 17 23 59.9990000  0  6G18G 2G11G19G16G 6
  22720341.831    10933248.274 6   8519398.39921        14.000           0.688
  21383938.315   -14835563.933 7 -11485650.84523        21.750           2.594
  22677422.065    -7947352.591 6  -6192730.35721        16.500           1.094
  20725968.026      855930.279 6    670814.22422        17.500           1.688
  23153593.737    -5324663.413 5  -4149090.40021        10.250           0.469
  22604356.558    -9636143.238 6  -7446372.83421        12.500           0.688
 91  6 17 17 24 14.9990000  0  6G18G 2G11G19G16G 6
  22728286.315    10974973.249 6   8551911.25921        14.250           0.688
  21376332.370   -14875550.960 7 -11516809.53322        22.750           2.469
  22676106.331    -7954271.176 6  -6198121.43621        16.250           0.938
  20727397.683      863428.692 6    676657.14222        17.000           1.781
  23153683.456    -5324192.425 5  -4148723.46021         9.750           0.406
  22596345.519    -9678200.687 5  -7479144.83721        11.000           0.688
 91  6 17 17 24 29.9990000  0  6G18G 2G11G19G16G 6
  22736234.823    11016743.128 6   8584459.11221        14.000           0.688
  21368733.230   -14915469.548 7 -11547914.89222        21.500           2.438
  22674815.792    -7961044.603 6  -6203399.41421        17.500           0.875
  20728832.636      870978.513 6    682540.11622        17.500           1.813
  23153794.011    -5323601.975 5  -4148263.41621         9.750           0.438
  22588353.183    -9720246.117 5  -7511907.49321        11.500           0.688
 91  6 17 17 24 44.9990000  0  6G18G 2G11G19G16G 6
  22744184.401    11058544.222 6   8617031.26221        14.000           0.781
  21361147.761   -14955333.213 7 -11578977.45122        21.750           2.438
  22673551.823    -7967686.466 6  -6208574.89521        16.750           1.156
  20730278.034      878566.171 6    688452.57622        16.750           1.688
  23153932.878    -5322905.329 5  -4147720.60821        10.500           0.406
  22580358.026    -9762293.056 6  -7544671.30621        12.750           0.844
 91  6 17 17 24 59.9990000  0  6G18G 2G11G19G16G 6
  22752151.800    11100400.508 6   8649646.43521        14.250           0.844
  21353577.675   -14995117.679 7 -11609978.30723        21.750           2.563
  22672320.886    -7974172.543 6  -6213628.95621        17.750           1.094
  20731736.862      886216.040 6    694413.50922        17.250           1.750
  23154087.495    -5322078.792 5  -4147076.60521        10.750           0.563
  22572349.698    -9804317.228 6  -7577417.38321        12.000           0.719
 91  6 17 17 25 14.9990000  0  6G18G 2G11G19G16G 6
  22760119.011    11142266.158 6   8682268.89521        15.750           0.656
  21346012.355   -15034868.538 7 -11640952.96722        22.000           2.469
  22671108.683    -7980548.506 6  -6218597.23721        18.000           1.125
  20733189.050      893882.320 6    700387.22222        16.000           1.656
  23154247.605    -5321167.834 5  -4146366.79521         9.000           0.406
  22564356.972    -9846364.309 6  -7610181.32521        12.750           0.656
 91  6 17 17 25 29.9990000  0  6G18G 2G11G19G16G 6
  22768094.136    11184168.479 6   8714919.97021        15.250           0.656
  21338461.315   -15074557.755 7 -11671879.59823        22.500           2.531
  22669918.995    -7986786.720 6  -6223458.14921        17.250           1.031
  20734657.698      901592.786 6    706395.36922        15.250           1.781
  23154459.831    -5320145.303 5  -4145570.08021        10.500           0.406
  22556350.503    -9888406.579 6  -7642941.50121        13.000           0.750
 91  6 17 17 25 44.9990000  0  6G18G 2G11G19G16G 6
  22776073.784    11226122.299 6   8747611.14821        13.500           0.656
  21330920.394   -15114170.233 7 -11702746.41423        22.500           2.500
  22668759.558    -7992871.982 6  -6228199.89521        16.500           1.094
  20736138.456      909362.639 6    712449.79922        16.500           1.750
  23154677.448    -5318995.971 5  -4144674.54121        10.250           0.438
  22548358.612    -9930428.871 6  -7675686.12021        13.500           0.813
 91  6 17 17 25 59.9990000  0  6G18G 2G11G19G16G 6
  22784072.237    11268137.834 6   8780350.40421        14.000           0.656
  21323399.972   -15153695.754 7 -11733545.49023        22.500           2.594
  22667633.636    -7998793.863 6  -6232814.33621        16.750           1.156
  20737628.581      917202.166 6    718558.50922        16.500           1.813
  23154911.495    -5317709.768 5  -4143672.34621        10.000           0.375
  22540366.237    -9972420.674 6  -7708406.98921        13.000           0.750
 91  6 17 17 26 14.9990000  0  6G18G 2G11G19G16G 6
  22792069.808    11310164.791 6   8813098.56021        13.000           0.688
  21315885.722   -15193184.434 7 -11764315.85523        22.500           2.656
  22666526.315    -8004602.477 6  -6237340.49921        17.250           1.094
  20739123.753      925061.239 6    724682.46022        16.500           1.906
  23155175.800    -5316336.998 5  -4142602.69821        10.000           0.531
  22532367.659   -10014432.241 6  -7741143.24521        13.000           0.875
 91  6 17 17 26 29.9990000  0  6G18G 2G11G19G16G 6
  22800074.511    11352228.038 6   8845874.98421        13.250           0.625
  21308382.034   -15232610.804 7 -11795037.67523        21.750           2.625
  22665450.808    -8010272.715 6  -6241758.84421        17.750           1.063
  20740629.519      932965.122 6    730841.30622        16.250           1.781
  23155459.050    -5314852.655 5  -4141446.09621         9.750           0.531
  22524381.519   -10056438.329 6  -7773875.21321        14.000           0.688
 91  6 17 17 26 44.9990000  0  6G18G 2G11G19G16G 6
  22808072.487    11394243.997 6   8878614.57321        13.000           0.656
  21300877.198   -15272058.410 7 -11825776.04123        22.000           2.531
  22664380.823    -8015887.940 6  -6246134.32321        17.250           1.000
  20742123.980      940830.508 6    736970.17522        16.250           1.938
  23155741.956    -5313340.157 5  -4140267.57321         9.750           0.406
  22516371.808   -10098522.255 6  -7806667.85421        14.000           0.781
 91  6 17 17 26 59.9990000  0  6G18G 2G11G19G16G 6
  22816088.245    11436396.788 6   8911460.54521        12.750           0.625
  21293396.456   -15311342.627 7 -11856387.31222        21.500           2.469
  22663360.683    -8021263.818 6  -6250323.51721        17.250           1.219
  20743652.362      948841.573 6    743212.32022        17.000           1.875
  23156077.144    -5311615.555 5  -4138923.98521         9.250           0.438
  22508387.315   -10140499.683 6  -7839377.75321        14.000           0.719
 91  6 17 17 27 14.9990000  0  6G18G 2G11G19G16G 6
  22824131.870    11478645.145 6   8944381.45921        12.250           0.563
  21285949.987   -15350504.060 7 -11886902.44723        22.500           2.563
  22662373.175    -8026441.021 6  -6254357.47021        17.750           1.031
  20745193.511      956957.718 6    749536.80222        16.250           1.813
  23156434.409    -5309719.776 5  -4137446.57021         9.750           0.469
  22500403.644   -10182411.248 6  -7872035.85521        13.500           0.750
 91  6 17 17 27 29.9990000  0  6G18G 2G11G19G16G 6
  22832183.050    11520939.288 6   8977337.78421        12.750           0.656
  21278509.065   -15389592.350 7 -11917360.82523        22.250           2.531
  22661413.776    -8031469.190 6  -6258275.49321        16.250           1.094
  20746753.050      965129.322 6    755904.27222        16.750           1.969
  23156820.792    -5307702.401 5  -4135874.64221        10.000           0.438
  22492438.105   -10224306.528 6  -7904681.50221        14.500           0.906
 91  6 17 17 27 44.9990000  0  6G18G 2G11G19G16G 6
  22840242.511    11563330.418 6   9010369.71121        12.750           0.563
  21271096.675   -15428555.909 7 -11947722.00523        22.250           2.563
  22660497.230    -8036296.902 6  -6262037.34921        16.000           1.063
  20748325.558      973407.910 6    762355.10622        16.250           1.906
  23157241.956    -5305512.043 5  -4134167.89421        10.500           0.531
  22484474.698   -10266134.110 6  -7937274.40621        14.750           0.906
 91  6 17 17 27 59.9990000  0  6G18G 2G11G19G16G 6
  22848320.831    11605769.093 6   9043438.69021        14.000           0.594
  21263694.948   -15467444.154 7 -11978024.51223        21.750           2.563
  22659610.175    -8040973.452 6  -6265681.40021        17.500           1.125
  20749907.964      981744.144 6    768850.85822        15.750           1.781
  23157677.644    -5303198.672 5  -4132365.31221        10.250           0.500
  22476516.362   -10307943.287 6  -7969852.95521        14.750           0.750
 91  6 17 17 28 14.9990000  0  6G18G 2G11G19G16G 6
  22856402.565    11648231.163 6   9076525.91121        13.000           0.625
  21256304.964   -15506281.010 7 -12008286.96823        21.750           2.594
  22658740.464    -8045522.734 6  -6269226.29221        16.750           1.125
  20751501.620      990114.238 6    775372.99122        16.250           1.750
  23158123.253    -5300786.243 5  -4130485.55521         9.250           0.500
  22468561.292   -10349757.929 6  -8002435.76521        15.000           0.781
 91  6 17 17 28 29.9990000  0  6G18G 2G11G19G16G 6
  22864488.761    11690714.355 6   9109629.57121        12.750           0.688
  21248926.737   -15545068.160 7 -12038510.68723        22.250           2.500
  22657901.315    -8049946.750 6  -6272673.57821        17.000           1.156
  20753100.995      998516.333 6    781920.07122        16.000           1.688
  23158617.612    -5298277.081 5  -4128530.39221        10.750           0.500
  22460599.855   -10391579.909 6  -8035024.30921        14.250           0.750
 91  6 17 17 28 44.9990000  0  6G18G 2G11G19G16G 6
  22872584.698    11733261.797 6   9142783.26921        13.000           0.781
  21241561.558   -15583761.887 7 -12068661.60223        23.000           2.563
  22657086.565    -8054201.776 6  -6275989.18021        16.500           1.250
  20754716.565     1006994.113 6    788526.12222        16.000           1.750
  23159117.800    -5295627.489 5  -4126465.82921        10.750           0.531
  22452650.862   -10433365.514 6  -8067584.50421        14.250           0.813
 91  6 17 17 28 59.9990000  0  6G18G 2G11G19G16G 6
  22880682.440    11775819.194 6   9175944.74121        12.750           0.719
  21234207.089   -15622416.594 7 -12098782.12522        22.500           2.469
  22656305.050    -8058342.275 6  -6279215.52021        17.750           1.125
  20756333.714     1015493.278 6    795148.83622        16.750           1.875
  23159639.175    -5292891.889 5  -4124334.22821        10.250           0.438
  22444698.456   -10475169.143 6  -8100158.72421        14.250           0.875
 91  6 17 17 29 14.9990000  0  6G18G 2G11G19G16G 6
  22888791.737    11818413.750 6   9209135.16821        13.250           0.688
  21226861.995   -15661004.500 7 -12128850.59223        22.000           2.563
  22655538.222    -8062340.715 6  -6282331.17521        16.750           1.156
  20757959.839     1024041.137 6    801809.49622        17.250           1.781
  23160186.003    -5290042.952 5  -4122114.31421        10.000           0.531
  22436742.222   -10516963.248 6  -8132725.52421        14.250           0.906
 91  6 17 17 29 29.9990000  0  6G18G 2G11G19G16G 6
  22896895.261    11861033.127 6   9242344.94721        12.000           0.688
  21219526.386   -15699537.893 7 -12158876.58523        22.000           2.500
  22654803.526    -8066209.282 6  -6285345.62221        17.750           1.219
  20759590.823     1032625.674 6    808498.75022        17.000           1.781
  23160744.980    -5287092.914 5  -4119815.63421         9.750           0.563
  22428787.019   -10558759.799 6  -8165294.24221        14.250           0.844
 91  6 17 17 29 44.9990000  0  6G18G 2G11G19G16G 6
  22905015.073    11903693.661 6   9275586.77321        13.250           0.594
  21212209.683   -15738000.082 7 -12188847.09423        22.250           2.531
  22654099.206    -8069931.398 6  -6288245.95321        19.250           0.969
  20761236.144     1041263.574 6    815229.57922        16.500           1.750
  23161328.323    -5284025.610 5  -4117425.57121         9.750           0.563
  22420835.769   -10600542.271 6  -8197851.99421        14.000           0.844
 91  6 17 17 29 59.9990000  0  6G18G 2G11G19G16G 6
  22913137.300    11946386.236 6   9308853.60221        13.000           0.625
  21204901.948   -15776399.682 7 -12218768.83523        22.250           2.625
  22653411.261    -8073515.687 6  -6291038.87521        16.750           1.188
  20762889.714     1049945.999 6    821995.09122        17.250           1.781
  23161926.448    -5280849.759 5  -4114950.92621         9.750           0.406
  22412885.300   -10642319.321 6  -8230405.51921        13.750           0.844
 91  6 17 17 30 14.9990000  0  6G18G 2G11G19G16G 6
  22921275.456    11989113.781 6   9342147.67721        13.750           0.656
  21197605.386   -15814733.516 7 -12248639.33423        21.750           2.531
  22652758.769    -8076959.144 6  -6293722.09221        16.750           1.000
  20764551.855     1058676.252 6    828797.88422        16.750           1.688
  23162544.276    -5277562.614 5  -4112389.55321         9.250           0.344
  22404940.870   -10684087.661 6  -8262952.25521        15.250           0.844
 91  6 17 17 30 29.9990000  0  6G18G 2G11G19G16G 6
  22929401.315    12031864.470 6   9375459.74721        12.750           0.625
  21190323.581   -15853013.344 7 -12278467.73823        22.500           2.531
  22652129.597    -8080273.583 6  -6296304.74821        17.750           1.188
  20766217.808     1067442.466 6    835628.67322        17.000           1.938
  23163200.222    -5274175.999 5  -4109750.67521         9.500           0.469
  22396993.276   -10725859.157 6  -8295501.45121        14.750           0.813
 91  6 17 17 30 44.9990000  0  6G18G 2G11G19G16G 6
  22937549.839    12074660.780 5   9408807.39221        11.750           0.688
  21183055.394   -15891216.238 7 -12308236.19323        23.750           2.594
  22651525.730    -8083436.285 6  -6298769.15321        17.750           1.000
  20767898.159     1076267.488 6    842505.29722        16.500           1.844
  23163872.136    -5270667.365 5  -4107016.74221         9.250           0.438
  22389048.784   -10767611.004 6  -8328035.33321        14.000           0.844
 91  6 17 17 30 59.9990000  0  6G18G 2G11G19G16G 6
  22945701.058    12117488.730 5   9442179.69121        11.750           0.500
  21175798.183   -15929355.659 7 -12337955.19723        23.750           2.656
  22650949.198    -8086460.847 6  -6301125.96521        17.500           0.875
  20769588.433     1085137.791 6    849417.21822        16.750           1.813
  23164555.159    -5267050.547 5  -4104198.46021         9.000           0.563
  22381098.511   -10809356.568 6  -8360564.31221        13.750           0.813
 91  6 17 17 31 14.9990000  0  6G18G 2G11G19G16G 6
  22953853.214    12160336.843 5   9475567.72121        11.250           0.438
  21168549.972   -15967443.157 7 -12367633.73423        23.000           2.688
  22650400.112    -8089358.804 6  -6303384.10821        17.750           0.969
  20771282.714     1094041.685 6    856355.30422        16.750           1.781
  23165258.136    -5263337.133 5  -4101304.92821         9.250           0.375
  22373155.901   -10851107.512 6  -8393097.49321        14.500           0.719
 91  6 17 17 31 29.9990000  0  6G18G 2G11G19G16G 6
  22962014.636    12203182.027 5   9508953.47421        11.750           0.563
  21161303.487   -16005501.263 7 -12397289.36823        23.000           2.500
  22649867.581    -8092152.670 6  -6305561.14221        17.500           1.031
  20772972.706     1102956.811 6    863302.14022        16.000           1.844
  23165991.448    -5259549.615 5  -4098353.63321        10.250           0.594
  22365208.058   -10892886.158 6  -8425652.26921        14.750           0.719
 91  6 17 17 31 44.9990000  0  6G18G 2G11G19G16G 6
  22970172.519    12246048.311 6   9542355.60721        12.000           0.625
  21154076.331   -16043505.556 7 -12426903.07823        22.750           2.500
  22649357.753    -8094818.159 6  -6307638.12521        16.750           1.000
  20774680.675     1111907.575 6    870276.75122        16.750           1.906
  23166724.331    -5255664.395 5  -4095326.24121        10.250           0.531
  22357257.136   -10934668.269 6  -8458209.71921        14.750           0.781
 91  6 17 17 31 59.9990000  0  6G18G 2G11G19G16G 6
  22978331.003    12288961.296 5   9575794.15921        11.750           0.500
  21146852.089   -16081430.402 7 -12456454.88623        22.000           2.500
  22648880.815    -8097329.673 6  -6309595.14221        17.250           1.250
  20776395.394     1120919.659 6    877299.13722        17.000           1.875
  23167487.753    -5251655.794 5  -4092202.70621        10.500           0.563
  22349310.698   -10976428.129 6  -8490749.83121        14.750           0.750
 91  6 17 17 32 14.9990000  0  6G18G 2G11G19G16G 6
  22986507.878    12331925.450 6   9609272.60821        12.000           0.625
  21139657.472   -16119270.854 7 -12485940.92523        23.000           2.531
  22648436.620    -8099682.348 6  -6311428.37821        17.250           1.094
  20778126.167     1129997.865 6    884373.03922        17.000           1.781
  23168267.644    -5247519.343 5  -4088979.54121         9.500           0.375
  22341364.722   -11018160.803 6  -8523268.75621        14.250           0.719
 91  6 17 17 32 29.9990000  0  6G18G 2G11G19G16G 6
  22994697.456    12374970.420 6   9642814.00721        12.250           0.406
  21132478.245   -16156996.570 7 -12515337.55323        24.000           2.844
  22648021.878    -8101846.156 6  -6313114.45521        17.000           1.125
  20779868.690     1139172.325 6    891521.95222        16.750           1.750
  23169088.651    -5243225.039 5  -4085633.35321        10.000           0.469
  22333440.964   -11059836.165 6  -8555743.04621        14.500           0.750
 91  6 17 17 32 44.9990000  0  6G18G 2G11G19G16G 6
  23002893.378    12418045.103 5   9676378.57221        11.750           0.500
  21125315.222   -16194658.647 7 -12544684.60023        24.000           2.719
  22647637.339    -8103872.300 6  -6314693.24921        17.000           1.063
  20781624.995     1148392.170 6    898706.23522        17.250           1.781
  23169932.542    -5238824.191 5  -4082204.15221        11.000           0.500
  22325507.894   -11101505.456 6  -8588212.58421        14.500           0.688
 91  6 17 17 32 59.9990000  0  6G18G 2G11G19G16G 6
  23011101.823    12461159.001 6   9709973.67521        12.000           0.531
  21118157.339   -16232247.268 7 -12573974.40023        23.250           2.781
  22647279.964    -8105750.922 6  -6316157.10621        17.000           0.969
  20783390.808     1157667.005 6    905933.37122        17.250           1.719
  23170785.901    -5234306.890 5  -4078684.21721        10.500           0.438
  22317577.870   -11143158.557 6  -8620669.52221        13.750           0.688
 91  6 17 17 33 14.9990000  0  6G18G 2G11G19G16G 6
  23019314.683    12504308.946 5   9743596.88721        11.750           0.469
  21111017.698   -16269765.214 7 -12603209.13723        23.500           2.781
  22646953.472    -8107484.856 6  -6317508.21921        18.250           0.938
  20785163.448     1166994.058 6    913201.19122        17.250           1.750
  23171668.620    -5229676.052 5  -4075075.81221        10.250           0.438
  22309661.026   -11184798.352 6  -8653116.08821        14.250           0.844
 91  6 17 17 33 29.9990000  0  6G18G 2G11G19G16G 6
  23027528.636    12547476.823 6   9777234.04821        12.000           0.406
  21103887.917   -16307230.563 7 -12632402.88823        23.750           2.813
  22646640.011    -8109092.202 6  -6318760.68321        16.250           1.031
  20786948.019     1176355.369 6    920495.71522        16.250           1.750
  23172568.815    -5224950.168 5  -4071393.33221        10.500           0.406
  22301735.761   -11226442.830 6  -8685566.29021        14.500           0.781
 91  6 17 17 33 44.9990000  0  6G18G 2G11G19G16G 6
  23035756.355    12590721.569 6   9810931.11321        12.500           0.563
  21096780.136   -16344583.952 7 -12661509.39023        23.750           2.625
  22646373.128    -8110513.842 6  -6319868.43721        16.750           1.094
  20788743.097     1185810.224 6    927863.11122        16.500           1.656
  23173493.042    -5220070.444 5  -4067590.99121        10.000           0.469
  22293821.214   -11268032.712 6  -8717973.95821        15.000           0.750
 91  6 17 17 33 59.9990000  0  6G18G 2G11G19G16G 6
  23044005.706    12634084.739 6   9844720.45921        12.000           0.500
  21089704.636   -16381783.341 7 -12690495.90023        23.250           2.563
  22646146.112    -8111707.937 6  -6320798.90321        17.000           1.188
  20790572.409     1195400.491 6    935336.03022        16.750           1.656
  23174467.542    -5214995.073 5  -4063636.19021        11.000           0.469
  22285923.511   -11309526.084 6  -8750306.42421        14.750           0.781
 91  6 17 17 34 14.9990000  0  6G18G 2G11G19G16G 6
  23052269.151    12677502.212 6   9878552.11621        12.000           0.594
  21082641.948   -16418892.679 7 -12719412.23423        23.750           2.719
  22645946.855    -8112738.525 6  -6321601.92921        16.500           0.938
  20792407.690     1205062.325 6    942864.72922        16.750           1.781
  23175454.011    -5209788.152 5  -4059578.88921        10.250           0.500
  22278029.940   -11350986.874 6  -8782613.50621        14.250           0.875
 91  6 17 17 34 29.9990000  0  6G18G 2G11G19G16G 6
  23060523.355    12720885.922 6   9912357.44821        12.500           0.531
  21075579.276   -16455999.770 7 -12748326.82023        23.000           2.688
  22645771.878    -8113693.308 6  -6322345.91521        18.000           0.938
  20794240.690     1214708.069 6    950380.88022        16.750           1.688
  23176457.745    -5204537.686 5  -4055487.64721        10.500           0.563
  22270139.722   -11392502.756 6  -8814963.52021        14.500           0.875
 91  6 17 17 34 44.9990000  0  6G18G 2G11G19G16G 6
  23068792.401    12764345.081 5   9946221.58321        11.250           0.531
  21068536.081   -16492994.860 7 -12777154.13823        22.750           2.781
  22645622.401    -8114462.967 6  -6322945.66621        16.750           0.938
  20796094.362     1224446.962 6    957969.61022        16.500           1.656
  23177483.612    -5199134.512 5  -4051277.40621        11.500           0.469
  22262243.987   -11433964.235 6  -8847271.14021        14.750           0.781
 91  6 17 17 34 59.9990000  0  6G18G 2G11G19G16G 6
  23077076.401    12807860.186 6   9980129.30921        12.000           0.438
  21061514.855   -16529897.586 7 -12805909.47723        22.250           2.750
  22645509.167    -8115066.956 6  -6323416.29521        16.750           1.156
  20797963.808     1234259.712 6    965615.89222        17.000           1.656
  23178535.347    -5193598.280 5  -4046963.51721        11.750           0.469
  22254364.300   -11475390.721 6  -8879551.50321        15.250           0.813
 91  6 17 17 35 14.9990000  0  6G18G 2G11G19G16G 6
  23085359.964    12851389.838 5  10014048.39721        11.250           0.500
  21054502.808   -16566748.767 7 -12834624.65023        23.250           2.906
  22645417.964    -8115546.072 6  -6323789.61421        16.000           1.125
  20799837.112     1244105.455 6    973287.88722        16.750           1.750
  23179606.722    -5187969.944 5  -4042577.84121        11.500           0.375
  22246477.730   -11516822.947 6  -8911836.33221        14.750           0.781
 91  6 17 17 35 29.9990000  0  6G18G 2G11G19G16G 6
  23093642.105    12894938.486 5  10047982.24421        10.250           0.469
  21047503.511   -16603543.671 7 -12863295.96823        23.500           2.938
  22645349.050    -8115895.821 6  -6324062.14221        16.250           1.063
  20801716.862     1253988.868 6    980989.24022        16.500           1.719
  23180689.573    -5182245.033 5  -4038116.90421        10.000           0.406
  22238589.425   -11558256.321 6  -8944122.04321        14.500           0.875
 91  6 17 17 35 44.9990000  0  6G18G 2G11G19G16G 6
  23101933.026    12938496.001 5  10081923.50321        10.500           0.469
  21040510.862   -16640291.932 7 -12891930.44523        23.500           2.875
  22645306.323    -8116126.074 6  -6324241.05421        16.500           1.031
  20803604.878     1263900.250 6    988712.88222        17.000           1.594
  23181805.237    -5176433.673 5  -4033588.10421        10.250           0.469
  22230708.081   -11599700.548 6  -8976415.71721        15.500           0.844
 91  6 17 17 35 59.9990000  0  6G18G 2G11G19G16G 6
  23110232.683    12982089.882 5  10115892.63021        10.750           0.531
  21033528.784   -16676966.031 7 -12920507.63223        23.500           2.844
  22645289.378    -8116209.326 6                        16.250
  20805505.542     1273867.072 6    996479.22522        16.250           1.656
  23182923.565    -5170508.556 5  -4028971.15121         9.750           0.500
  22222820.745   -11641128.047 6  -9008696.85821        15.250           0.781
 91  6 17 17 36 14.9990000  0  6G18G 2G11G19G16G 6
  23118521.730    13025667.397 5  10149848.96021        10.750           0.531
  21026555.331   -16713618.354 7 -12949067.85923        24.000           2.813
  22645290.440    -8116198.028 6                        15.750
  20807398.253     1283836.853 6   1004247.87322        17.000           1.688
  23184069.105    -5164522.299 5  -4024306.58921        10.750           0.406
  22214927.003   -11682591.095 6  -9041005.70021        14.250           0.875
 91  6 17 17 36 29.9990000  0  6G18G 2G11G19G16G 6
  23126815.995    13069250.124 5  10183808.89221        11.000           0.563
  21019589.753   -16750226.880 7 -12977594.45823        23.750           2.813
  22645314.519    -8116070.287 6                        16.000
  20809299.456     1293831.742 6   1012035.58522        18.000           1.594
  23185232.214    -5158453.197 5  -4019577.95721        11.250           0.500
  22207036.644   -11724067.773 6  -9073325.65921        14.250           0.875
 91  6 17 17 36 44.9990000  0  6G18G 2G11G19G16G 6
  23135112.230    13112839.007 5  10217774.09221        10.500           0.406
  21012631.714   -16786790.192 7 -13006085.32023        23.500           2.813
  22645362.956    -8115824.890 6                        16.500
  20811207.831     1303853.163 6   1019844.47922        17.250           1.688
  23186391.683    -5152300.052 5  -4014783.32121        10.250           0.469
  22199144.956   -11765556.679 6  -9105654.64021        15.500           0.969
 91  6 17 17 36 59.9990000  0  6G18G 2G11G19G16G 6
  23143410.659    13156457.238 5  10251762.15821        10.500           0.563
  21005687.331   -16823285.194 7 -13034522.95223        23.500           2.844
  22645437.870    -8115438.710 6  -6323705.40621        17.000           1.188
  20813122.800     1313924.147 6   1027691.98622        17.750           1.719
  23187589.589    -5146039.939 5  -4009905.34921        11.000           0.406
  22191251.690   -11807034.509 6  -9137974.97921        15.000           1.031
 91  6 17 17 37 14.9990000  0  6G18G 2G11G19G16G 6
  23151726.651    13200124.796 5  10285788.69221        11.000           0.438
  20998759.597   -16859691.586 7 -13062891.53323        23.750           2.813
  22645539.597    -8114891.650 6  -6323279.09221        16.500           0.969
  20815050.073     1324064.897 6   1035593.85022        16.750           1.750
  23188798.347    -5139652.819 5  -4004928.40421         9.500           0.531
  22183363.331   -11848481.149 6  -9170271.02321        14.750           1.031
 91  6 17 17 37 29.9990000  0  6G18G 2G11G19G16G 6
  23160031.151    13243828.251 5  10319843.16421        10.000           0.563
  20991846.558   -16896022.313 7 -13091201.16223        23.000           2.938
  22645675.620    -8114196.956 6  -6322737.76821        18.000           1.063
  20816992.933     1334262.317 6   1043539.89622        17.000           1.875
  23190026.222    -5133152.192 5  -3999863.02721         9.250           0.500
  22175477.190   -11889909.771 6  -9202553.04321        14.750           1.000
 91  6 17 17 37 44.9990000  0  6G18G 2G11G19G16G 6
  23168358.261    13287555.441 5  10353916.16021        10.750           0.594
  20984946.472   -16932289.147 7 -13119460.99123        23.500           2.969
  22645828.769    -8113366.320 6  -6322090.51321        17.250           1.125
  20818938.183     1344504.677 6   1051520.94822        15.500           1.719
  23191296.542    -5126549.882 5  -3994718.39121        10.500           0.563
  22167600.034   -11931331.788 6  -9234829.91321        15.750           0.906
 91  6 17 17 37 59.9990000  0  6G18G 2G11G19G16G 6
  23176683.284    13331315.145 5  10388014.48121        10.500           0.531
  20978052.815   -16968483.082 7 -13147664.01823        23.000           2.875
  22646015.792    -8112390.903 6  -6321330.43221        17.750           1.031
  20820901.511     1354801.055 6   1059544.09422        15.000           1.750
  23192573.300    -5119837.349 5  -3989487.88921        10.500           0.500
  22159718.964   -11972738.323 6  -9267094.71821        15.500           1.000
 91  6 17 17 38 14.9990000  0  6G18G 2G11G19G16G 6
  23185024.230    13375137.546 5  10422161.65921        10.750           0.531
  20971191.526   -17004573.625 7 -13175786.48323        24.000           2.969
  22646236.714    -8111240.201 6  -6320433.76921        17.750           0.938
  20822877.753     1365182.030 6   1067633.15322        15.750           1.813
  23193870.526    -5112983.984 5  -3984147.63221        10.000           0.469
  22151842.956   -12014098.793 6  -9299323.62021        14.500           0.938
 91  6 17 17 38 29.9990000  0  6G18G 2G11G19G16G 6
  23193378.065    13418995.135 5  10456336.26121        11.500           0.469
  20964334.792   -17040588.040 7 -13203849.62623        23.750           2.969
  22646481.105    -8109941.862 6  -6319422.04621        15.750           1.031
  20824862.995     1375620.169 6   1075766.74922        16.000           1.781
  23195205.003    -5106017.609 5  -3978719.30721         9.500           0.406
  22143984.573   -12055440.601 6  -9331537.99821        15.750           0.844
 91  6 17 17 38 44.9990000  0  6G18G 2G11G19G16G 6
  23201723.503    13462884.808 5  10490535.85921         9.750           0.438
  20957496.245   -17076528.914 7 -13231855.47623        23.250           2.875
  22646759.433    -8108498.582 6  -6318297.40321        18.500           1.000
  20826855.651     1386112.916 6   1083942.90622        16.000           1.844
  23196545.519    -5098941.179 5  -3973205.25421         9.000           0.438
  22136115.526   -12096766.369 6  -9363739.86221        15.250           0.938
 91  6 17 17 38 59.9990000  0  6G18G 2G11G19G16G 6
  23210079.972    13506809.643 5  10524762.83621        10.000           0.500
  20950670.776   -17112393.338 7 -13259801.74323        23.750           3.031
  22647059.175    -8106907.260 6  -6317057.37921        16.500           0.969
  20828868.167     1396663.339 6   1092164.01122        16.500           1.719
  23197903.690    -5091751.714 5  -3967603.09721         9.250           0.469
  22128257.378   -12138072.868 6  -9395926.71921        15.250           0.875
 91  6 17 17 39 14.9990000  0  6G18G 2G11G19G16G 6
  23218453.487    13550803.501 5  10559043.62321         9.500           0.406
  20943868.847   -17148146.943 7 -13287661.65723        24.250           3.031
  22647394.745    -8105133.944 6  -6315675.57221        17.000           1.063
  20830891.300     1407305.593 6   1100456.66522        16.250           1.656
  23199316.831    -5084415.323 5  -3961886.45821        10.250           0.469
  22120398.909   -12179325.901 6  -9428071.89721        14.500           0.844
 91  6 17 17 39 29.9990000  0  6G18G 2G11G19G16G 6
  23226836.987    13594836.907 5  10593355.19721        10.750           0.406
  20937079.120   -17183818.699 7 -13315457.79623        24.000           3.125
  22647764.378    -8103207.606 6  -6314174.50221        17.750           1.000
  20832929.659     1418010.803 6   1108798.39222        15.750           1.688
  23200733.878    -5076961.438 5  -3956078.27421        10.250           0.469
  22112558.894   -12220554.299 6  -9460197.90321        14.500           0.906
 91  6 17 17 39 44.9980000  0  6G18G 2G11G19G16G 6
  23235225.389    13638920.431 5  10627705.85121        10.000           0.344
  20930307.607   -17219392.571 7 -13343177.66723        23.500           3.156
  22648160.647    -8101114.920 6  -6312543.83221        16.250           0.969
  20834983.264     1428791.660 6   1117199.06922        16.250           1.688
  23202172.240    -5069377.013 5  -3950168.36521        11.000           0.500
  22104726.779   -12261741.755 6  -9492291.99121        15.250           0.875
 91  6 17 17 39 59.9980000  0  6G18G 2G11G19G16G 6
  23243613.912    13683058.796 5  10662099.23121         8.500           0.375
  20923560.693   -17254873.979 7 -13370825.48223        24.750           2.906
  22648592.545    -8098856.409 6  -6310783.92321        17.750           1.094
  20837046.092     1439648.999 6   1125659.33122        16.000           1.719
  23203637.982    -5061662.073 5  -3944156.74021        10.500           0.438
  22096888.756   -12302894.521 6  -9524359.04321        14.750           0.969
 91  6 17 17 40 14.9980000  0  6G18G 2G11G19G16G 6
  23252012.725    13727145.725 5  10696452.52421        10.000           0.313
  20916803.420   -17290363.583 7 -13398479.67623        24.750           3.063
  22649032.951    -8096535.490 6  -6308975.41421        16.500           1.156
  20839108.779     1450479.103 6   1134098.36222        16.250           1.844
  23205113.982    -5053920.183 5  -3938124.15221        10.750           0.563
  22089045.623   -12344112.768 6  -9556477.11321        14.500           1.000
 91  6 17 17 40 29.9980000  0  6G18G 2G11G19G16G 6
  23260404.818    13771234.742 5  10730807.45121         9.500           0.313
  20910060.920   -17325807.933 7 -13426098.61623        24.000           2.969
  22649498.123    -8094098.657 6  -6307076.57221        17.750           0.906
  20841176.006     1461335.518 6   1142557.89722        16.750           1.875
  23206607.615    -5046098.229 5  -3932029.17121        10.500           0.406
  22081201.654   -12385343.092 6  -9588604.60321        14.500           1.063
 91  6 17 17 40 44.9980000  0  6G18G 2G11G19G16G 6
  23268801.154    13815374.141 5  10765201.61921         9.500           0.344
  20903335.545   -17361158.334 7 -13453644.35123        25.000           2.875
  22649993.943    -8091497.226 6  -6305049.45921        17.500           0.875
  20843255.076     1472266.984 6   1151075.91922        16.500           1.719
  23208117.842    -5038147.848 5  -3925834.08721         9.750           0.531
  22073356.943   -12426536.542 6  -9620703.35521        14.250           1.063
 91  6 17 17 40 59.9980000  0  6G18G 2G11G19G16G 6
  23277207.037    13859564.318 5  10799635.38221         9.500           0.313
  20896625.311   -17396413.856 7 -13481116.15123        24.750           2.875
  22650519.795    -8088730.556 6  -6302893.61921        17.500           1.031
  20845353.045     1483274.222 6   1159652.98822        16.500           1.781
  23209653.232    -5030068.604 5  -3919538.63721         9.750           0.344
  22065529.404   -12467692.380 6  -9652772.80721        15.250           1.063
 91  6 17 17 41 14.9980000  0  6G18G 2G11G19G16G 6
  23285630.482    13903801.180 5  10834105.52221        10.250           0.375
  20889932.318   -17431578.424 7 -13508517.08123        24.750           2.906
  22651073.834    -8085802.671 6  -6300612.13421        16.000           1.031
  20847458.357     1494353.314 6   1168286.03822        15.750           1.688
  23211220.123    -5021864.441 5  -3913145.81521        10.000           0.469
  22057704.045   -12508814.466 6  -9684815.94721        15.750           0.938
 91  6 17 17 41 29.9980000  0  6G18G 2G11G19G16G 6
  23294056.326    13948091.914 5  10868617.61421        10.250           0.406
  20883260.631   -17466644.721 7 -13535841.44323        24.500           2.938
  22651663.826    -8082706.477 6  -6298199.51321        16.500           0.938
  20849578.850     1505511.526 6   1176980.74922        16.250           1.844
  23212808.779    -5013528.612 5  -3906650.42921        10.500           0.469
  22049886.225   -12549895.503 6  -9716827.11521        15.500           0.938
 91  6 17 17 41 44.9980000  0  6G18G 2G11G19G16G 6
  23302494.061    13992426.140 5  10903163.59621         9.500           0.469
  20876604.811   -17501622.687 7 -13563096.97023        24.750           2.969
  22652283.795    -8079452.043 6  -6295663.57821        16.250           1.188
  20851715.951     1516738.946 6   1185729.37622        15.250           1.750
  23214410.568    -5005071.258 5  -3900060.31821        10.000           0.375
  22042075.232   -12590945.427 6  -9748814.04321        16.500           0.844
 91  6 17 17 41 59.9980000  0  6G18G 2G11G19G16G 6
  23310944.225    14036798.321 5  10937739.14621        10.000           0.375
  20869958.639   -17536517.472 7 -13590287.67023        24.000           2.875
  22652933.779    -8076044.653 6  -6293008.44921        17.250           0.844
  20853864.764     1528030.442 6   1194527.93122        15.750           1.875
  23216040.740    -4996497.582 5  -3893379.56021         9.750           0.375
  22034269.318   -12631969.333 6  -9780780.69121        16.750           0.969
 91  6 17 17 42 14.9980000  0  6G18G 2G11G19G16G 6
  23319380.701    14081208.754 5  10972344.52621         8.250           0.344
  20863340.186   -17571328.449 7 -13617413.07023        25.000           2.844
  22653613.045    -8072483.650 6  -6290233.62721        17.500           0.938
  20856026.522     1539386.619 6   1203376.90122        15.500           1.875
  23217692.748    -4987807.247 5  -3886607.89221         9.500           0.500
  22026468.045   -12672966.433 6  -9812726.44321        16.750           0.906
 91  6 17 17 42 29.9980000  0  6G18G 2G11G19G16G 6
  23327852.475    14125672.224 5  11006991.21121         9.750           0.406
  20856736.287   -17606040.751 7 -13644461.58623        25.250           2.875
  22654318.873    -8068754.330 6  -6287327.64721        16.000           0.906
  20858201.998     1550822.352 6   1212287.85522        15.750           1.844
  23219379.053    -4978985.762 5  -3879734.03721        10.000           0.406
  22018676.170   -12713921.913 6  -9844639.78421        17.000           0.906
 91  6 17 17 42 44.9980000  0  6G18G 2G11G19G16G 6
  23336323.240    14170181.471 5  11041673.57921        10.250           0.344
  20850143.061   -17640661.103 7 -13671438.45523        24.250           3.031
  22655063.693    -8064863.818 6  -6284296.08621        18.000           0.938
  20860391.295     1562330.618 6   1221255.32522        14.750           1.813
  23221077.334    -4970040.194 5  -3872763.51321         9.250           0.313
  22010885.522   -12754842.665 6  -9876526.04921        16.750           0.938
 91  6 17 17 42 59.9980000  0  6G18G 2G11G19G16G 6
  23344800.982    14214735.857 5  11076391.11921        10.500           0.344
  20843576.162   -17675189.693 7 -13698343.81723        24.250           3.031
  22655830.022    -8060812.359 6  -6281139.09421        15.750           1.000
  20862596.451     1573911.481 6   1230279.36322        16.750           1.813
  23222801.037    -4960971.061 5  -3865696.70821         9.500           0.438
  22003106.764   -12795728.741 6  -9908385.30321        17.250           0.938
 91  6 17 17 43 14.9980000  0  6G18G 2G11G19G16G 6
  23353284.373    14259337.598 5  11111145.57121         9.250           0.344
  20837023.904   -17709624.331 7 -13725175.96823        24.500           3.000
  22656633.897    -8056597.851 6  -6277855.03321        16.750           1.063
  20864817.475     1585567.143 6   1239361.70522        16.500           1.813
  23224550.318    -4951776.666 5  -3858532.24521        10.250           0.344
  21995337.131   -12836577.955 6  -9940215.83221        17.250           1.031
 91  6 17 17 43 29.9980000  0  6G18G 2G11G19G16G 6
  23361784.615    14303977.836 5  11145930.01321         9.250           0.375
  20830486.334   -17743973.497 7 -13751941.51623        25.250           3.031
  22657462.170    -8052228.900 6  -6274450.65021        15.750           1.063
  20867042.256     1597288.977 6   1248495.60222        16.250           1.781
  23226322.357    -4942465.607 5  -3851276.92221         9.750           0.406
  21987568.209   -12877398.777 6  -9972024.23221        17.000           0.938
 91  6 17 17 43 44.9980000  0  6G18G 2G11G19G16G 6
  23370277.990    14348659.943 5  11180747.07121         8.500           0.406
  20823967.787   -17778233.549 7 -13778637.62023        25.000           3.000
  22658323.951    -8047702.009 6  -6270923.20421        16.250           0.781
  20869292.529     1609080.820 6   1257684.06122        16.500           1.750
  23228122.045    -4933034.602 5  -3843928.10721         9.000           0.500
  21979807.006   -12918187.392 6 -10003807.54221        17.000           0.969
 91  6 17 17 43 59.9980000  0  6G18G 2G11G19G16G 6
  23378792.037    14393371.012 5  11215586.71521         9.500           0.375
  20817461.982   -17812417.048 7 -13805274.07723        24.500           3.031
  22659215.217    -8043029.984 6  -6267282.65621        16.500           0.938
  20871544.295     1620930.000 6   1266917.18822        16.000           1.656
  23229939.951    -4923496.183 5  -3836495.59421         9.750           0.344
  21972044.147   -12958956.486 6 -10035575.63921        17.000           0.969
 91  6 17 17 44 14.9980000  0  6G18G 2G11G19G16G 6
  23387306.350    14438117.858 5  11250454.20521         9.000           0.344
  20810974.842   -17846516.828 7 -13831845.29423        24.750           3.031
  22660131.295    -8038205.703 6  -6263523.47221        16.500           1.094
  20873815.561     1632843.727 6   1276200.62622        16.750           1.625
  23231769.381    -4913843.568 5  -3828974.13321         8.750           0.406
  21964292.904   -12999698.763 6 -10067322.84321        16.750           1.000
 91  6 17 17 44 29.9980000  0  6G18G 2G11G19G16G 6
  23395828.615    14482902.141 5  11285350.90821         8.750           0.438
  20804499.115   -17880530.826 7 -13858349.67423        24.750           2.938
  22661080.100    -8033227.243 6  -6259644.15021        16.500           1.094
  20876091.061     1644823.978 6   1285535.89322        16.500           1.531
  23233631.779    -4904074.957 5  -3821362.27021         9.000           0.281
  21956545.084   -13040412.102 6 -10099047.48521        16.000           0.906
 91  6 17 17 44 44.9980000  0  6G18G 2G11G19G16G 6
  23404364.381    14527723.305 5  11320276.30221         9.250           0.344
  20798046.084   -17914459.659 7 -13884787.69223        25.500           2.938
  22662056.670    -8028095.256 6  -6255645.20221        15.250           1.125
  20878386.740     1656870.097 6   1294922.47722        16.750           1.688
  23235504.404    -4894191.091 5  -3813660.59621         8.500           0.406
  21948802.662   -13081097.026 6 -10130750.00321        15.250           0.906
 91  6 17 17 44 59.9980000  0  6G18G 2G11G19G16G 6
  23412891.662    14572582.648 5  11355231.45621         8.250           0.375
  20791601.389   -17948301.698 7 -13911158.07223        25.000           2.938
  22663063.545    -8022808.406 6  -6251525.53921        15.500           1.125
  20880687.584     1668983.733 6   1304361.68222        16.250           1.719
  23237409.967    -4884190.941 5  -3805868.29921         7.750           0.281
  21941067.107   -13121752.028 6 -10162429.18621        16.000           0.938
 91  6 17 17 45 14.9980000  0  6G18G 2G11G19G16G 6
  23421446.553    14617478.949 5  11390215.43021         9.750           0.406
  20785179.389   -17982057.785 7 -13937461.47523        24.750           2.906
  22664097.568    -8017367.621 6  -6247285.97121        16.500           0.875
  20883007.428     1681164.179 6   1313852.92522        15.750           1.688
  23239338.623    -4874075.487 5  -3797986.17021         8.750           0.313
  21933333.662   -13162377.748 6 -10194085.56721        15.750           1.000
 91  6 17 17 45 29.9980000  0  6G18G 2G11G19G16G 6
  23429988.186    14662416.199 5  11425231.27421         9.250           0.313
  20778773.123   -18015723.894 7 -13963694.76423        24.750           2.844
  22665164.131    -8011769.019 6  -6242923.40121        17.250           1.031
  20885339.998     1693415.334 6   1323399.28022        15.750           1.625
  23241282.772    -4863841.063 5  -3790011.32521         8.250           0.375
  21925613.131   -13202970.129 6 -10225715.97321        16.000           0.969
 91  6 17 17 45 44.9980000  0  6G18G 2G11G19G16G 6
  23438549.397    14707383.696 5  11460270.72921        10.000           0.438
  20772382.029   -18049310.091 7 -13989865.80323        25.500           2.906
  22666253.717    -8006023.061 6  -6238446.02321        15.750           0.875
  20887681.545     1705726.858 6   1332992.67822        16.000           1.688
  23243256.568    -4853498.170 5  -3781951.97221         9.250           0.313
  21917890.365   -13243539.323 6 -10257328.31521        16.000           0.875
 91  6 17 17 45 59.9980000  0  6G18G 2G11G19G16G 6
  23447110.131    14752388.320 5  11495339.10421         9.250           0.313
  20766006.803   -18082809.107 7 -14015968.88823        25.500           2.844
  22667379.412    -8000122.430 6  -6233848.10121        16.000           0.969
  20890038.295     1718106.105 6   1342638.84922        15.000           1.719
  23245241.186    -4843039.832 5  -3773802.63421         8.750           0.406
  21910182.209   -13284078.164 6 -10288916.99321        16.750           0.969
 91  6 17 17 46 14.9980000  0  6G18G 2G11G19G16G 6
  23455683.342    14797426.101 5  11530433.30521         9.000           0.406
  20759650.795   -18116224.776 7 -14042007.04223        25.250           2.781
  22668532.748    -7994071.261 6  -6229132.90621        16.500           0.875
  20892404.147     1730549.276 6   1352334.83222        15.500           1.688
  23247252.053    -4832470.001 5  -3765566.39821         8.000           0.344
  21902463.967   -13324590.413 6 -10320484.96021        16.000           0.969
 91  6 17 17 46 29.9980000  0  6G18G 2G11G19G16G 6
  23464259.389    14842499.889 5  11565555.55221         8.750           0.313
  20753303.904   -18149553.798 7 -14067977.66723        25.000           2.781
  22669712.576    -7987866.411 6  -6224297.96421        17.250           0.906
  20894787.397     1743059.660 6   1362083.19122        15.250           1.719
  23249283.748    -4821785.762 5  -3757241.04321         8.000           0.375
  21894759.287   -13365072.622 6 -10352029.52021        15.500           1.031
 91  6 17 17 46 44.9980000  0  6G18G 2G11G19G16G 6
  23472846.920    14887606.630 5  11600703.49921         9.000           0.344
  20746978.795   -18182799.288 7 -14093883.20123        25.000           2.875
  22670919.006    -7981511.026 6  -6219345.71821        16.000           0.938
  20897178.256     1755634.522 6   1371881.78222        16.000           1.750
  23251348.943    -4810990.571 5  -3748829.26421         9.000           0.406
  21887066.209   -13405527.780 6 -10383552.99421        16.000           0.969
 91  6 17 17 46 59.9980000  0  6G18G 2G11G19G16G 6
  23481434.334    14932747.436 5  11635877.96721         9.250           0.313
  20740670.584   -18215959.647 7 -14119722.40723        24.750           2.938
  22672158.123    -7975003.720 6  -6214275.06821        17.000           0.938
  20899580.326     1768275.171 6   1381731.66822        16.750           1.844
  23253419.326    -4800083.124 5  -3740329.97321         8.750           0.375
  21879369.475   -13445954.320 6 -10415054.18321        15.000           0.938
 91  6 17 17 47 14.9980000  0  6G18G 2G11G19G16G 6
  23490036.350    14977921.160 5  11671078.11021         9.750           0.344
  20734374.889   -18249035.897 7 -14145496.06223        23.750           2.750
  22673425.897    -7968345.460 6  -6209086.80221        17.250           0.969
  20901999.498     1780980.807 6   1391632.17022        15.500           1.625
  23255518.326    -4789064.285 5  -3731743.89521         9.000           0.281
  21871684.186   -13486353.067 6 -10446533.70421        15.500           0.938
 91  6 17 17 47 29.9980000  0  6G18G 2G11G19G16G 6
  23498632.342    15023125.068 5  11706301.75021         9.750           0.313
  20728097.818   -18282030.063 7 -14171205.76123        24.250           2.688
  22674719.428    -7961538.679 6  -6203782.81721        15.750           0.813
  20904429.850     1793749.066 6   1401581.46922        16.000           1.625
  23257631.240    -4777936.600 5  -3723072.97221         8.250           0.313
  21864004.920   -13526726.342 6 -10477993.37321        16.000           0.969
 91  6 17 17 47 44.9980000  0  6G18G 2G11G19G16G 6
  23507239.631    15068356.688 5  11741547.01321        10.250           0.313
  20721831.639   -18314944.658 7 -14196853.46623        23.250           2.781
  22676046.826    -7954586.042 6  -6198365.19321        17.000           0.875
  20906871.170     1806577.638 6   1411577.76522        16.000           1.656
  23259775.318    -4766702.793 5  -3714319.41121         9.750           0.375
  21856325.834   -13567076.327 6 -10509434.89121        15.750           1.000
 91  6 17 17 47 59.9980000  0  6G18G 2G11G19G16G 6
  23515856.967    15113625.366 5  11776821.16121        10.000           0.375
  20715584.561   -18347769.817 7 -14222431.47423        23.000           2.875
  22677400.193    -7947477.822 6  -6192826.30821        17.000           1.000
  20909328.920     1819476.219 6   1421628.60622        15.750           1.625
  23261936.881    -4755353.463 5  -3705475.79221         9.250           0.250
  21848651.647   -13607393.249 6 -10540850.65521        15.750           1.063
 91  6 17 17 48 14.9980000  0  6G18G 2G11G19G16G 6
  23524479.662    15158927.075 5  11812120.99821        10.000           0.375
  20709359.967   -18380509.451 7 -14247942.84423        23.750           2.750
  22678777.053    -7940218.133 6  -6187169.40621        15.250           0.906
  20911797.467     1832440.994 6   1431731.04022        16.250           1.750
  23264112.311    -4743893.090 5  -3696545.66721         9.000           0.469
  21840984.709   -13647681.005 6 -10572243.69221        15.750           0.938
 91  6 17 17 48 29.9980000  0  6G18G 2G11G19G16G 6
  23533106.928    15204263.261 5  11847447.72021        10.250           0.313
  20703141.639   -18413161.888 7 -14273386.26023        23.000           2.781
  22680188.615    -7932805.486 6  -6181393.31421        15.750           0.906
  20914275.006     1845473.552 6   1441886.27322        15.000           1.625
  23266311.990    -4732320.189 5  -3687527.85921         7.750           0.469
  21833326.568   -13687937.864 6 -10603612.65321        16.750           1.094
 91  6 17 17 48 44.9980000  0  6G18G 2G11G19G16G 6
  23541731.764    15249624.505 5  11882793.95421         9.250           0.313
  20696945.475   -18445736.404 7 -14298768.95623        24.000           2.781
  22681626.342    -7925249.165 6  -6175505.26021        15.250           0.906
  20916762.272     1858564.576 6   1452087.08022        15.500           1.656
  23268533.318    -4720644.295 5  -3678429.74921         7.750           0.406
  21825667.615   -13728172.884 6 -10634964.58521        16.750           1.031
 91  6 17 17 48 59.9980000  0  6G18G 2G11G19G16G 6
  23550382.232    15295013.471 5  11918161.79621         9.750           0.281
  20690762.295   -18478229.984 7 -14324088.58723        24.250           2.844
  22683089.951    -7917546.323 6  -6169503.04221        15.500           1.000
  20919263.889     1871717.376 6   1462336.00922        15.000           1.688
  23270771.053    -4708862.640 5  -3669249.28021         8.000           0.313
  21818017.084   -13768383.097 6 -10666297.19121        17.000           1.000
 91  6 17 17 49 14.9980000  0  6G18G 2G11G19G16G 6
  23559011.342    15340427.773 5  11953549.40121         8.250           0.250
  20684591.647   -18510644.458 7 -14349346.58123        23.750           2.813
  22684586.920    -7909699.183 6  -6163388.34921        15.000           1.000
  20921781.154     1884929.929 6   1472631.51622        15.500           1.656
  23273046.404    -4696977.336 5  -3659988.03421         8.250           0.313
  21810369.373   -13808570.334 6 -10697611.89321        17.500           1.094
 91  6 17 17 49 29.9980000  0  6G18G 2G11G19G16G 6
  23567662.506    15385878.171 5  11988965.12121         8.000           0.250
  20678441.287   -18542968.783 7 -14374534.33423        23.250           2.875
  22686106.990    -7901696.730 6  -6157152.67721        15.250           1.031
  20924307.740     1898213.421 6   1482982.28422        16.250           1.594
  23275326.436    -4684977.532 5  -3650637.55321         8.000           0.469
  21802728.959   -13848723.531 6 -10728900.07021        17.750           1.156
 91  6 17 17 49 44.9980000  0  6G18G 2G11G19G16G 6
  23576320.131    15431366.246 5  12024410.20021         9.000           0.250
  20672305.467   -18575201.143 7 -14399650.42323        22.750           3.031
  22687660.482    -7893537.388 6  -6150794.72921        15.250           1.063
  20926850.014     1911569.370 6   1493389.50322        15.500           1.625
  23277625.092    -4672862.179 5  -3641197.03521         8.250           0.406
  21795099.857   -13888840.896 6 -10760160.34121        18.250           1.156
 91  6 17 17 49 59.9980000  0  6G18G 2G11G19G16G 6
  23584976.811    15476879.223 5  12059874.69721         8.000           0.344
  20666189.272   -18607354.006 7 -14424704.56423        23.500           2.938
  22689240.225    -7885233.784 6  -6144324.38021        14.750           1.094
  20929400.436     1924985.346 6   1503843.49722        16.000           1.563
  23279953.318    -4660643.746 5  -3631676.22021         8.750           0.438
  21787465.490   -13928934.688 6 -10791402.23321        17.750           1.094
 91  6 17 17 50 14.9980000  0  6G18G 2G11G19G16G 6
  23593639.936    15522413.918 5  12095356.07421         8.000           0.344
  20660085.318   -18639430.375 7 -14449699.09423        24.000           2.969
  22690850.514    -7876789.190 6  -6137744.17821        15.750           0.969
  20931967.936     1938458.333 6   1514341.92722        16.250           1.531
  23282294.701    -4648325.516 5  -3622077.59621         8.250           0.344
  21779838.475   -13969007.972 6 -10822628.14821        16.750           1.125
 91  6 17 17 50 29.9980000  0  6G18G 2G11G19G16G 6
  23602317.873    15567977.611 5  12130860.06621         9.000           0.375
  20653991.772   -18671422.690 7 -14474628.13623        22.750           3.000
  22692484.678    -7868196.067 6  -6131048.23121        16.250           1.063
  20934547.318     1951996.023 6   1524890.78921        15.750           1.438
  23284660.904    -4635900.116 5  -3612395.51321         8.000           0.375
  21772217.717   -14009052.983 6 -10853832.04321        16.500           1.125
 91  6 17 17 50 44.9980000  0  6G18G 2G11G19G16G 6
  23610996.803    15613571.408 5  12166387.51421         8.250           0.344
  20647925.623   -18703329.292 7 -14499490.38323        23.500           2.844
  22694149.139    -7859453.059 6  -6124235.49721        15.750           0.969
  20937133.928     1965600.091 6   1535491.36222        16.000           1.531
  23287043.975    -4623366.238 5  -3602628.88221         9.000           0.438
  21764606.451   -14049068.168 6 -10885012.67721        17.000           1.031
 91  6 17 17 50 59.9980000  0  6G18G 2G11G19G16G 6
  23619672.537    15659189.181 5  12201933.63421         8.000           0.438
  20641868.131   -18735156.179 7 -14524290.51623        23.750           2.844
  22695836.545    -7850566.220 6  -6117310.66921        15.500           1.031
  20939731.615     1979264.545 6   1546138.98121        16.000           1.469
  23289448.842    -4610730.138 5  -3592782.58221         8.250           0.438
  21756997.217   -14089059.470 6 -10916174.70721        17.250           1.094
 91  6 17 17 51 14.9980000  0  6G18G 2G11G19G16G 6
  23628359.279    15704832.237 5  12237499.48121         8.000           0.313
  20635828.420   -18766901.998 7 -14549027.48023        24.000           2.938
  22697558.115    -7841534.104 6  -6110272.65721        16.750           1.125
  20942343.787     1992990.924 6   1556834.86122        16.000           1.563
  23291875.943    -4597990.717 5  -3582855.76121         8.750           0.406
  21749388.537   -14129025.061 6 -10947316.69921        16.500           1.063
 91  6 17 17 51 29.9980000  0  6G18G 2G11G19G16G 6
  23637052.357    15750502.300 5  12273086.34721         8.000           0.313
  20629805.076   -18798564.619 7 -14573699.62223        24.000           2.875
  22699306.897    -7832355.076 6  -6103120.15321        17.000           1.031
  20944972.787     2006780.963 6   1567580.35222        16.000           1.656
  23294319.936    -4585146.281 5  -3572847.13521         8.750           0.344
  21741793.529   -14168963.193 6 -10978437.30521        17.250           1.094
 91  6 17 17 51 44.9980000  0  6G18G 2G11G19G16G 6
  23645749.225    15796200.448 5  12308695.11421         9.000           0.344
  20623794.186   -18830142.801 7 -14598305.96823        24.750           2.938
  22701081.397    -7823028.148 6  -6095852.41521        16.000           0.875
  20947607.889     2020636.098 6   1578376.55722        16.500           1.531
  23296783.498    -4572195.967 5  -3562756.00821         8.000           0.375
  21734196.311   -14208872.506 6 -11009535.44821        17.250           1.094
 91  6 17 17 51 59.9980000  0  6G18G 2G11G19G16G 6
  23654451.904    15841923.036 5  12344322.92221         8.500           0.344
  20617801.318   -18861639.805 7 -14622849.04823        25.250           3.000
  22702881.670    -7813556.535 6  -6088471.93721        15.750           0.875
  20950254.232     2034553.186 6   1589221.05621        15.500           1.469
  23299268.061    -4559143.131 5  -3552585.01421         8.000           0.375
  21726604.779   -14248756.015 6 -11040613.48221        17.500           1.125
 91  6 17 17 52 14.9980000  0  6G18G 2G11G19G16G 6
  23663147.709    15887672.911 5  12379971.98821         7.750           0.250
  20611819.592   -18893052.488 7 -14647326.42923        24.000           2.969
  22704714.709    -7803937.406 6  -6080976.49621        16.500           0.906
  20952917.232     2048535.194 6   1600116.11922        15.750           1.625
  23301775.756    -4545985.229 5  -3542332.09421         7.750           0.344
  21719026.818   -14288610.705 6 -11071669.06821        18.250           1.094
 91  6 17 17 52 29.9980000  0  6G18G 2G11G19G16G 6
  23671859.248    15933444.987 5  12415638.33721         8.000           0.281
  20605860.264   -18924385.641 7 -14671741.85123        24.250           2.969
  22706570.576    -7794175.881 6  -6073370.11521        15.000           0.938
  20955588.522     2062577.214 6   1611057.95822        16.000           1.500
  23304296.381    -4532727.327 5  -3532001.29621         8.750           0.313
  21711441.842   -14328441.393 6 -11102705.95221        17.500           0.969
 91  6 17 17 52 44.9980000  0  6G18G 2G11G19G16G 6
  23680583.318    15979241.633 5  12451323.85021         8.500           0.313
  20599911.311   -18955636.314 7 -14696092.99323        24.250           3.031
  22708456.123    -7784269.021 6  -6065650.50221        15.500           1.000
  20958272.631     2076682.334 6   1622048.96622        16.250           1.719
  23306834.365    -4519366.498 5  -3521590.26021         8.000           0.281
  21703869.576   -14368245.000 6 -11133721.72721        17.750           1.094
 91  6 17 17 52 59.9980000  0  6G18G 2G11G19G16G 6
  23689294.631    16025061.365 5  12487027.33721         7.500           0.375
  20593980.178   -18986805.896 7 -14720380.94523        24.500           3.063
  22710369.522    -7774218.484 6  -6057818.90221        16.750           0.906
  20960966.334     2090849.096 6   1633087.99322        15.500           1.656
  23309398.818    -4505904.725 5  -3511100.59121         9.500           0.344
  21696297.490   -14408022.791 6 -11164717.39821        17.250           1.063
 91  6 17 17 53 14.9980000  0  6G18G 2G11G19G16G 6
  23698015.998    16070901.129 5  12522746.44421         8.000           0.250
  20588066.928   -19017897.198 7 -14744607.90023        25.250           3.125
  22712305.818    -7764027.212 6  -6049877.63821        15.250           1.094
  20963677.014     2105074.835 6   1644172.96822        15.750           1.563
  23311978.365    -4492344.898 5  -3500534.51421         8.750           0.344
  21688732.943   -14447777.487 6 -11195695.06321        17.500           1.031
 91  6 17 17 53 29.9980000  0  6G18G 2G11G19G16G 6
  23706746.154    16116765.215 5  12558484.51621         8.500           0.156
  20582162.217   -19048905.759 7 -14768770.39123        25.500           3.031
  22714273.709    -7753690.937 6  -6041823.39821        14.250           0.844
  20966396.600     2119363.923 6   1655307.33321        15.750           1.469
  23314582.287    -4478682.745 5  -3489888.71221         9.000           0.281
  21681172.303   -14487504.555 6 -11226651.20621        17.000           1.031
 91  6 17 17 53 44.9980000  0  6G18G 2G11G19G16G 6
  23715481.006    16162651.224 5  12594239.66821         8.500           0.344
  20576277.443   -19079833.607 7 -14792869.98523        25.250           2.969
  22716267.264    -7743212.026 6  -6033657.99321        16.000           0.844
  20969125.545     2133714.243 6   1666489.40022        15.250           1.500
  23317191.881    -4464921.171 5  -3479165.39721         7.750           0.313
  21673618.154   -14527206.000 6 -11257587.37621        17.000           1.063
 91  6 17 17 53 59.9980000  0  6G18G 2G11G19G16G 6
  23724224.732    16208561.188 5  12630013.45421         8.750           0.313
  20570411.272   -19110678.550 7 -14816904.97923        25.750           3.063
  22718289.936    -7732588.237 6  -6025379.72421        16.250           0.781
  20971868.115     2148128.210 6   1677721.04722        16.000           1.656
  23319835.170    -4451057.891 5  -3468362.87621         8.250           0.250
  21666066.107   -14566879.484 6 -11288501.76721        16.000           1.094
 91  6 17 17 54 14.9980000  0  6G18G 2G11G19G16G 6
  23732963.857    16254495.822 5  12665806.45621         8.000           0.281
  20564558.857   -19141439.337 7 -14840874.39823        26.500           3.000
  22720341.803    -7721818.663 6  -6016987.84221        15.750           0.844
  20974624.897     2162606.808 6   1689003.06822        15.750           1.688
  23322496.147    -4437091.981 5  -3457480.38521         9.000           0.281
  21658523.943   -14606523.822 6 -11319393.43321        15.750           1.125
 91  6 17 17 54 29.9980000  0  6G18G 2G11G19G16G 6
  23741700.631    16300450.069 5  12701614.75821         7.750           0.219
  20558716.451   -19172120.924 7 -14864782.10523        26.500           2.938
  22722415.670    -7710908.488 6  -6008486.41121        15.250           0.781
  20977389.678     2177145.115 6   1700331.61422        15.750           1.813
  23325166.451    -4423028.898 5  -3446522.14821         8.500           0.313
  21650981.857   -14646143.925 6 -11350266.22021        15.750           1.188
 91  6 17 17 54 44.9980000  0  6G18G 2G11G19G16G 6
  23750455.857    16346427.246 5  12737440.95521         9.000           0.281
  20552893.951   -19202719.768 7 -14888625.33323        26.750           3.031
  22724515.889    -7699854.222 6  -5999872.68821        14.250           0.844
  20980165.897     2191746.899 6   1711709.60722        15.500           1.688
  23327866.584    -4408865.128 5  -3435485.50621         8.000           0.375
  21643451.053   -14685736.044 6 -11381117.19621        16.500           1.219
 91  6 17 17 54 59.9980000  0  6G18G 2G11G19G16G 6
  23759205.951    16392428.022 5  12773285.54321         8.000           0.344
  20547088.404   -19233234.662 7 -14912403.14623        25.750           3.000
  22726654.100    -7688654.894 6  -5991145.93921        16.000           0.844
  20982956.600     2206413.385 6   1723138.02622        16.250           1.563
  23330576.772    -4394599.879 5  -3424369.72821         7.750           0.406
  21635924.397   -14725298.946 6 -11411945.41521        17.000           1.188
 91  6 17 17 55 14.9980000  0  6G18G 2G11G19G16G 6
  23767956.420    16438450.223 5  12809146.78521         7.500           0.250
  20541292.936   -19263668.052 7 -14936117.45623        25.500           3.000
  22728806.389    -7677312.994 6  -5982308.09321        15.000           0.781
  20985765.522     2221142.106 6   1734614.96421        16.250           1.406
  23333311.514    -4380235.799 5  -3413176.97821         8.000           0.406
  21628394.014   -14764834.795 6 -11442752.54721        16.250           1.219
 91  6 17 17 55 29.9980000  0  6G18G 2G11G19G16G 6
  23776725.787    16484494.319 5  12845025.09521         7.500           0.281
  20535522.287   -19294018.890 7 -14959767.43323        26.000           2.969
  22730994.365    -7665827.915 6  -5973358.67221        15.000           0.719
  20988575.240     2235934.131 6   1746141.21622        16.250           1.594
  23336060.787    -4365772.405 5  -3401906.82621         8.500           0.344
  21620877.498   -14804342.619 6 -11473537.85121        16.750           1.313
 91  6 17 17 55 44.9980000  0  6G18G 2G11G19G16G 6
  23785487.357    16530561.099 4  12880921.10721         7.250           0.313
  20529762.006   -19324285.958 7 -14983352.13523        25.750           2.969
  22733208.248    -7654198.459 6  -5964296.76121        15.500           0.875
  20991402.178     2250790.690 6   1757717.74122        16.000           1.625
  23338841.787    -4351208.528 5  -3390558.36521         8.250           0.219
  21613364.857   -14843821.302 6 -11504300.44221        16.500           1.094
 91  6 17 17 55 59.9980000  0  6G18G 2G11G19G16G 6
  23794267.498    16576644.896 5  12916830.34621         8.250           0.219
  20524015.318   -19354474.729 7 -15006875.82723        25.750           3.094
  22735443.412    -7642430.352 6  -5955126.81421        15.250           0.563
  20994243.428     2265706.235 6   1769340.23922        16.000           1.625
  23341629.529    -4336549.841 5  -3379136.05521         8.750           0.281
  21605855.029   -14883276.156 6 -11535044.46721        16.250           1.094
 91  6 17 17 56 14.9980000  0  6G18G 2G11G19G16G 6
  23803037.764    16622747.888 5  12952754.53221         7.750           0.281
  20518290.779   -19384582.519 7 -15030336.41923        26.500           3.156
  22737713.412    -7630521.202 6  -5945846.94521        16.500           0.625
  20997092.678     2280683.330 6   1781010.69622        15.250           1.844
  23344426.209    -4321794.445 5  -3367638.39521         8.500           0.313
  21598353.436   -14922704.460 6 -11565767.80621        16.750           1.188
 91  6 17 17 56 29.9980000  0  6G18G 2G11G19G16G 6
  23811812.592    16668869.858 5  12988693.53421         7.750           0.219
  20512573.381   -19414609.685 7 -15053734.18323        25.750           2.969
  22740003.272    -7618471.452 6  -5936457.52021        14.250           0.781
  20999950.139     2295721.755 6   1792728.93222        15.250           1.781
  23347256.240    -4306942.861 5  -3356065.74521         8.750           0.313
  21590858.662   -14962106.418 6 -11596470.62421        18.250           1.313
 91  6 17 17 56 44.9980000  0  6G18G 2G11G19G16G 6
  23820595.561    16715008.966 5  13024645.89521         8.000           0.375
  20506875.443   -19444557.742 7 -15077070.30623        25.750           3.063
  22742325.272    -7606282.799 6  -5926959.87321        16.250           0.875
  21002826.373     2310820.114 6   1804493.87222        15.500           1.750
  23350103.373    -4291996.906 5  -3344419.56021         8.000           0.219
  21583365.389   -15001483.440 6 -11627154.00221        17.750           1.313
 91  6 17 17 56 59.9980000  0  6G18G 2G11G19G16G 6
  23829375.553    16761162.140 5  13060609.23821         7.500           0.219
  20501187.654   -19474429.161 7 -15100346.71923        25.000           3.031
  22744670.186    -7593958.044 6  -5917356.15121        15.250           0.875
  21005711.045     2325975.805 6   1816303.49022        15.750           1.656
  23352962.553    -4276959.144 5  -3332701.87121         8.500           0.344
  21575877.772   -15040837.976 6 -11657819.86321        18.000           1.219
 91  6 17 17 57 14.9980000  0  6G18G 2G11G19G16G 6
  23838165.350    16807340.997 5  13096592.57021         8.000           0.250
  20495518.607   -19504212.280 7 -15123554.32423        25.000           2.875
  22747041.459    -7581485.701 6  -5907637.44721        15.000           0.813
  21008606.193     2341200.499 6                        15.500
  23355854.381    -4261818.181 5                         8.750
  21568396.068   -15080158.265 6 -11688459.03221        18.000           1.156
 91  6 17 17 57 29.9980000  0  6G18G 2G11G19G16G 6
  23846960.787    16853540.978 5  13132592.35821         7.750           0.281
  20489872.693   -19533911.500 7 -15146696.54623        26.000           2.938
  22749443.975    -7568870.200 6  -5897807.16521        15.000           0.781
  21011516.467     2356489.873 6                        15.750
  23358746.592    -4246578.873 5                         8.750
  21560914.428   -15119448.581 6 -11719074.85221        17.250           1.250
 91  6 17 17 57 44.9980000  0  6G18G 2G11G19G16G 6
  23855749.217    16899758.890 5  13168606.08721         7.750           0.125
  20484236.311   -19563529.586 7 -15169775.55323        26.500           3.000
  22751868.670    -7556114.671 6  -5887867.79521        13.000           0.813
  21014436.170     2371840.981 6                        15.500
  23361665.928    -4231244.714 5                         8.750
  21553445.154   -15158711.709 6 -11749669.48521        17.500           1.125
 91  6 17 17 57 59.9980000  0  6G18G 2G11G19G16G 6
  23864550.709    16945993.931 5  13204633.21821         7.500           0.250
  20478614.209   -19593066.868 7 -15192791.59823        26.250           3.000
  22754323.795    -7543219.750 6  -5877819.79921        15.000           0.938
  21017370.889     2387253.577 6                        14.750
  23364596.787    -4215815.917 5                         8.500
  21545980.451   -15197947.927 6 -11780243.14021        17.250           1.125
 91  6 17 17 58 14.9980000  0  6G18G 2G11G19G16G 6
  23873347.756    16992242.269 4  13240670.64921         7.000           0.219
  20473008.537   -19622527.009 7 -15215747.53623        26.250           3.063
  22756806.076    -7530189.256 6  -5867666.15721        16.250           0.719
  21020316.951     2402724.016 6                        15.500
  23367558.662    -4200296.420 5                         9.000
  21538515.318   -15237160.750 6 -11810798.56421        16.500           1.250
 91  6 17 17 58 29.9980000  0  6G18G 2G11G19G16G 6
  23882162.381    17038507.879 4  13276721.56221         6.750           0.219
  20467415.311   -19651905.889 7 -15238640.15723        25.250           3.063
  22759311.545    -7517019.216 6  -5857403.77121        17.000           0.938
  21023276.772     2418256.333 6   1888210.31222        15.250           1.625
  23370525.272    -4184682.571 5                         9.250
  21531060.420   -15276346.045 6 -11841332.54421        17.000           1.281
 91  6 17 17 58 44.9980000  0  6G18G 2G11G19G16G 6
  23890957.912    17084790.133 4  13312785.45221         7.250           0.281
  20461842.928   -19681203.838 7 -15261469.71123        25.750           3.031
  22761846.303    -7503710.137 6  -5847033.04621        16.000           0.813
  21026237.115     2433850.216 6   1900361.37222        15.000           1.656
  23373510.842    -4168974.714 5  -3302549.34921         8.000           0.281
  21523608.428   -15315503.898 6 -11871845.14521        18.000           1.344
 91  6 17 17 58 59.9980000  0  5G 2G11G19G16G 6
  20456283.928   -19710418.460 7 -15284234.33323        25.250           3.063
  22764403.225    -7490259.838 6  -5836552.31521        16.250           1.000
  21029216.615     2449508.266 6   1912562.43622        14.000           1.656
  23376529.686    -4153171.056 5  -3290234.85221         9.000           0.375
  21516166.365   -15354631.811 6 -11902334.41021        19.250           1.313
 91  6 17 17 59 14.9980000  0  5G 2G11G19G16G 6
  20450738.811   -19739553.792 7 -15306937.16923        25.000           3.094
  22766988.959    -7476672.515 6  -5825964.76821        15.500           0.781
  21032208.654     2465226.459 6   1924810.36422        14.500           1.625
  23379544.522    -4137275.889 5  -3277849.02521         7.500           0.344
  21508728.139   -15393733.717 7 -11932803.41621        20.000           1.188
 91  6 17 17 59 29.9980000  0  5G 2G11G19G16G 6
  20445210.998   -19768607.663 7 -15329576.53523        24.750           3.031
  22769601.459    -7462946.273 6  -5815269.00021        15.250           0.781
  21035209.092     2481006.969 6   1937106.86322        15.750           1.531
  23382586.522    -4121287.315 4  -3265390.45621         7.250           0.250
  21501287.787   -15432807.471 6 -11963250.48221        19.000           1.188
 91  6 17 17 59 44.9980000  0  5G 2G11G19G16G 6
  20439695.811   -19797580.478 7 -15352152.73523        24.750           3.156
  22772240.607    -7449081.606 6  -5804465.37521        17.250           0.719
  21038226.193     2496849.484 6   1949451.67322        14.750           1.625
  23385646.037    -4105205.940 5  -3252859.53521         7.500           0.281
  21493858.436   -15471853.380 6 -11993675.85721        18.750           1.156
 91  6 17 17 59 59.9980000  0  5G 2G11G19G16G 6
  20434201.420   -19826471.715 7 -15374665.37023        26.000           2.938
  22774901.553    -7435078.359 6  -5793553.73521        14.750           0.844
  21041248.873     2512754.254 6   1961844.98422        14.750           1.688
  23388735.826    -4089031.816 5  -3240256.33121         8.750           0.344
  21486431.639   -15510870.859 6 -12024079.06721        18.500           1.313
 91  6 17 18  0 14.9980000  0  5G 2G11G19G16G 6
  20428715.553   -19855282.522 7 -15397115.33723        25.500           2.875
  22777593.467    -7420937.927 6  -5782535.23621        15.750           0.875
  21044291.936     2528720.199 6   1974285.96522        14.750           1.688
  23391826.498    -4072766.597 5  -3227582.24321         8.500           0.250
  21479011.623   -15549861.000 6 -12054460.99521        18.250           1.281
 91  6 17 18  0 29.9980000  0  5G 2G11G19G16G 6
  20423248.178   -19884012.264 7 -15419502.13423        25.000           2.875
  22780313.482    -7406659.795 6  -5771409.42921        17.000           1.000
  21047343.850     2544747.901 6   1986775.08322        15.500           1.563
  23394936.170    -4056409.600 4                         7.250
  21471598.912   -15588823.073 6 -12084821.04921        18.250           1.219
 91  6 17 18  0 44.9980000  0  5G 2G11G19G16G 6
  20417797.248   -19912660.986 7 -15441825.80723        24.250           2.969
  22783056.311    -7392244.231 6  -5760176.50721        15.500           0.875
  21050407.170     2560837.626 6   1999312.51922        15.250           1.531
  23398059.772    -4039961.257 5                         8.750
  21464190.811   -15627756.802 6 -12115159.02121        19.250           1.281
 91  6 17 18  0 59.9980000  0  5G 2G11G19G16G 6
  20412358.147   -19941227.958 7 -15464085.77223        23.750           2.938
  22785824.178    -7377690.833 6  -5748836.20121        16.250           0.844
  21053476.607     2576989.908 6   2011898.69422        14.500           1.594
  23401212.748    -4023421.376 5                         7.750
  21456785.154   -15666661.734 6 -12145474.54521        18.250           1.250
 91  6 17 18  1 14.9980000  0  5G 2G11G19G16G 6
  20406937.068   -19969716.418 7 -15486284.55523        23.500           3.125
  22788622.803    -7363002.796 6  -5737390.96621        17.250           0.781
  21056561.373     2593201.788 6   2024531.33722        15.500           1.531
  23404385.139    -4006793.065 5        -0.36231         8.000           0.188
  21449389.686   -15705540.649 6 -12175769.79521        18.250           1.313
 91  6 17 18  1 29.9980000  0  5G 2G11G19G16G 6
  20401532.311   -19998122.046 7 -15508418.79523        24.500           3.031
  22791440.139    -7348176.154 6  -5725837.74721        14.750           0.813
  21059660.967     2609477.256 6   2037213.51522        16.250           1.500
  23407560.022    -3990072.381 5     13028.67621         8.000           0.281
  21441995.592   -15744389.460 6 -12206041.58521        19.000           1.250
 91  6 17 18  1 44.9980000  0  5G 2G11G19G16G 6
  20396143.264   -20026447.567 7 -15530490.61823        24.500           3.031
  22794287.225    -7333213.914 6  -5714178.84021        14.750           0.938
  21062768.053     2625813.696 6   2049943.20422        14.750           1.500
  23410756.365    -3973262.534 4     26127.24421         7.250           0.438
  21434608.209   -15783210.484 6 -12236291.72521        19.750           1.344
 91  6 17 18  1 59.9980000  0  5G 2G11G19G16G 6
  20390769.873   -20054697.040 7 -15552503.18923        24.750           2.938
  22797158.592    -7318120.336 6  -5702417.63821        15.250           0.719
  21065886.693     2642206.988 6   2062717.17422        15.500           1.500
  23413971.209    -3956368.127 5     39291.68221         8.250           0.250
  21427224.397   -15822007.836 6 -12266523.41421        19.250           1.375
 91  6 17 18  2 14.9980000  0  5G 2G11G19G16G 6
  20385406.475   -20082867.796 7 -15574454.41823        24.250           2.906
  22800058.990    -7302892.948 6  -5690552.12321        17.250           0.969
  21069021.529     2658659.899 6   2075537.61722        14.750           1.563
  23417201.748    -3939386.658 5     52523.96021         8.000           0.375
  21419846.545   -15860778.800 6 -12296734.54621        18.750           1.344
 91  6 17 18  2 29.9980000  0  5G 2G11G19G16G 6
  20380059.107   -20110960.874 7 -15596345.12023        24.750           2.906
  22802978.545    -7287532.952 6  -5678583.29121        13.500           0.844
  21072159.428     2675171.500 6   2088403.79821        15.250           1.438
  23420461.045    -3922319.394 5     65823.07321         8.500           0.344
  21412470.568   -15899524.184 6 -12326925.74521        19.000           1.438
 91  6 17 18  2 44.9980000  0  5G 2G11G19G16G 6
  20374731.232   -20138969.655 7 -15618170.13723        24.250           2.750
  22805930.490    -7272034.094 6  -5666506.29221        16.000           0.688
  21075315.576     2691748.150 6   2101320.66421        13.750           1.438
  23423720.201    -3905160.231 5     79193.83121         7.750           0.281
  21405108.584   -15938237.456 7 -12357091.91921        20.250           1.375
 91  6 17 18  2 59.9980000  0  5G 2G11G19G16G 6
  20369414.232   -20166894.342 7 -15639929.62123        24.000           2.844
  22808903.811    -7256396.589 6  -5654321.20521        16.250           0.656
  21078484.725     2708389.881 6   2114288.23021        13.500           1.469
  23426989.959    -3887909.412 4     92635.95021         6.500           0.375
  21397747.639   -15976918.557 6 -12387233.02522        19.750           1.500
 91  6 17 18  3 14.9980000  0  5G 2G11G19G16G 6
  20364119.584   -20194731.581 7 -15661620.97123        24.000           2.750
  22811913.482    -7240617.360 6  -5642025.70721        16.750           0.844
  21081661.357     2725100.057 6   2127309.14221        14.250           1.406
  23430300.295    -3870564.032 4    106151.81221         6.250           0.344
  21390389.951   -16015564.026 7 -12417346.36521        20.000           1.438
 91  6 17 18  3 29.9980000  0  5G 2G11G19G16G 6
  20358838.740   -20222487.687 7 -15683249.09223        24.500           2.969
  22814936.576    -7224702.954 6  -5629624.90021        15.750           0.844
  21084851.693     2741872.353 6   2140378.45121        14.500           1.375
  23433615.561    -3853130.648 4    119736.20421         6.250           0.313
  21383042.732   -16054180.224 6 -12447436.90322        19.750           1.594
 91  6 17 18  3 44.9980000  0  5G 2G11G19G16G 6
  20353573.732   -20250162.058 7 -15704813.52423        24.500           2.875
  22817993.670    -7208653.046 6  -5617118.44821        16.500           0.781
  21088057.928     2758707.328 6   2153496.61321        14.750           1.344
  23436950.061    -3835609.004 4    133389.40521         6.750           0.406
  21375700.897   -16092766.382 6 -12477504.03021        19.750           1.469
 91  6 17 18  3 59.9980000  0  5G 2G11G19G16G 6
  20348317.209   -20277761.494 7 -15726319.56123        24.250           3.000
  22821071.311    -7192474.679 6  -5604511.95421        15.250           0.750
  21091271.100     2775598.295 6   2166658.40722        14.750           1.531
  23440315.420    -3818006.182 5    147105.88421         7.500           0.219
  21368360.701   -16131329.180 6 -12507552.94522        19.500           1.500
 91  6 17 18  4 14.9980000  0  5G 2G11G19G16G 6
  20343083.787   -20305284.441 7 -15747766.00323        24.000           2.938
  22824175.264    -7176166.540 6  -5591804.31721        16.500           0.813
  21094496.756     2792546.995 6   2179865.16521        14.750           1.438
  23443664.670    -3800321.015 4    160886.46221         7.000           0.250
  21361034.373   -16169866.904 7 -12537582.32821        20.250           1.281
 91  6 17 18  4 29.9980000  0  5G 2G11G19G16G 6
  20337859.107   -20332730.346 7 -15769152.41223        25.000           2.906
  22827299.748    -7159728.136 6  -5578995.16521        16.000           0.625
  21097733.686     2809553.797 6   2193117.21421        15.500           1.375
  23447028.982    -3782553.315 3    174731.36921         6.000           0.219
  21353702.787   -16208378.815 6 -12567591.60521        19.500           1.188
 91  6 17 18  4 44.9980000  0  5G 2G11G19G16G 6
  20332650.795   -20360094.590 7 -15790475.18623        24.500           2.875
  22830454.561    -7143155.295 6  -5566081.27721        15.000           0.750
  21100980.225     2826623.201 6   2206418.04221        15.250           1.469
  23450443.904    -3764698.974 4    188643.83021         7.250           0.281
  21346380.811   -16246860.437 7 -12597577.28021        20.000           1.250
 91  6 17 18  4 59.9980000  0  5G 2G11G19G16G 6
  20327460.436   -20387377.876 7 -15811734.88123        25.000           2.750
  22833636.217    -7126448.939 6  -5553063.34521        14.500           0.656
  21104238.232     2843754.563 6   2219767.15221        15.250           1.375
  23453863.365    -3746758.694 5    202623.19321         8.000           0.281
  21339055.592   -16285312.263 6 -12627539.73121        19.000           1.219
 91  6 17 18  5 14.9980000  0  5G 2G11G19G16G 6
  20322287.107   -20414576.772 7 -15832928.81323        24.750           2.813
  22836840.334    -7109605.951 6  -5539938.94121        16.750           0.750
  21107512.662     2860951.240 6   2233167.13021        14.500           1.281
  23457295.662    -3728729.535 5    216671.88521         8.250           0.313
  21331744.600   -16323730.857 6 -12657476.29521        18.250           1.313
 91  6 17 18  5 29.9980000  0  5G 2G11G19G16G 6
  20317125.592   -20441696.057 7 -15854060.71423        25.250           2.844
  22840069.678    -7092631.049 6  -5526711.72221        15.750           0.688
  21110792.928     2878208.536 6   2246614.36521        15.000           1.438
  23460730.936    -3710616.458 4    230785.93521         7.250           0.313
  21324445.076   -16362120.754 6 -12687390.49521        19.000           1.375
 91  6 17 18  5 44.9980000  0  5G 2G11G19G16G 6
  20311975.725   -20468733.467 7 -15875128.81523        24.250           2.844
  22843324.350    -7075522.364 6  -5513380.30221        15.500           0.688
  21114094.647     2895528.813 6   2260110.68221        15.000           1.438
  23464189.193    -3692417.767 4    244966.71621         7.000           0.313
  21317145.748   -16400479.554 7 -12717280.45121        20.000           1.344
 91  6 17 18  5 59.9980000  0  5G 2G11G19G16G 6
  20306850.217   -20495692.194 7 -15896135.60323        25.250           2.938
  22846604.959    -7058283.190 6  -5499947.17821        14.750           0.813
  21117404.928     2912909.003 6   2273653.67021        15.250           1.469
  23467679.295    -3674136.609 5    259211.71321         8.250           0.344
  21309849.264   -16438810.258 6 -12747148.52622        19.000           1.500
 91  6 17 18  6 14.9980000  0  5G 2G11G19G16G 6
  20301734.553   -20522569.024 7 -15917078.57823        25.250           3.000
  22849909.545    -7040910.756 6                        14.750
  21120721.014     2930352.136 6                        15.000
  23471176.397    -3655769.948 5    273523.36521         8.250           0.406
  21302562.709   -16477109.653 6 -12776992.20522        18.750           1.500
 91  6 17 18  6 29.9980000  0  5G 2G11G19G16G 6
  20296634.537   -20549365.619 7 -15937959.02823        25.000           2.875
  22853239.420    -7023406.785 6                        14.750
  21124051.022     2947856.674 6                        15.500
  23474693.873    -3637320.162 5    287899.78821         9.500           0.250
  21295276.287   -16515379.231 6 -12806812.65921        18.500           1.469
 91  6 17 18  6 44.9980000  0  5G 2G11G19G16G 6
  20291553.061   -20576081.696 7 -15958776.73823        25.500           2.875
  22856595.451    -7005771.375 6  -5459028.90421        15.000           0.719
  21127396.248     2965422.766 6   2314573.44321        14.750           1.406
  23478216.131    -3618787.487 5    302340.77721         8.750           0.406
  21288003.756   -16553618.641 6 -12836609.58821        18.750           1.406
 91  6 17 18  6 59.9980000  0  5G 2G11G19G16G 6
  20286482.928   -20602719.922 7 -15979533.77923        24.250           2.781
  22859976.561    -6988007.398 6  -5445186.87021        14.000           0.719
  21130748.975     2983047.830 6   2328307.24721        16.000           1.375
  23481761.740    -3600174.749 5    316844.17421         8.500           0.250
  21280732.803   -16591830.567 6 -12866385.10821        19.500           1.406
 91  6 17 18  7 14.9980000  0  5G 2G11G19G16G 6
  20281429.397   -20629276.061 7 -16000226.86523        25.000           2.719
  22863383.412    -6970110.793 6  -5431241.49821        14.250           0.656
  21134110.287     3000736.094 6   2342090.29221        14.250           1.375
  23485314.803    -3581478.041 5    331413.03021         8.250           0.344
  21273468.717   -16630010.533 6 -12896135.72521        19.250           1.406
 91  6 17 18  7 29.9980000  0  5G 2G11G19G16G 6
  20276389.147   -20655749.863 7 -16020855.79523        24.000           2.750
  22866819.029    -6952081.697 6  -5417192.86121        16.500           0.781
  21137492.748     3018487.734 6   2355922.72121        15.250           1.438
  23488889.076    -3562697.678 5    346047.01821         8.500           0.344
  21266209.131   -16668158.323 6 -12925861.26722        19.250           1.563
 91  6 17 18  7 44.9980000  0  5G 2G11G19G16G 6
  20271367.936   -20682140.535 7 -16041419.94423        25.000           2.750
  22870271.795    -6933919.236 6  -5403040.29821        13.750           0.594
  21140883.092     3036303.800 6   2369805.34921        15.000           1.344
  23492483.990    -3543832.650 5    360747.00321         8.750           0.250
  21258955.365   -16706272.835 6 -12955560.87522        19.000           1.719
 91  6 17 18  7 59.9980000  0  5G 2G11G19G16G 6
  20266361.514   -20708452.047 7 -16061922.41323        24.750           2.875
  22873751.865    -6915627.702 6  -5388787.20121        14.250           0.625
  21144284.514     3054180.336 6   2383735.12021        15.250           1.375
  23496088.264    -3524887.464 5    375509.47421         8.500           0.219
  21251707.498   -16744357.881 6 -12985237.52122        19.750           1.531
 91  6 17 18  8 14.9980000  0  5G 2G11G19G16G 6
  20261368.139   -20734684.380 7 -16082363.17723        25.000           2.938
  22877255.240    -6897207.457 6  -5374433.75421        15.000           0.563
  21147698.920     3072117.250 6   2397711.91422        14.750           1.531
  23499694.076    -3505862.277 4    390334.25921         7.250           0.344
  21244463.654   -16782413.565 6 -13014891.28622        19.000           1.500
 91  6 17 18  8 29.9980000  0  5G 2G11G19G16G 6
  20256396.912   -20760843.068 7 -16102746.55523        25.500           2.844
  22880786.490    -6878664.256 6  -5359984.51221        14.750           0.688
  21151119.647     3090109.110 6   2411731.52922        15.250           1.563
  23503347.662    -3486763.140 5    405216.65321         9.250           0.281
  21237230.936   -16820445.114 6 -13044526.26021        19.500           1.438
 91  6 17 18  8 44.9980000  0  5G 2G11G19G16G 6
  20251430.053   -20786920.827 7 -16123066.87323        25.250           2.969
  22884340.373    -6859991.042 6  -5345433.98521        14.750           0.625
  21154561.686     3108163.020 6   2425799.49822        15.250           1.594
  23506983.428    -3467582.910 5    420162.23221         7.500           0.375
  21229998.826   -16858445.122 6 -13074136.65522        19.750           1.531
 91  6 17 18  8 59.9980000  0  5G 2G11G19G16G 6
  20246486.139   -20812911.295 7 -16143319.17323        26.000           2.938
  22887917.936    -6841181.712 6  -5330777.36921        12.750           0.625
  21158001.272     3126285.488 6   2439920.87422        15.000           1.500
  23510652.951    -3448315.799 4    435175.52521         7.250           0.344
  21222773.178   -16896407.278 7 -13103717.55222        20.500           1.531
 91  6 17 18  9 14.9980000  0  5G 2G11G19G16G 6
  20241553.982   -20838821.663 7 -16163509.05823        25.250           2.813
  22891525.193    -6822243.639 6  -5316020.45021        14.500           0.563
  21161466.975     3144469.282 6   2454090.05021        15.250           1.375
  23514332.084    -3428969.186 5    450250.77321         7.750           0.281
  21215554.693   -16934338.405 6 -13133274.26722        19.500           1.594
 91  6 17 18  9 29.9980000  0  5G 2G11G19G16G 6
  20236637.053   -20864653.654 7 -16183637.87623        25.250           2.750
  22895154.600    -6803178.854 6  -5301164.77321        15.250           0.750
  21164936.264     3162712.629 6   2468305.64421        15.000           1.406
  23518034.084    -3409545.182 5    465386.31421         8.000           0.438
  21208341.201   -16972240.286 6 -13162808.18522        19.750           1.656
 91  6 17 18  9 44.9980000  0  5G 2G11G19G16G 6
  20231730.709   -20890410.466 7 -16203708.11023        24.250           2.750
  22898801.561    -6783990.687 6  -5286212.94621        14.250           0.625
  21168423.365     3181012.565 6   2482565.32921        15.000           1.406
  23521744.928    -3390047.264 5    480579.44921         8.250           0.438
  21201135.389   -17010115.843 7 -13192321.60022        20.500           1.563
 91  6 17 18  9 59.9980000  0  5G 2G11G19G16G 6
  20226849.068   -20916086.900 7 -16223715.71523        25.250           2.750
  22902482.154    -6764674.115 6  -5271161.11721        14.000           0.719
  21171909.225     3199374.408 6   2496873.23921        15.500           1.406
  23525469.975    -3370470.670 5    495833.85921         7.750           0.313
  21193930.147   -17047959.715 6 -13221810.32421        19.750           1.469
 91  6 17 18 10 14.9980000  0  5G 2G11G19G16G 6
  20221982.381   -20941683.851 7 -16243661.37523        25.500           2.781
  22906180.881    -6745230.389 6  -5256010.15221        15.250           0.781
  21175420.967     3217797.150 6   2511228.60221        15.000           1.438
  23529204.506    -3350816.556 5    511148.74521         8.000           0.469
  21186737.943   -17085772.747 6 -13251275.02421        19.250           1.438
 91  6 17 18 10 29.9980000  0  5G 2G11G19G16G 6
  20217121.693   -20967199.458 7 -16263543.64823        25.000           2.938
  22909903.342    -6725657.905 6  -5240758.90721        15.000           0.813
  21178941.279     3236282.657 6   2525632.88122        14.750           1.531
  23532960.576    -3331083.234 5    526525.30421         8.500           0.344
  21179548.772   -17123553.005 6 -13280714.18221        19.500           1.438
 91  6 17 18 10 44.9980000  0  5G 2G11G19G16G 6
  20212283.670   -20992636.762 7 -16283364.91623        25.500           2.906
  22913649.904    -6705959.990 6                        13.750
  21182470.100     3254828.032 6   2540083.80622        15.750           1.625
  23536728.834    -3311274.140 5                         8.000
  21172364.061   -17161303.409 6 -13310130.07222        19.500           1.531
 91  6 17 18 10 59.9980000  0  5G 2G11G19G16G 6
  20207455.459   -21017992.080 7 -16303122.29723        24.500           3.000
  22917427.334    -6686133.266 6                        13.750
  21186011.537     3273436.675 6   2554584.02222        15.250           1.625
  23540517.350    -3291386.159 5                         7.750
  21165189.412   -17199020.194 7 -13339519.78421        20.000           1.438
 91  6 17 18 11 14.9980000  0  5G 2G11G19G16G 6
  20202648.912   -21043265.505 7 -16322815.86623        25.250           3.063
  22921221.506    -6666177.850 6                        13.250
  21189562.889     3292108.717 6   2569133.66122        15.250           1.594
  23544323.053    -3271419.551 5                         8.000
  21158015.162   -17236703.131 6 -13368883.10622        19.250           1.531
 91  6 17 18 11 29.9980000  0  5G 2G11G19G16G 6
  20197856.014   -21068455.637 7 -16342444.53423        25.500           2.969
  22925044.201    -6646092.684 6                        14.250
  21193126.576     3310845.468 6   2583733.71821        14.500           1.469
  23548134.100    -3251373.029 5                         8.500
  21150853.326   -17274350.719 6 -13398218.88522        19.250           1.500
 91  6 17 18 11 44.9980000  0  5G 2G11G19G16G 6
  20193081.287   -21093557.709 7 -16362004.58023        26.250           3.000
  22928893.357    -6625873.233 6  -5163004.70521        14.250           0.688
  21196706.678     3329651.800 6   2598387.98422        13.500           1.500
  23551969.006    -3231242.411 4    604323.14521         7.250           0.313
  21143698.076   -17311958.183 6 -13427523.39222        19.000           1.531
 91  6 17 18 11 59.9980000  0  5G 2G11G19G16G 6
  20188318.592   -21118580.472 7 -16381502.82723        26.000           3.063
  22932760.459    -6605528.687 6  -5147151.81521        13.500           0.750
  21200293.545     3348518.903 6   2613089.59921        15.000           1.469
  23555814.006    -3211036.586 5    620067.92821         7.500           0.219
  21136548.389   -17349534.182 6 -13456803.38221        19.500           1.469
 91  6 17 18 12 14.9980000  0  5G 2G11G19G16G 6
  20183569.982   -21143526.173 7 -16400941.02423        25.500           2.906
  22936658.389    -6585061.410 6  -5131203.31021        14.250           0.594
  21203897.162     3367444.530 6   2627836.82721        14.500           1.406
  23559666.631    -3190758.288 4    635869.17921         6.500           0.250
  21129402.342   -17387080.736 7 -13486060.42322        20.000           1.531
 91  6 17 18 12 29.9980000  0  5G 2G11G19G16G 6
  20178835.389   -21168395.584 7 -16420319.77423        24.000           2.938
  22940575.506    -6564472.438 6  -5115159.93521        14.500           0.813
  21207507.865     3386427.907 6   2642629.06322        15.750           1.531
  23563543.709    -3170408.801 4    651725.88021         7.000           0.281
  21122260.678   -17424598.533 7 -13515295.06321        20.000           1.344
 91  6 17 18 12 44.9980000  0  5G 2G11G19G16G 6
  20174118.014   -21193191.854 7 -16439641.54323        24.000           3.031
  22944517.811    -6543765.138 6  -5099024.41821        17.000           0.625
  21211137.014     3405466.093 6   2657464.01022        14.500           1.531
  23567419.006    -3149991.199 4    667635.67921         6.500           0.281
  21115127.967   -17462090.519 7 -13544509.59221        20.500           1.469
 91  6 17 18 12 59.9980000  0  5G 2G11G19G16G 6
  20169415.623   -21217910.561 7 -16458902.86423        25.000           2.906
  22948483.342    -6522935.643 6  -5082793.62921        15.750           0.781
  21214765.014     3424563.228 6   2672344.87422        13.750           1.625
  23571332.607    -3129501.521 4    683601.58821         6.250           0.344
  21107996.545   -17499552.299 7 -13573700.59021        20.000           1.375
 91  6 17 18 13 14.9980000  0  5G 2G11G19G16G 6
  20164728.717   -21242543.994 7 -16478097.74423        26.250           3.000
  22952471.029    -6501976.248 6  -5066461.68421        14.500           0.594
  21218410.068     3443727.224 6   2687277.83522        13.250           1.594
  23575235.068    -3108932.532 4    699629.32921         6.750           0.281
  21100873.436   -17536975.936 6 -13602861.86221        19.750           1.438
 91  6 17 18 13 29.9980000  0  4G 2G11G19G 6
  20160055.811   -21267096.573 7 -16497229.61123        25.250           3.156
  22956481.639    -6480891.492 6  -5050032.01421        14.250           0.531
  21222074.514     3462953.726 6   2702259.51022        13.750           1.594
  21093763.240   -17574365.599 7 -13631996.65721        20.750           1.469
 91  6 17 18 13 44.9980000  0  4G 2G11G19G 6
  20155397.522   -21291569.227 7 -16516299.20323        25.500           3.219
  22960513.647    -6459682.689 6  -5033505.68121        13.500           0.688
  21225744.701     3482241.728 6   2717289.10122        14.250           1.500
  21086657.115   -17611722.133 7 -13661105.64122        20.750           1.719
 91  6 17 18 13 59.9980000  0  4G 2G11G19G 6
  20150757.576   -21315963.483 7 -16535307.70623        25.750           3.188
  22964576.779    -6438351.627 6  -5016884.08421        14.250           0.688
  21229421.295     3501589.765 6   2732365.46021        14.250           1.406
  21079549.850   -17649047.009 6 -13690189.93722        19.750           1.563
 91  6 17 18 14 14.9980000  0  4G 2G11G19G 6
  20146129.459   -21340277.809 7 -16554253.92623        25.750           3.094
  22968659.475    -6416897.034 6  -5000166.23421        13.750           0.563
  21233119.006     3520999.273 6   2747489.72721        13.750           1.344
  21072452.818   -17686338.505 6 -13719248.24222        19.500           1.688
 91  6 17 18 14 29.9980000  0  4G 2G11G19G 6
  20141517.998   -21364512.103 7 -16573137.78723        25.500           2.969
  22972763.357    -6395318.977 6  -4983352.19121        13.750           0.563
  21236822.967     3540470.340 6   2762661.95621        15.250           1.438
  21065365.232   -17723596.281 7 -13748280.26722        20.250           1.625
 91  6 17 18 14 44.9980000  0  4G 2G11G19G 6
  20136922.326   -21388665.834 7 -16591958.87323        25.750           2.906
  22976895.107    -6373617.235 6  -4966441.75121        13.000           0.625
  21240537.029     3560003.701 6   2777882.72521        14.750           1.344
  21058283.264   -17760819.734 7 -13777285.55622        21.000           1.563
 91  6 17 18 14 59.9980000  0  4G 2G11G19G 6
  20132338.568   -21412747.233 7 -16610723.59622        25.750           2.000
  22981046.725    -6351800.380 6  -4949441.63921        14.000           0.438
  21244268.318     3579591.051 6   2793145.58421        16.250           0.938
  21051203.748   -17798017.036 7 -13806270.46621        20.500           1.094
 91  6 17 18 15 14.9980000  0  4G 2G11G19G 6
  20127771.623   -21436749.784 7 -16629426.87423        25.750           2.844
  22985218.248    -6329862.236 6  -4932346.94721        13.500           0.688
  21248010.818     3599238.819 6   2808455.53121        15.500           1.344
  21044128.584   -17835181.584 6 -13835229.84922        19.250           1.531
 91  6 17 18 15 29.9980000  0  4G 2G11G19G 6
  20123220.912   -21460670.912 7 -16648066.70522        20.750           1.969
  22989419.264    -6307800.383 5  -4915155.92121        10.000           0.438
  21251756.857     3618949.834 6   2823814.74021        12.000           0.906
  21037062.482   -17872310.592 6 -13864161.53821        15.500           1.063
 91  6 17 18 15 44.9980000  0  4G 2G11G19G 6
  20118681.482   -21484520.135 7 -16666650.51822        24.000           2.281
  22993638.904    -6285624.560 5  -4897876.09821        11.500           0.438
  21255516.037     3638714.456 6   2839215.71221        13.500           1.063
  21030004.014   -17909413.292 6 -13893072.72521        17.750           1.188
 91  6 17 18 15 59.9980000  0  4G 2G11G19G 6
  20114156.037   -21508298.418 7 -16685179.03823        26.000           3.031
  22997879.725    -6263335.951 6  -4880508.35321        12.750           0.563
  21259287.107     3658531.703 6   2854657.69821        15.000           1.438
  21022952.147   -17946490.653 7 -13921964.15922        20.000           1.656
 91  6 17 18 16 14.9980000  0  4G 2G11G19G 6
  20109644.248   -21532000.194 7 -16703647.94623        25.500           2.938
  23002146.482    -6240929.339 6  -4863048.67721        15.250           0.688
  21263071.748     3678407.113 6   2870145.00821        14.500           1.344
  21015900.326   -17983537.029 6 -13950831.45822        19.750           1.594
 91  6 17 18 16 29.9980000  0  4G 2G11G19G 6
  20105149.693   -21555629.153 7 -16722060.12123        26.000           2.906
  23006430.584    -6218408.411 6  -4845499.93021        13.750           0.594
  21266863.857     3698337.241 6   2885674.93421        15.000           1.344
  21008854.154   -18020555.735 6 -13979677.18922        19.500           1.688
 91  6 17 18 16 44.9980000  0  4G 2G11G19G 6
  20100669.615   -21579180.424 7 -16740411.75523        26.500           2.969
  23010737.022    -6195768.767 6  -4827858.65921        13.750           0.563
  21270671.662     3718326.933 6   2901251.29621        15.500           1.344
  21001817.225   -18057541.776 6 -14008497.48322        19.000           1.625
 91  6 17 18 16 59.9980000  0  4G 2G11G19G 6
  20096199.928   -21602655.744 7 -16758704.21023        25.750           2.938
  23015068.225    -6173012.319 6  -4810126.37221        14.000           0.563
  21274484.186     3738374.432 6   2916872.69721        16.000           1.219
  20994778.709   -18094496.805 6 -14037293.61122        18.500           1.656
 91  6 17 18 17 14.9980000  0  4G 2G11G19G 6
  20091748.186   -21626048.528 7 -16776932.34923        25.500           3.000
  23019421.115    -6150132.751 6  -4792298.15221        12.750           0.563
  21278311.404     3758486.320 6   2932544.27021        15.000           1.250
  20987757.264   -18131414.043 6 -14066060.28722        19.750           1.625
 91  6 17 18 17 29.9980000  0  4G 2G11G19G 6
  20087314.857   -21649360.192 7 -16795097.28123        26.000           2.906
  23023800.029    -6127131.902 6  -4774375.42021        12.000           0.594
  21282148.975     3778661.244 6   2948264.96521        15.500           1.281
  20980740.553   -18168294.837 6 -14094798.55522        19.500           1.625
 91  6 17 18 17 44.9980000  0  4G 2G11G19G 6
  20082894.600   -21672590.914 7 -16813199.13523        26.500           3.000
  23028198.990    -6104010.028 6  -4756358.38921        13.500           0.656
  21286001.092     3798899.108 6   2964034.70421        14.000           1.313
  20973729.342   -18205139.113 7 -14123508.37822        20.000           1.656
 91  6 17 18 17 59.9980000  0  4G 2G11G19G 6
  20078482.326   -21695746.874 7 -16831242.72723        25.250           2.969
  23032622.506    -6080773.666 6  -4738252.16821        14.500           0.500
  21289860.740     3819193.716 6   2979848.65721        14.500           1.406
  20966723.381   -18241953.011 7 -14152194.52522        20.000           1.719
 91  6 17 18 18 14.9980000  0  4G 2G11G19G 6
  20074093.295   -21718823.729 7 -16849224.68823        25.500           3.031
  23037063.709    -6057418.724 6  -4720053.50021        15.000           0.563
  21293733.303     3839549.308 6   2995710.11721        13.250           1.469
  20959724.006   -18278731.866 7 -14180853.37022        20.000           1.719
 91  6 17 18 18 29.9980000  0  4G 2G11G19G 6
  20069718.490   -21741822.577 7 -16867145.86523        25.750           3.000
  23041530.178    -6033946.548 6  -4701763.50921        13.000           0.656
  21297619.904     3859964.850 6   3011618.28621        14.500           1.344
  20952734.295   -18315476.755 7 -14209485.74622        20.000           1.625
 91  6 17 18 18 44.9970000  0  4G 2G11G19G 6
  20065356.704   -21764741.824 7 -16885005.00923        25.750           3.031
  23046018.642    -6010358.890 6  -4683383.54321        13.250           0.688
  21301518.360     3880438.946 6   3027572.09921        14.250           1.406
  20945751.704   -18352184.986 7 -14238089.55422        21.000           1.656
 91  6 17 18 18 59.9970000  0  4G 2G11G19G 6
  20061010.103   -21787587.754 7 -16902807.02323        26.250           2.969
  23050528.470    -5986656.201 6  -4664913.94821        12.500           0.563
  21305423.821     3900971.259 6   3043571.29821        14.750           1.344
  20938771.259   -18388864.526 7 -14266671.01322        21.000           1.719
 91  6 17 18 19 14.9970000  0  4G 2G11G19G 6
  20056675.931   -21810352.600 7 -16920545.86423        26.250           2.938
  23055061.274    -5962834.285 6  -4646351.44421        13.750           0.531
  21309341.985     3921566.576 6   3059619.57021        14.750           1.438
  20931795.251   -18425506.735 6 -14295223.37922        19.750           1.719
 91  6 17 18 19 29.9970000  0  4G 2G11G19G 6
  20052362.673   -21833038.171 7 -16938222.92923        26.250           2.969
  23059622.454    -5938894.864 6  -4627697.36521        13.000           0.563
  21313268.181     3942223.412 6   3075715.76622        15.000           1.531
  20924829.806   -18462112.867 7 -14323747.64022        20.500           1.688
 91  6 17 18 19 44.9970000  0  4G 2G11G19G 6
  20048057.649   -21855644.679 7 -16955838.38523        25.250           3.000
  23064200.493    -5914838.466 6  -4608952.15821        13.750           0.406
  21317218.798     3962941.437 6   3091859.64921        15.250           1.406
  20917870.282   -18498683.155 7 -14352243.96222        20.250           1.750
 91  6 17 18 19 59.9970000  0  4G 2G11G19G 6
  20043773.728   -21878171.754 7 -16973391.93823        25.750           3.031
  23068795.392    -5890665.089 6  -4590115.77321        13.000           0.500
  21321168.853     3983720.858 6   3108051.36421        15.500           1.344
  20910917.876   -18535217.082 7 -14380711.96022        20.250           1.719
 91  6 17 18 20 14.9970000  0  4G 2G11G19G 6
  20039500.259   -21900619.616 7 -16990883.76623        25.750           3.000
  23073418.563    -5866375.212 6  -4571188.63421        13.500           0.625
  21325136.274     4004561.482 6   3124290.78121        14.250           1.250
  20903975.954   -18571714.757 7 -14409151.69822        20.750           1.906
 91  6 17 18 20 29.9970000  0  4G 2G11G19G 6
  20035244.259   -21922989.525 7 -17008314.86123        26.250           3.063
  23078064.118    -5841970.325 6  -4552171.88421        13.000           0.656
  21329112.337     4025462.178 6   3140577.01421        14.750           1.188
  20897034.157   -18608177.289 7 -14437564.05522        20.000           1.875
 91  6 17 18 20 44.9970000  0  4G 2G11G19G 6
  20031000.220   -21945281.424 7 -17025685.16723        26.250           3.000
  23082730.853    -5817450.783 6  -4533065.74721        13.500           0.688
  21333101.548     4046422.905 6   3156910.01421        14.500           1.219
  20890102.079   -18644604.557 6 -14465948.93222        19.250           1.813
 91  6 17 18 20 59.9970000  0  4G 2G11G19G 6
  20026771.743   -21967495.737 7 -17042995.01423        25.500           3.063
  23087418.290    -5792817.083 6  -4513870.67221        13.750           0.500
  21337103.759     4067443.256 6   3173289.47421        15.500           1.250
  20883175.853   -18680996.552 6 -14494306.32422        19.500           1.813
 91  6 17 18 21 14.9970000  0  4G 2G11G19G 6
  20022560.313   -21989629.949 7 -17060242.44923        25.000           3.000
  23092124.642    -5768066.956 6  -4494584.86221        12.750           0.531
  21341117.876     4088525.886 6   3189717.47421        15.250           1.344
  20876258.759   -18717350.737 6 -14522634.24522        19.750           1.719
 91  6 17 18 21 29.9970000  0  4G 2G11G19G 6
  20018361.688   -22011687.575 7 -17077430.20323        25.250           2.938
  23096858.384    -5743204.257 6  -4475211.36221        13.000           0.531
  21345135.142     4109667.566 6   3206191.46221        15.000           1.250
  20869348.220   -18753670.338 6 -14550935.23122        19.750           1.813
 91  6 17 18 21 44.9970000  0  4G 2G11G19G 6
  20014180.298   -22033672.108 7 -17094560.99723        26.250           2.813
  23101608.735    -5718232.711 6  -4455753.03121        13.250           0.625
  21349170.063     4130864.610 6   3222708.60921        13.500           1.344
  20862439.665   -18789958.670 6 -14579211.85122        19.500           1.844
 91  6 17 18 21 59.9970000  0  4G 2G11G19G 6
  20010013.431   -22055578.010 7 -17111630.53523        26.250           2.813
  23106381.884    -5693147.054 6  -4436205.76621        12.500           0.469
  21353213.056     4152122.442 6   3239273.12021        14.500           1.344
  20855543.181   -18826210.151 7 -14607459.75622        20.750           1.969
 91  6 17 18 22 14.9970000  0  4G 2G11G19G 6
  20005856.040   -22077405.466 7 -17128638.93823        25.500           2.938
  23111175.978    -5667947.778 6  -4416569.98721        13.000           0.625
  21357277.376     4173440.909 6   3255884.89221        14.250           1.344
  20848652.876   -18862424.861 7 -14635679.00222        20.500           2.000
 91  6 17 18 22 29.9970000  0  4G 2G11G19G 6
  20001720.181   -22099160.239 7 -17145590.70223        26.250           2.969
  23115995.337    -5642640.853 6  -4396850.37121        13.750           0.594
  21361342.118     4194814.405 6   3272539.51421        14.500           1.281
  20841767.149   -18898608.171 7 -14663873.77922        20.000           1.875
 91  6 17 18 22 44.9970000  0  4G 2G11G19G 6
  19997595.329   -22120837.615 7 -17162482.15823        26.500           3.000
  23120830.360    -5617221.967 6  -4377043.44221        13.250           0.375
  21365420.915     4216247.445 6   3289240.55221        13.250           1.375
  20834887.556   -18934755.518 7 -14692040.53622        20.500           1.813
 91  6 17 18 22 59.9970000  0  4G 2G11G19G 6
  19993480.720   -22142436.023 7 -17179312.07923        25.750           2.938
  23125689.853    -5591689.866 6  -4357148.30321        14.500           0.594
  21369506.751     4237741.678 6   3305989.27321        12.500           1.281
  20828013.853   -18970865.086 7 -14720177.85822        21.000           1.844
 91  6 17 18 23 14.9970000  0  4G 2G11G19G 6
  19989388.368   -22163956.757 7 -17196081.48023        26.000           3.031
  23130569.642    -5566046.156 6  -4337166.20621        12.750           0.500
  21373612.712     4259295.835 6   3322784.68821        13.750           1.375
  20821150.657   -19006937.870 7 -14748286.51822        20.500           1.844
 91  6 17 18 23 29.9970000  0  4G 2G11G19G 6
  19985311.446   -22185395.725 7 -17212787.16823        26.500           2.875
  23135471.087    -5540286.815 6  -4317094.02721        12.750           0.594
  21377731.704     4280914.233 6   3339630.16321        14.750           1.406
  20814295.142   -19042969.720 7 -14776363.27222        20.500           1.969
 91  6 17 18 23 44.9970000  0  4G 2G11G19G 6
  19981242.126   -22206762.662 7 -17229436.72723        26.250           2.906
  23140392.149    -5514421.878 6  -4296939.53321        12.500           0.594
  21381850.751     4302587.095 6   3356518.07621        14.750           1.375
  20807444.712   -19078969.978 7 -14804415.41322        20.250           2.031
 91  6 17 18 23 59.9970000  0  4G 2G11G19G 6
  19977193.657   -22228053.067 7 -17246026.64623        27.500           2.844
  23145333.728    -5488447.114 5  -4276699.48421        10.750           0.563
  21385982.431     4324319.043 6   3373452.02621        13.750           1.469
  20800603.298   -19114933.909 7 -14832439.24222        20.500           1.875
 91  6 17 18 24 14.9970000  0  4G 2G11G19G 6
  19973157.517   -22249262.464 7 -17262553.44623        26.750           2.813
  23150303.845    -5462358.498 6  -4256370.73621        13.000           0.469
  21390130.751     4346114.207 6   3390435.25121        13.250           1.438
  20793763.806   -19150857.171 7 -14860431.39022        20.000           1.875
 91  6 17 18 24 29.9970000  0  4G 2G11G19G 6
  19969132.946   -22270392.956 7 -17279018.76323        25.500           2.938
  23155285.665    -5436158.402 6  -4235955.09321        13.250           0.438
  21394290.813     4367970.564 6   3407466.13121        15.000           1.469
  20786935.259   -19186741.697 7 -14888393.35522        20.250           1.938
 91  6 17 18 24 44.9970000  0  4G 2G11G19G 6
  19965130.017   -22291446.949 7 -17295424.46723        26.750           2.906
  23160288.821    -5409849.366 5  -4215454.57021        11.000           0.406
  21398463.829     4389885.862 6   3424542.95021        13.750           1.438
  20780116.212   -19222589.501 7 -14916326.70222        20.750           2.031
 91  6 17 18 24 59.9970000  0  4G 2G11G19G 6
  19961135.587   -22312429.855 7 -17311774.77823        26.250           2.906
  23165321.509    -5383437.004 5  -4194873.55321        11.500           0.313
  21402642.259     4411854.780 6   3441661.54821        14.000           1.281
  20773301.579   -19258405.959 7 -14944235.63322        21.750           1.938
 91  6 17 18 25 14.9970000  0  4G 2G11G19G 6
  19957156.993   -22333332.247 7 -17328062.36123        26.500           2.969
  23170365.462    -5356912.322 5  -4174204.98321        11.250           0.406
  21406834.540     4433886.762 6   3458829.29821        13.250           1.313
  20766493.313   -19294181.414 7 -14972112.60222        20.750           1.844
 91  6 17 18 25 29.9970000  0  4G 2G11G19G 6
  19953195.110   -22354150.697 7 -17344284.52623        27.000           3.031
  23175434.993    -5330272.255 5  -4153446.49221        10.500           0.531
  21411039.657     4455985.100 6   3476048.74721        13.250           1.094
  20759694.720   -19329912.431 7 -14999954.94222        20.500           1.969
 91  6 17 18 25 44.9970000  0  4G 2G11G19G 6
  19949246.493   -22374897.396 7 -17360450.77923        26.500           2.938
  23180527.126    -5303529.169 6  -4132607.78321        13.000           0.469
  21415257.212     4478137.652 6   3493310.45921        13.250           1.063
  20752899.759   -19365610.884 6 -15027771.90822        19.750           1.938
 91  6 17 18 25 59.9970000  0  4G 2G11G19G 6
  19945313.009   -22395568.422 7 -17376558.06723        26.500           2.844
  23185637.321    -5276679.480 6  -4111685.92221        12.250           0.438
  21419479.829     4500348.370 6   3510617.47221        12.750           1.156
  20746114.220   -19401272.768 7 -15055560.38222        20.000           1.906
 91  6 17 18 26 14.9970000  0  4G 2G11G19G 6
  19941393.688   -22416162.794 7 -17392605.62723        26.250           2.781
  23190765.173    -5249722.448 6  -4090680.47521        12.000           0.406
  21423720.720     4522618.183 6   3527970.54521        14.000           1.156
  20739332.931   -19436896.851 6 -15083319.41222        19.750           1.938
 91  6 17 18 26 29.9970000  0  4G 2G11G19G 6
  19937491.188   -22436681.327 7 -17408594.09623        26.250           2.844
  23195919.438    -5222659.169 6  -4069592.20421        12.000           0.438
  21427969.665     4544946.394 6   3545369.11621        14.500           1.313
  20732562.017   -19472483.784 7 -15111049.48722        20.750           2.000
 91  6 17 18 26 44.9970000  0  4G 2G11G19G 6
  19933602.165   -22457121.370 7 -17424521.39423        26.250           2.781
  23201080.954    -5195487.190 5  -4048419.28921         9.750           0.438
  21432234.384     4567335.892 6   3562815.43621        14.000           1.188
  20725798.118   -19508030.533 7 -15138748.25122        21.500           2.063
 91  6 17 18 26 59.9970000  0  4G 2G11G19G 6
  19929727.806   -22477486.467 7 -17440390.29923        27.500           2.875
  23206279.985    -5168210.438 5  -4027164.68121        11.000           0.406
  21436500.017     4589782.924 6   3580306.59521        15.000           1.125
  20719042.267   -19543540.605 7 -15166418.42222        20.250           1.938
 91  6 17 18 27 14.9970000  0  4G 2G11G19G 6
  19925866.282   -22497774.660 7 -17456199.28423        27.000           2.781
  23211488.563    -5140827.176 5  -4005827.08421        11.250           0.469
  21440783.399     4612289.316 6   3597844.01921        14.000           1.156
  20712291.829   -19579011.933 7 -15194058.40822        20.000           1.813
 91  6 17 18 27 29.9970000  0  4G 2G11G19G 6
  19922016.243   -22517987.961 7 -17471949.89823        25.750           2.813
  23216715.837    -5113339.785 5  -3984408.36121        10.500           0.375
  21445078.595     4634853.230 6   3615426.25821        15.000           1.219
  20705548.548   -19614446.310 7 -15221669.61922        21.000           1.750
 91  6 17 18 27 44.9970000  0  4G 2G11G19G 6
  19918187.353   -22538120.328 7 -17487637.45823        26.500           2.781
  23221967.103    -5085742.489 5  -3962903.98821        11.250           0.406
  21449387.071     4657480.741 6   3633058.04721        14.000           1.281
  20698815.079   -19649837.462 7 -15249247.13222        21.250           1.813
 91  6 17 18 27 59.9970000  0  4G 2G11G19G 6
  19914369.196   -22558171.953 7 -17503262.09723        26.250           2.781
  23227241.142    -5058035.531 5  -3941314.16521        11.000           0.406
  21453703.009     4680171.789 6   3650739.34521        13.250           1.344
  20692085.384   -19685185.369 7 -15276790.94322        21.250           1.781
 91  6 17 18 28 14.9970000  0  4G 2G11G19G 6
  19910571.774   -22578145.917 7 -17518826.21923        26.750           2.625
  23232532.024    -5030222.479 5  -3919641.68921        10.250           0.375
  21458029.821     4702923.131 6   3668467.61921        12.500           1.344
  20685364.868   -19720493.044 7 -15304303.41622        20.500           1.781
 91  6 17 18 28 29.9970000  0  4G 2G11G19G 6
  19906785.446   -22598042.941 7 -17534330.39123        27.000           2.719
  23237849.853    -5002304.493 6  -3897887.43221        12.250           0.469
  21462368.688     4725733.896 6   3686242.20521        13.750           1.250
  20678656.212   -19755761.006 7 -15331784.93322        20.250           1.938
 91  6 17 18 28 44.9970000  0  4G 2G11G19G 6
  19903014.376   -22617867.089 7 -17549777.76923        26.500           2.625
  23243179.048    -4974285.757 5  -3876054.70121        11.500           0.531
  21466724.298     4748600.147 6   3704060.01321        13.500           1.156
  20671952.024   -19790993.205 7 -15359238.58822        21.250           1.813
 91  6 17 18 28 59.9970000  0  4G 2G11G19G 6
  19899252.603   -22637618.973 7 -17565168.84823        26.250           2.531
  23248527.556    -4946167.139 5  -3854144.12321        11.250           0.469
  21471082.821     4771521.511 6   3721920.79221        13.750           1.281
  20665253.657   -19826189.863 7 -15386664.54022        21.250           1.781
 91  6 17 18 29 14.9970000  0  4G 2G11G19G 6
  19895510.587   -22657288.060 7 -17580495.40823        26.750           2.625
  23253899.376    -4917938.386 6  -3832147.71821        12.000           0.469
  21475462.884     4794508.510 6   3739832.69721        14.250           1.188
  20658563.188   -19861340.408 7 -15414054.57022        20.250           1.750
 91  6 17 18 29 29.9970000  0  4G 2G11G19G 6
  19891784.563   -22676875.390 7 -17595758.26323        27.250           2.656
  23259295.212    -4889600.923 6  -3810066.59921        13.500           0.500
  21479842.563     4817560.032 6   3757794.89221        13.000           1.250
  20651885.251   -19896445.640 7 -15441409.29822        20.250           1.875
 91  6 17 18 29 44.9970000  0  4G 2G11G19G 6
  19888069.165   -22696386.101 7 -17610961.41423        26.000           2.563
  23264705.962    -4861160.114 6  -3787904.96021        12.750           0.531
  21484244.978     4840670.938 6   3775803.33921        13.250           1.219
  20645210.431   -19931510.438 6 -15468732.51422        19.750           1.906
 91  6 17 18 29 59.9970000  0  4G 2G11G19G 6
  19884373.181   -22715818.595 7 -17626103.61423        25.750           2.625
  23270141.649    -4832614.645 6  -3765661.76021        12.750           0.469
  21488654.165     4863842.824 6   3793859.30421        14.500           1.188
  20638545.938   -19966533.075 7 -15496022.86722        20.000           1.813
 91  6 17 18 30 14.9970000  0  4G 2G11G19G 6
  19880690.376   -22735176.166 7 -17641187.42923        26.250           2.500
  23275586.837    -4803968.188 5  -3743339.88121        11.000           0.563
  21493077.157     4887072.334 6   3811960.17321        14.000           1.094
  20631888.228   -20001516.606 7 -15523282.75222        20.500           1.813
 91  6 17 18 30 29.9970000  0  4G 2G11G19G 6
  19877022.548   -22754455.483 7 -17656210.27123        26.250           2.563
  23281059.360    -4775217.739 5  -3720936.93721        10.750           0.531
  21497505.673     4910362.916 6   3830108.64221        14.500           1.063
  20625241.243   -20036457.785 7 -15550509.64922        21.000           1.813
 91  6 17 18 30 44.9970000  0  4G 2G11G19G 6
  19873366.220   -22773658.056 7 -17671173.31523        26.500           2.563
  23286551.282    -4746365.009 5  -3698454.29421        11.750           0.469
  21501950.024     4933713.125 6   3848303.57821        13.250           1.125
  20618600.728   -20071357.664 7 -15577704.35822        20.500           1.844
 91  6 17 18 30 59.9970000  0  4G 2G11G19G 6
  19869726.095   -22792786.706 7 -17686078.75523        27.000           2.625
  23292061.149    -4717412.885 6  -3675894.19121        12.250           0.531
  21506401.118     4957120.256 6   3866542.85121        12.750           1.031
  20611968.759   -20106218.797 7 -15604868.87522        21.250           1.875
 91  6 17 18 31 14.9970000  0  4G 2G11G19G 6
  19866100.931   -22811838.462 7 -17700924.28123        26.750           2.531
  23297589.251    -4688358.761 6  -3653254.66521        12.250           0.500
  21510870.063     4980587.103 6   3884828.68221        12.000           1.063
  20605340.540   -20141037.924 7 -15632000.65922        20.750           1.813
 91  6 17 18 31 29.9970000  0  4G 2G11G19G 6
  19862490.923   -22830810.665 7 -17715707.81823        26.750           2.563
  23303136.149    -4659200.421 5  -3630533.91221        10.750           0.313
  21515345.313     5004116.433 6   3903163.17421        12.500           1.125
  20598722.790   -20175812.431 7 -15659097.66322        21.500           1.813
 91  6 17 18 31 44.9970000  0  4G 2G11G19G 6
  19858894.329   -22849703.329 7 -17730429.37623        26.250           2.594
  23308708.360    -4629938.132 6  -3607732.18121        12.250           0.375
  21519838.829     5027708.318 6   3921546.41421        12.250           1.156
  20592115.024   -20210541.966 7 -15686159.64622        21.000           2.063
 91  6 17 18 31 59.9970000  0  4G 2G11G19G 6
  19855313.657   -22868524.882 7 -17745095.52023        26.500           2.531
  23314290.509    -4600580.683 6  -3584856.27221        12.250           0.375
  21524335.618     5051354.286 6   3939971.79321        12.750           1.063
  20585514.126   -20245235.013 7 -15713193.17622        20.500           1.938
 91  6 17 18 32 14.9970000  0  4G 2G11G19G 6
  19851745.196   -22887272.797 7 -17759704.28223        26.750           2.625
  23319897.360    -4571125.844 5  -3561904.48921        11.250           0.500
  21528849.009     5075056.833 6   3958441.26521        13.000           1.125
  20578917.071   -20279888.781 7 -15740196.10222        20.750           1.938
 91  6 17 18 32 29.9970000  0  4G 2G11G19G 6
  19848190.259   -22905948.233 7 -17774256.56923        26.750           2.594
  23325526.415    -4541575.035 5  -3538877.89721        11.750           0.469
  21533366.204     5098814.740 6   3976953.88421        13.500           1.000
  20572332.267   -20314504.177 7 -15767169.12622        21.500           1.844
 91  6 17 18 32 44.9970000  0  4G 2G11G19G 6
  19844652.938   -22924548.309 8 -17788750.13223        28.000           2.531
  23331164.876    -4511925.552 5  -3515774.43621        10.750           0.469
  21537898.899     5122630.946 6   3995511.92321        13.000           1.125
  20565752.470   -20349078.097 7 -15794109.84522        21.750           1.844
 91  6 17 18 32 59.9970000  0  4G 2G11G19G 6
  19841130.384   -22943071.932 8 -17803184.12923        28.250           2.656
  23336823.571    -4482176.690 5  -3492593.57321         9.750           0.438
  21542439.462     5146506.410 6   4014116.14021        12.750           1.125
  20559180.587   -20383609.363 7 -15821017.32622        22.000           1.813
 91  6 17 18 33 14.9970000  0  4G 2G11G19G 6
  19837618.345   -22961518.284 8 -17817557.91023        28.000           2.563
  23342502.368    -4452327.834 5  -3469334.74521         9.750           0.531
  21546998.423     5170442.065 6   4032767.26421        12.250           1.156
  20552620.056   -20418096.887 7 -15847890.71222        21.750           2.031
 91  6 17 18 33 29.9970000  0  4G 2G11G19G 6
  19834124.103   -22979889.594 7 -17831873.21822        27.750           2.469
  23348202.353    -4422381.515 5  -3445999.95421        11.750           0.344
  21551561.579     5194435.908 6   4051463.70421        12.750           1.031
  20546060.673   -20452542.672 7 -15874731.56922        20.500           1.938
 91  6 17 18 33 44.9970000  0  4G 2G11G19G 6
  19830641.540   -22998185.394 8 -17846129.68723        28.000           2.531
  23353919.212    -4392337.409 5  -3422588.99821        10.750           0.438
  21556140.962     5218488.399 6   4070205.85321        12.000           1.094
  20539516.790   -20486945.874 7 -15901539.24522        20.750           2.125
 91  6 17 18 33 59.9970000  0  4G 2G11G19G 6
  19827173.321   -23016404.430 7 -17860326.33523        27.250           2.500
  23359651.782    -4362194.627 5  -3399101.14521        10.000           0.438
  21560726.978     5242600.804 6   4088994.69421        13.250           1.125
  20532978.696   -20521305.181 7 -15928312.72322        20.750           1.969
 91  6 17 18 34 14.9970000  0  4G 2G11G19G 6
  19823721.837   -23034546.773 7 -17874463.22323        27.500           2.563
  23365407.040    -4331953.762 5  -3375536.85821        10.000           0.219
  21565327.907     5266772.873 6   4107830.03321        13.000           1.125
  20526445.837   -20555620.618 7 -15955052.02622        20.000           1.875
 91  6 17 18 34 29.9970000  0  4G 2G11G19G 6
  19820284.110   -23052614.830 7 -17888542.22823        27.500           2.531
  23371182.634    -4301617.262 5  -3351898.06421        10.000           0.156
  21569939.321     5291002.400 6   4126710.14621        14.000           1.125
  20519925.657   -20589894.180 7 -15981758.70922        20.500           2.000
 91  6 17 18 34 44.9970000  0  4G 2G11G19G 6
  19816855.634   -23070611.510 7 -17902565.61523        26.750           2.594
  23376972.806    -4271188.445 5  -3328187.32321        10.500           0.219
  21574564.188     5315286.078 6   4145632.44721        12.750           1.156
  20513413.540   -20624128.715 7 -16008434.96122        21.250           2.063
 91  6 17 18 34 59.9970000  0  4G 2G11G19G 6
  19813447.149   -23088535.358 7 -17916532.25523        26.750           2.563
  23382783.829    -4240666.125 5  -3304403.74121        11.500           0.313
  21579192.462     5339625.882 6   4164598.48521        13.500           1.125
  20506903.673   -20658322.383 7 -16035079.38622        21.250           2.063
 91  6 17 18 35 14.9970000  0  4G 2G11G19G 6
  19810049.657   -23106381.611 7 -17930438.42923        26.750           2.531
  23388608.392    -4210045.828 5  -3280543.77121        10.250           0.313
  21583838.774     5364026.506 6   4183611.90421        13.250           1.156
  20500408.556   -20692470.349 7 -16061688.18222        21.250           2.063
 91  6 17 18 35 29.9970000  0  4G 2G11G19G 6
  19806671.235   -23124154.399 7 -17944287.35923        27.000           2.625
  23394454.485    -4179332.206 5  -3256611.13221        11.250           0.313
  21588490.517     5388483.705 6   4202669.42821        13.000           1.156
  20493914.524   -20726576.657 7 -16088264.53422        21.250           2.219
 91  6 17 18 35 44.9970000  0  4G 2G11G19G 6
  19803300.587   -23141854.693 7 -17958079.79323        27.000           2.500
  23400314.438    -4148526.251 5  -3232606.49421        11.250           0.281
  21593153.657     5412996.726 6   4221770.42121        12.250           1.125
  20487433.970   -20760641.954 7 -16114808.91222        21.250           2.250
 91  6 17 18 35 59.9970000  0  4G 2G11G19G 6
  19799946.548   -23159479.515 7 -17971813.41523        26.750           2.625
  23406191.782    -4117625.288 5  -3208527.86521         9.500           0.313
  21597833.978     5437568.414 6   4240917.15321        12.750           1.156
  20480962.673   -20794663.030 7 -16141318.84322        21.250           2.188
 91  6 17 18 36 14.9970000  0  4G 2G11G19G 6
  19796607.595   -23177028.164 7 -17985487.69223        26.500           2.531
  23412090.017    -4086629.079 5  -3184375.04221        10.500           0.406
  21602522.798     5462199.320 6   4260110.02821        13.750           1.031
  20474491.782   -20828639.039 7 -16167793.65822        20.500           2.063
 91  6 17 18 36 29.9970000  0  4G 2G11G19G 6
  19793281.657   -23194499.448 7 -17999101.68323        26.250           2.594
  23418015.110    -4055536.649 5  -3160147.16321        11.250           0.438
  21607221.478     5486890.877 6   4279350.16421        14.000           1.094
  20468037.845   -20862568.392 7 -16194232.11322        21.250           2.188
 91  6 17 18 36 44.9970000  0  4G 2G11G19G 6
  19789970.946   -23211893.866 7 -18012655.77423        26.000           2.656
  23423947.821    -4024348.671 5  -3135844.89621        10.000           0.406
  21611930.384     5511642.610 6   4298637.16421        13.500           1.063
  20461592.509   -20896451.644 7 -16220634.63722        22.000           2.031
 91  6 17 18 36 59.9970000  0  4G 2G11G19G 6
  19786679.142   -23229216.120 7 -18026153.63723        27.500           2.625
  23429899.954    -3993070.332 6  -3111472.19221        12.000           0.313
  21616646.767     5536449.476 6   4317967.15921        13.500           1.125
  20455145.595   -20930293.224 7 -16247004.71022        20.750           2.125
 91  6 17 18 37 14.9970000  0  4G 2G11G19G 6
  19783394.798   -23246462.264 7 -18039592.19423        26.750           2.625
  23435868.907    -3961697.901 6  -3087026.16721        13.250           0.250
  21621382.313     5561315.555 6   4337343.26921        13.000           1.156
  20448715.267   -20964088.911 7 -16273339.01222        20.500           2.188
 91  6 17 18 37 29.9970000  0  4G 2G11G19G 6
  19780126.376   -23263633.657 7 -18052972.49523        26.500           2.750
  23441859.165    -3930233.043 6  -3062508.12321        13.750           0.406
  21626122.259     5586239.571 6   4356764.52221        13.250           1.000
  20442295.735   -20997839.934 7 -16299638.50422        20.250           2.156
 91  6 17 18 37 44.9970000  0  4G 2G11G19G 6
  19776871.774   -23280733.277 7 -18066296.87623        26.500           2.688
  23447859.313    -3898679.007 6  -3037920.64121        12.000           0.344
  21630874.665     5611218.781 5   4376228.78621        11.750           1.094
  20435883.938   -21031548.834 7 -16325905.17322        21.500           2.031
 91  6 17 18 37 59.9970000  0  4G 2G11G19G 6
  19773636.446   -23297753.326 7 -18079559.25323        26.500           2.563
  23453883.157    -3867028.389 5  -3013257.82321        11.500           0.281
  21635643.907     5636260.843 6   4395742.01821        12.500           1.125
  20429479.188   -21065207.705 7 -16352132.85522        21.500           2.063
 91  6 17 18 38 14.9970000  0  4G 2G11G19G 6
  19770411.376   -23314696.046 7 -18092761.37723        26.750           2.594
  23459924.634    -3835283.758 6  -2988521.74421        12.250           0.313
  21640418.688     5661363.427 6   4415302.43021        12.500           1.031
  20423077.142   -21098818.877 7 -16378323.37822        20.000           2.094
 91  6 17 18 38 29.9970000  0  4G 2G11G19G 6
  19767199.517   -23331567.912 7 -18105908.29323        26.750           2.656
  23465983.024    -3803451.616 6  -2963717.50321        12.250           0.375
  21645202.103     5686520.244 6   4434905.08621        12.000           1.063
  20416691.360   -21132388.211 7 -16404481.27822        20.750           2.219
 91  6 17 18 38 44.9970000  0  4G 2G11G19G 6
  19764000.415   -23348366.058 7 -18118997.76323        26.250           2.625
  23472056.501    -3771529.338 6  -2938843.04621        12.750           0.313
  21650003.876     5711734.338 6   4454552.39721        12.250           1.031
  20410312.798   -21165912.641 7 -16430604.20522        21.250           2.344
 91  6 17 18 38 59.9970000  0  4G 2G11G19G 6
  19760821.462   -23365094.139 7 -18132032.63823        27.000           2.594
  23478151.009    -3739521.049 6  -2913901.58721        13.250           0.375
  21654808.157     5737001.684 6   4474241.19421        13.250           1.000
  20403942.501   -21199395.732 7 -16456694.91622        21.000           2.219
